[[{"header":{"parameterUnit":"m.s-1","parameterCategory":1,"la1":30.6,"la2":29.2853,"lo1":-89.7004,"lo2":-87.6739,"dy":0.0162,"dx":0.0183,"nx":112,"ny":82,"refTime":"2023-06-29T12:00:00:Z","depth":0,"parameterNumber":2,"parameterNumberName":"U-component_of_WINDS"},"data":[0.0,0.0,0.0,0.0,0.0,0.0,0.0,0.0,0.0,0.0,0.0,0.0,0.0,0.0,0.0,0.0,0.0,0.0,0.0,0.0,0.0,0.0,0.0,0.0,0.0,0.0,0.0,0.0,0.0,0.0,0.0,0.0,0.0,0.0,0.0,0.0,0.0,0.0,0.0,0.0,0.0,0.0,0.0,0.0,0.0,0.0,0.0,0.0,0.0,0.0,0.0,0.0,0.0,0.0,0.0,0.0,0.0,0.0,0.0,0.0,0.0,0.0,0.0,0.0,0.0,0.0,0.0,0.0,0.0,0.0,0.0,0.0,0.0,0.0,0.0,0.0,0.0,0.0,0.0,0.0,0.0,0.0,0.0,0.0,0.0,0.0,0.0,0.0,0.0,0.0,0.0,-3.665,-4.0438,-4.2901,-4.2901,-4.2901,-4.0818,-3.5914,0.0,0.0,0.0,0.0,0.0,0.0,0.0,0.0,0.0,0.0,0.0,0.0,0.0,0.0,0.0,0.0,0.0,0.0,0.0,0.0,0.0,0.0,0.0,0.0,0.0,0.0,0.0,0.0,0.0,0.0,0.0,0.0,0.0,0.0,0.0,0.0,0.0,0.0,0.0,0.0,0.0,0.0,0.0,0.0,0.0,0.0,0.0,0.0,0.0,0.0,0.0,0.0,0.0,0.0,0.0,0.0,0.0,0.0,0.0,0.0,0.0,0.0,0.0,0.0,0.0,0.0,0.0,0.0,0.0,0.0,0.0,0.0,0.0,0.0,0.0,0.0,0.0,0.0,0.0,0.0,0.0,0.0,0.0,0.0,0.0,0.0,0.0,0.0,0.0,0.0,0.0,0.0,0.0,0.0,0.0,0.0,0.0,0.0,0.0,0.0,0.0,0.0,0.0,0.0,-3.7258,-4.1361,-4.2466,-4.2901,-4.2901,-4.2901,-4.0818,-3.5914,0.0,0.0,0.0,0.0,0.0,0.0,0.0,0.0,0.0,0.0,0.0,0.0,0.0,0.0,0.0,0.0,0.0,0.0,0.0,0.0,0.0,0.0,0.0,0.0,0.0,0.0,0.0,0.0,0.0,0.0,0.0,0.0,0.0,0.0,0.0,0.0,0.0,0.0,0.0,0.0,0.0,0.0,0.0,0.0,0.0,0.0,0.0,0.0,0.0,0.0,0.0,0.0,0.0,0.0,0.0,0.0,0.0,0.0,0.0,0.0,0.0,0.0,0.0,0.0,0.0,0.0,0.0,0.0,0.0,0.0,0.0,0.0,0.0,0.0,0.0,0.0,0.0,0.0,0.0,0.0,0.0,0.0,0.0,0.0,0.0,0.0,0.0,0.0,0.0,0.0,0.0,0.0,0.0,0.0,0.0,0.0,0.0,0.0,0.0,0.0,0.0,0.0,0.0,-3.5301,-3.7965,-4.2411,-4.2901,-4.2901,-4.2901,-4.2901,-4.0818,-3.5914,-3.5199,0.0,0.0,0.0,0.0,0.0,0.0,0.0,0.0,0.0,0.0,0.0,0.0,0.0,0.0,0.0,0.0,0.0,0.0,0.0,0.0,0.0,0.0,0.0,0.0,0.0,0.0,0.0,0.0,0.0,0.0,0.0,0.0,0.0,0.0,0.0,0.0,0.0,0.0,0.0,0.0,0.0,0.0,0.0,0.0,0.0,0.0,0.0,0.0,0.0,0.0,0.0,0.0,0.0,0.0,0.0,0.0,0.0,0.0,0.0,0.0,0.0,0.0,0.0,0.0,0.0,0.0,0.0,0.0,0.0,0.0,0.0,0.0,0.0,0.0,0.0,0.0,0.0,0.0,0.0,0.0,0.0,0.0,0.0,0.0,0.0,0.0,0.0,0.0,0.0,0.0,0.0,0.0,0.0,0.0,0.0,0.0,0.0,0.0,0.0,0.0,0.0,0.0,-3.7103,-3.9391,-4.2556,-4.2901,-4.2901,-4.2901,-4.2901,-4.08,-3.5863,-3.5473,0.0,0.0,0.0,0.0,0.0,0.0,0.0,0.0,0.0,0.0,0.0,0.0,0.0,0.0,0.0,0.0,0.0,0.0,0.0,0.0,0.0,0.0,0.0,0.0,0.0,0.0,0.0,0.0,0.0,0.0,0.0,0.0,0.0,0.0,0.0,0.0,0.0,0.0,0.0,0.0,0.0,0.0,0.0,0.0,0.0,0.0,0.0,0.0,0.0,0.0,0.0,0.0,0.0,0.0,0.0,0.0,0.0,0.0,0.0,0.0,0.0,0.0,0.0,0.0,0.0,0.0,0.0,0.0,0.0,0.0,0.0,0.0,0.0,0.0,0.0,0.0,0.0,0.0,0.0,0.0,0.0,0.0,0.0,0.0,0.0,0.0,0.0,0.0,0.0,0.0,0.0,0.0,0.0,0.0,0.0,0.0,0.0,0.0,0.0,0.0,0.0,0.0,-3.9625,-4.2574,-4.2883,-4.2901,-4.2901,-4.2901,-4.2901,-4.0763,-3.5726,-3.5458,0.0,0.0,0.0,0.0,0.0,0.0,0.0,0.0,0.0,0.0,0.0,0.0,0.0,0.0,0.0,0.0,0.0,0.0,0.0,0.0,0.0,0.0,0.0,0.0,0.0,0.0,0.0,0.0,0.0,0.0,0.0,0.0,0.0,0.0,0.0,0.0,0.0,0.0,0.0,0.0,0.0,0.0,0.0,0.0,0.0,0.0,0.0,0.0,0.0,0.0,0.0,0.0,0.0,0.0,0.0,0.0,0.0,0.0,0.0,0.0,0.0,0.0,0.0,0.0,0.0,0.0,0.0,0.0,0.0,0.0,0.0,0.0,0.0,0.0,0.0,0.0,0.0,0.0,0.0,0.0,0.0,0.0,0.0,0.0,0.0,0.0,0.0,0.0,0.0,0.0,0.0,0.0,0.0,0.0,0.0,0.0,0.0,0.0,0.0,0.0,0.0,0.0,-4.0438,-4.3061,0.0,-4.3643,-4.3444,-4.2955,-4.2901,-4.0962,-3.6429,0.0,0.0,0.0,0.0,0.0,0.0,0.0,0.0,0.0,0.0,0.0,0.0,0.0,0.0,0.0,0.0,0.0,0.0,0.0,0.0,0.0,0.0,0.0,0.0,0.0,0.0,0.0,0.0,0.0,0.0,0.0,0.0,0.0,0.0,0.0,0.0,0.0,0.0,0.0,0.0,0.0,0.0,0.0,0.0,0.0,0.0,0.0,0.0,0.0,0.0,0.0,0.0,0.0,0.0,0.0,0.0,0.0,0.0,0.0,0.0,0.0,0.0,0.0,0.0,0.0,0.0,0.0,0.0,0.0,0.0,0.0,0.0,0.0,0.0,0.0,0.0,0.0,0.0,0.0,0.0,0.0,0.0,0.0,0.0,0.0,0.0,0.0,0.0,0.0,0.0,0.0,0.0,0.0,0.0,0.0,0.0,0.0,0.0,0.0,0.0,0.0,0.0,-3.7647,-4.1232,-4.382,0.0,-4.4476,-4.415,-4.3335,-4.3262,-4.1378,-3.6877,0.0,0.0,0.0,0.0,0.0,0.0,0.0,0.0,0.0,0.0,0.0,0.0,0.0,0.0,0.0,0.0,0.0,0.0,0.0,0.0,0.0,0.0,0.0,0.0,0.0,0.0,0.0,0.0,0.0,0.0,0.0,0.0,0.0,0.0,0.0,0.0,0.0,0.0,0.0,0.0,0.0,0.0,0.0,0.0,0.0,0.0,0.0,0.0,0.0,0.0,0.0,0.0,0.0,0.0,0.0,0.0,0.0,0.0,0.0,0.0,0.0,0.0,0.0,0.0,0.0,0.0,0.0,0.0,0.0,0.0,0.0,0.0,0.0,0.0,0.0,0.0,0.0,0.0,0.0,0.0,0.0,0.0,0.0,0.0,0.0,0.0,0.0,0.0,0.0,0.0,0.0,0.0,0.0,0.0,0.0,0.0,0.0,0.0,0.0,0.0,0.0,0.0,-3.7828,-4.2225,-4.5327,-4.5309,-4.5309,-4.4983,-4.4168,-4.4095,-4.1956,0.0,0.0,0.0,0.0,0.0,0.0,0.0,0.0,0.0,0.0,0.0,0.0,0.0,0.0,0.0,0.0,0.0,0.0,0.0,0.0,0.0,0.0,0.0,0.0,0.0,0.0,0.0,0.0,0.0,0.0,0.0,0.0,0.0,0.0,0.0,0.0,0.0,0.0,0.0,0.0,0.0,0.0,0.0,0.0,0.0,0.0,0.0,0.0,0.0,0.0,0.0,0.0,0.0,0.0,0.0,0.0,0.0,0.0,0.0,0.0,0.0,0.0,0.0,0.0,0.0,0.0,0.0,0.0,0.0,0.0,0.0,0.0,0.0,0.0,0.0,0.0,0.0,0.0,0.0,0.0,0.0,0.0,0.0,0.0,0.0,0.0,0.0,0.0,0.0,0.0,0.0,0.0,0.0,0.0,0.0,0.0,0.0,0.0,0.0,0.0,0.0,0.0,0.0,-3.9499,-4.3906,-4.6776,-4.6214,-4.616,-4.5599,-4.4222,-4.4095,-4.2209,-3.7721,0.0,0.0,0.0,0.0,0.0,0.0,0.0,0.0,0.0,0.0,0.0,0.0,0.0,0.0,0.0,0.0,0.0,0.0,0.0,0.0,0.0,0.0,0.0,0.0,0.0,0.0,0.0,0.0,0.0,0.0,0.0,0.0,0.0,0.0,0.0,0.0,0.0,0.0,0.0,0.0,0.0,0.0,0.0,0.0,0.0,0.0,0.0,0.0,0.0,0.0,0.0,0.0,0.0,0.0,0.0,0.0,0.0,0.0,0.0,0.0,0.0,0.0,0.0,0.0,0.0,0.0,0.0,0.0,0.0,0.0,0.0,0.0,0.0,0.0,0.0,0.0,0.0,0.0,0.0,0.0,0.0,0.0,0.0,0.0,0.0,0.0,0.0,0.0,0.0,0.0,0.0,0.0,0.0,0.0,0.0,0.0,0.0,0.0,0.0,0.0,0.0,0.0,-4.02,-4.461,-4.7518,-4.7029,-4.6993,-4.6468,-4.5164,-4.4765,-4.3077,-3.9535,0.0,0.0,0.0,0.0,0.0,0.0,0.0,0.0,0.0,0.0,0.0,0.0,0.0,0.0,0.0,0.0,0.0,0.0,0.0,0.0,0.0,0.0,0.0,0.0,0.0,0.0,0.0,0.0,0.0,0.0,0.0,0.0,0.0,0.0,0.0,0.0,0.0,0.0,0.0,0.0,0.0,0.0,0.0,0.0,0.0,0.0,0.0,0.0,0.0,0.0,0.0,0.0,0.0,0.0,0.0,0.0,0.0,0.0,0.0,0.0,0.0,0.0,0.0,0.0,0.0,0.0,0.0,0.0,0.0,0.0,0.0,0.0,0.0,0.0,0.0,0.0,0.0,0.0,0.0,0.0,0.0,0.0,0.0,0.0,0.0,0.0,0.0,0.0,0.0,0.0,0.0,0.0,0.0,0.0,0.0,0.0,0.0,0.0,0.0,0.0,0.0,0.0,-4.0324,-4.4644,-4.7717,-4.7717,-4.7717,-4.7373,-4.6576,-4.5834,-4.4328,-4.1756,0.0,0.0,0.0,0.0,0.0,0.0,0.0,0.0,0.0,0.0,0.0,0.0,0.0,0.0,0.0,0.0,0.0,0.0,0.0,0.0,0.0,0.0,0.0,0.0,0.0,0.0,0.0,0.0,0.0,0.0,0.0,0.0,0.0,0.0,0.0,0.0,0.0,0.0,0.0,0.0,0.0,0.0,0.0,0.0,0.0,0.0,0.0,0.0,0.0,0.0,0.0,0.0,0.0,0.0,0.0,0.0,0.0,0.0,0.0,0.0,-4.0277,0.0,0.0,0.0,0.0,0.0,0.0,0.0,0.0,0.0,0.0,0.0,0.0,0.0,0.0,0.0,0.0,0.0,0.0,0.0,0.0,0.0,0.0,0.0,0.0,0.0,0.0,0.0,0.0,0.0,0.0,0.0,0.0,0.0,0.0,0.0,0.0,0.0,0.0,0.0,0.0,0.0,-4.1136,-4.5007,-4.7717,-4.7717,-4.7717,-4.7373,-4.6576,-4.6341,-4.4925,-4.1792,0.0,0.0,0.0,0.0,0.0,0.0,0.0,0.0,0.0,0.0,0.0,0.0,0.0,0.0,0.0,0.0,0.0,0.0,0.0,0.0,0.0,0.0,0.0,0.0,0.0,0.0,0.0,0.0,0.0,0.0,0.0,0.0,0.0,0.0,0.0,0.0,0.0,0.0,0.0,0.0,0.0,0.0,0.0,0.0,0.0,0.0,0.0,0.0,0.0,0.0,0.0,0.0,0.0,0.0,0.0,0.0,0.0,0.0,0.0,0.0,0.0,-4.033,0.0,0.0,0.0,0.0,0.0,0.0,0.0,0.0,0.0,0.0,0.0,0.0,0.0,0.0,0.0,0.0,0.0,0.0,0.0,0.0,0.0,0.0,0.0,0.0,0.0,0.0,0.0,0.0,0.0,0.0,0.0,0.0,0.0,0.0,0.0,0.0,0.0,0.0,0.0,0.0,-4.1443,-4.5116,-4.7717,-4.7717,-4.7717,-4.7536,-4.712,-4.6721,-4.5777,-4.4053,-4.2479,0.0,0.0,0.0,0.0,0.0,0.0,0.0,0.0,0.0,0.0,0.0,0.0,0.0,0.0,0.0,0.0,0.0,0.0,0.0,0.0,0.0,0.0,0.0,0.0,0.0,0.0,0.0,0.0,0.0,0.0,0.0,0.0,0.0,0.0,0.0,0.0,0.0,0.0,0.0,0.0,0.0,0.0,0.0,0.0,0.0,0.0,0.0,0.0,0.0,0.0,0.0,0.0,0.0,0.0,-4.4667,-4.4727,-4.4563,-4.5165,-4.6193,-4.35,-4.2734,-4.3232,0.0,0.0,0.0,0.0,0.0,0.0,0.0,0.0,0.0,0.0,0.0,0.0,0.0,0.0,0.0,0.0,0.0,0.0,0.0,0.0,0.0,0.0,0.0,0.0,0.0,-4.3524,-4.407,0.0,0.0,0.0,0.0,0.0,0.0,0.0,0.0,0.0,0.0,0.0,0.0,-4.2074,-4.5407,-4.7717,-4.7717,-4.7717,-4.7717,-4.7717,-4.7102,-4.6649,-4.6504,-4.3945,-4.2189,0.0,0.0,0.0,0.0,0.0,0.0,0.0,0.0,0.0,0.0,0.0,0.0,0.0,0.0,0.0,0.0,0.0,0.0,0.0,0.0,0.0,0.0,0.0,0.0,0.0,0.0,0.0,0.0,0.0,0.0,0.0,0.0,-3.7749,-3.837,0.0,0.0,0.0,0.0,0.0,0.0,0.0,0.0,0.0,0.0,0.0,0.0,0.0,0.0,-4.3543,-4.4668,-4.5315,-4.5535,-4.6678,-4.7634,-4.837,-4.7559,-4.7658,-4.8433,-4.7329,0.0,-4.4218,-4.3834,0.0,0.0,0.0,0.0,0.0,0.0,0.0,0.0,0.0,0.0,0.0,0.0,0.0,0.0,0.0,0.0,0.0,0.0,0.0,0.0,0.0,0.0,-4.6799,-4.6778,-4.7032,-4.7122,0.0,-4.3338,-4.047,-4.027,0.0,0.0,0.0,0.0,0.0,0.0,0.0,0.0,-4.4446,-4.646,-4.7717,-4.7717,-4.7717,-4.7717,-4.7717,-4.7609,-4.7246,-4.654,-4.6085,-4.4561,-4.172,-4.1286,0.0,0.0,0.0,0.0,0.0,0.0,0.0,0.0,0.0,0.0,0.0,0.0,0.0,0.0,0.0,0.0,0.0,0.0,0.0,0.0,0.0,0.0,0.0,0.0,0.0,0.0,0.0,0.0,0.0,-3.6182,-3.7235,-3.8001,-3.7408,-3.7009,0.0,0.0,0.0,0.0,0.0,0.0,0.0,0.0,0.0,-4.4908,-4.5348,-4.6122,-4.7286,-4.7939,-4.8263,-4.822,-4.8826,-4.9288,-4.9651,-4.9224,-4.9238,-4.9546,-4.9202,-4.8505,-4.7466,-4.5804,-4.4234,-4.2765,0.0,0.0,0.0,0.0,0.0,-4.2062,-4.3457,0.0,0.0,0.0,0.0,0.0,0.0,0.0,0.0,0.0,0.0,0.0,0.0,0.0,0.0,-4.7482,-4.7717,-4.7717,-4.7717,-4.609,-4.437,0.0,-4.2502,-4.1343,-3.9767,0.0,0.0,0.0,0.0,0.0,-4.5062,-4.6659,-4.7717,-4.7717,-4.7717,-4.7717,-4.7717,-4.7717,-4.7554,-4.721,-4.6757,-4.585,-4.4417,-4.2569,-4.0851,0.0,0.0,0.0,0.0,0.0,0.0,0.0,0.0,0.0,0.0,0.0,0.0,0.0,0.0,0.0,0.0,0.0,0.0,0.0,0.0,0.0,0.0,0.0,0.0,0.0,0.0,0.0,0.0,-3.7589,-3.8392,-3.8631,-3.902,-3.8908,0.0,0.0,0.0,0.0,0.0,0.0,-4.4541,-4.4816,-4.5806,-4.767,-4.7924,-4.8787,-5.0401,-5.0667,-5.0758,-5.0728,-5.0758,-5.0867,-5.0995,-5.0818,-5.0836,-5.1017,-5.0601,-5.042,-5.022,-4.7818,-4.6517,-4.5918,-4.489,-4.418,-4.3749,-4.4107,-4.4323,-4.4631,-4.6066,-4.6617,-4.6487,-4.5422,0.0,-4.4174,-4.2708,0.0,0.0,0.0,0.0,-4.3324,-4.4739,0.0,-4.6275,-4.7428,-4.7717,-4.7717,-4.7717,-4.7391,-4.6866,0.0,-4.4947,-4.3607,-4.2013,0.0,0.0,0.0,0.0,-4.5332,-4.5768,-4.6933,-4.7717,-4.7717,-4.7717,-4.7717,-4.7717,-4.7717,-4.7717,-4.7717,-4.7156,-4.6721,-4.6504,-4.4164,-4.2513,-4.1805,0.0,0.0,0.0,0.0,0.0,0.0,0.0,0.0,0.0,0.0,0.0,0.0,0.0,0.0,0.0,0.0,0.0,0.0,0.0,0.0,0.0,0.0,0.0,0.0,0.0,0.0,0.0,0.0,0.0,-4.2779,-4.4295,0.0,0.0,0.0,0.0,-4.3648,-4.4588,-4.5632,-4.669,-4.7591,-4.8646,-4.9902,-5.0695,-5.1126,-5.123,-5.1991,-5.2371,-5.2371,-5.2371,-5.277,-5.3494,-5.2733,-5.2788,-5.344,-5.19,-5.123,-5.118,-5.0238,-4.8691,-4.6854,-4.6911,-4.5709,-4.4138,-4.5483,-4.6021,-4.6277,-4.7626,-4.8119,-4.7921,-4.636,-4.4783,-4.3721,-4.5059,-4.4437,0.0,0.0,-4.5402,-4.5745,-4.7143,-4.7554,-4.7609,-4.7681,-4.7717,-4.7717,-4.7717,-4.6504,-4.5852,0.0,-4.7518,-4.6957,-4.5345,0.0,-4.5064,-4.5053,-4.5138,-4.5768,-4.737,-4.7642,-4.7717,-4.7717,-4.7717,-4.7717,-4.7717,-4.7717,-4.7717,-4.7717,-4.7663,-4.7301,-4.654,-4.6341,-4.5082,-4.2595,-4.1732,0.0,0.0,0.0,0.0,0.0,0.0,0.0,0.0,0.0,0.0,0.0,0.0,0.0,0.0,0.0,0.0,0.0,0.0,0.0,0.0,0.0,0.0,0.0,0.0,0.0,0.0,0.0,0.0,-4.3144,-4.4788,0.0,0.0,-4.5428,-4.6277,-4.667,-4.7868,-4.8924,-4.9689,-5.0056,-5.09,-5.2353,-5.2679,-5.3096,-5.3603,-5.3892,-5.4037,-5.4037,-5.4037,-5.42,-5.4472,-5.4182,-5.42,-5.4454,-5.3874,-5.3621,-5.3585,-5.3313,-5.152,-4.8961,-4.9,-4.8575,-4.7982,-4.8504,-4.8725,-4.8841,-4.932,-4.9562,-4.948,-4.8384,-4.7594,-4.7079,-4.7112,-4.6671,-4.6375,-4.7422,-4.771,-4.7964,-4.8988,-4.9238,-4.9238,-4.9238,-4.9238,-4.9238,-4.9238,-4.8786,-4.855,-4.913,-4.7572,-4.5979,-4.5399,-4.614,-4.6463,-4.5454,-4.6176,-4.7024,-4.7606,-4.7717,-4.7717,-4.7717,-4.7717,-4.7717,-4.7717,-4.7717,-4.7717,-4.7717,-4.7717,-4.7551,-4.7283,-4.6776,-4.6047,-4.5136,-4.3837,-4.2237,0.0,0.0,0.0,0.0,0.0,0.0,0.0,0.0,0.0,0.0,0.0,0.0,0.0,0.0,0.0,0.0,0.0,0.0,0.0,0.0,0.0,0.0,0.0,0.0,0.0,0.0,-4.4962,-4.3539,-4.5645,-4.6984,-4.6428,-4.7867,-4.9079,-4.9728,-5.096,-5.181,-5.2086,-5.2399,-5.3034,-5.4074,-5.4345,-5.4725,-5.5269,-5.554,-5.5685,-5.5685,-5.5685,-5.5685,-5.5685,-5.5685,-5.5685,-5.5667,-5.5395,-5.5269,-5.5251,-5.5015,-5.3639,-5.1688,-5.1149,-5.079,-5.0518,-5.0333,-5.0311,-5.0356,-5.0378,-5.0396,-5.0305,-4.9776,-4.9528,-4.9349,-4.8802,-4.8578,-4.8623,-4.9148,-4.9311,-4.9438,-4.9967,-5.0112,-5.0112,-5.0112,-5.0112,-5.0112,-5.0112,-5.0112,-5.0112,-5.0112,-4.8369,-4.692,-4.692,-4.7808,-4.795,-4.63,-4.7226,-4.7895,-4.7292,-4.7494,-4.7717,-4.7717,-4.7717,-4.7717,-4.7717,-4.7404,-4.7368,-4.7678,-4.7404,-4.7386,-4.7678,-4.6879,-4.6277,-4.6003,-4.4684,-4.323,-4.168,0.0,0.0,0.0,0.0,0.0,0.0,0.0,0.0,0.0,0.0,0.0,0.0,0.0,0.0,0.0,0.0,0.0,0.0,0.0,0.0,0.0,0.0,0.0,-4.3334,-4.4944,-4.5823,-4.4492,-4.7371,-4.9273,-4.8752,-5.0617,-5.2108,-5.2744,-5.3689,-5.4082,-5.3789,-5.4591,-5.5009,-5.4979,-5.5667,-5.6029,-5.6029,-5.6808,-5.7188,-5.7188,-5.7188,-5.7188,-5.7188,-5.7188,-5.7188,-5.7152,-5.6373,-5.6054,-5.6,-5.5269,-5.4979,-5.484,-5.3284,-5.2204,-5.1468,-5.0939,-5.073,-5.0733,-5.0815,-5.0694,-5.0469,-5.045,-5.0301,-5.013,-5.0112,-5.0112,-5.0112,-5.013,-5.0148,-5.0148,-5.0184,-5.0184,-5.0184,-5.0184,-5.0184,-5.0184,-5.0184,-5.0184,-5.0184,-5.0184,-5.0184,-5.0166,-5.0112,-5.0112,-4.9524,-4.7843,-4.8359,0.0,-4.6648,-4.7181,-4.7732,-4.7732,-4.7696,-4.7678,-4.7678,-4.6871,-4.6723,-4.7642,-4.6853,-4.6741,-4.766,-4.6834,-4.5936,-4.506,-4.4248,-4.3436,-4.2629,0.0,0.0,0.0,0.0,0.0,0.0,0.0,0.0,0.0,0.0,0.0,0.0,0.0,0.0,0.0,0.0,0.0,0.0,0.0,0.0,0.0,0.0,-4.6217,-4.6224,-4.7627,-4.8954,-4.9748,-5.0598,-5.1561,-5.2679,-5.3148,-5.3748,-5.4592,-5.4734,-5.5047,-5.5629,-5.5704,-5.6012,-5.6703,-5.6903,-5.6962,-5.6862,-5.718,-5.7307,-5.7188,-5.7188,-5.7188,-5.7188,-5.7188,-5.7188,-5.7188,-5.7071,-5.7011,-5.7011,-5.6891,-5.6867,-5.6703,-5.5013,-5.4202,-5.399,-5.395,-5.3553,-5.2899,-5.2272,-5.1986,-5.1828,-5.123,-5.1026,-5.085,-5.0293,-5.0112,-5.022,-5.0818,-5.0981,-5.1086,-5.1683,-5.1828,-5.1828,-5.1828,-5.1828,-5.1828,-5.1828,-5.1828,-5.1828,-5.1828,-5.1828,-5.1466,-5.0311,-5.0112,-4.9927,-4.947,0.0,0.0,-4.9104,-4.8764,-4.8525,-4.8439,-4.7915,-4.7554,-4.7554,-4.7334,-4.7319,0.0,-4.7458,-4.7422,-4.7678,-4.744,-4.6931,-4.6096,-4.5158,-4.4266,0.0,0.0,0.0,0.0,0.0,0.0,0.0,0.0,0.0,0.0,0.0,0.0,0.0,0.0,0.0,0.0,0.0,0.0,0.0,0.0,0.0,0.0,-4.7011,-4.855,-4.9731,-5.0296,-5.1098,-5.2344,-5.2742,-5.3546,-5.5244,-5.5257,-5.5519,-5.6347,-5.6262,-5.652,-5.7364,-5.7188,-5.752,-5.8469,-5.8437,-5.8242,-5.7872,-5.7872,-5.7733,-5.7381,-5.7239,-5.7264,-5.7381,-5.7307,-5.7313,0.0,-5.7388,-5.7388,-5.7388,-5.7412,-5.7412,0.0,0.0,0.0,0.0,0.0,-5.4875,-5.4406,-5.3513,-5.3199,-5.3072,-5.2204,-5.1887,-5.1751,-5.1253,-5.1104,-5.1194,-5.1665,-5.1792,-5.19,-5.2371,-5.2498,-5.2498,-5.2498,-5.2498,-5.2498,-5.2498,-5.2498,-5.2498,-5.2498,0.0,0.0,-5.1267,-5.1104,-5.0868,-5.0136,-5.0339,-5.0343,0.0,-4.9452,-4.9253,-4.8822,-4.837,-4.7955,-4.7611,-4.7226,0.0,0.0,0.0,-4.7108,-4.7108,-4.7087,0.0,0.0,0.0,-4.5317,0.0,0.0,0.0,0.0,-4.192,-4.1681,0.0,0.0,0.0,0.0,0.0,0.0,0.0,0.0,0.0,0.0,0.0,0.0,0.0,0.0,0.0,0.0,-4.9638,-5.161,-5.3112,-5.2876,-5.2803,-5.3537,-5.4252,-5.5262,-5.6804,-5.6909,-5.7194,-5.7907,-5.7938,-5.8238,-5.8945,0.0,0.0,0.0,0.0,-5.9543,-5.895,-5.8833,-5.8432,-5.7729,-5.7484,-5.7454,-5.7601,-5.748,-5.7504,-5.7583,-5.7486,-5.7455,-5.7455,-5.7313,-5.7264,-5.7209,-5.6606,-5.6382,-5.6297,-5.5491,-5.534,0.0,0.0,0.0,0.0,-5.3184,-5.2822,-5.269,-5.2562,-5.2498,-5.2498,-5.2498,-5.2498,-5.2498,-5.2498,-5.2498,-5.2498,-5.2498,-5.2498,-5.2498,-5.2498,-5.2498,-5.2498,-5.2498,-5.2498,-5.2498,-5.2498,-5.2498,-5.1986,-5.043,-5.0914,0.0,-4.9346,-4.9774,-4.9963,-4.9235,0.0,0.0,-4.7877,-4.6958,-4.6795,-4.7642,-4.6907,-4.6467,-4.6467,-4.6401,-4.6401,-4.6467,-4.6401,-4.6465,-4.6649,-4.6649,-4.6269,-4.5526,-4.354,-4.312,0.0,0.0,0.0,0.0,0.0,0.0,0.0,0.0,0.0,0.0,0.0,0.0,0.0,0.0,0.0,-4.9248,-5.1295,-5.3078,-5.4032,-5.5152,-5.5941,-5.6106,-5.6253,-5.6712,-5.7666,-5.7666,-5.7972,-5.8867,-5.8732,-5.9055,-6.0029,-5.987,0.0,-6.0139,-6.0139,-6.0017,-5.9771,-5.9846,-5.9444,-5.8567,0.0,0.0,-5.7601,-5.7577,-5.7577,-5.7601,-5.7697,-5.7721,-5.7721,-5.7815,-5.7768,-5.7655,-5.7419,-5.746,-5.7533,-5.6634,-5.6324,-5.6214,-5.5202,-5.4859,-5.4709,-5.3829,-5.3505,-5.3355,-5.2697,-5.2498,0.0,-5.2498,-5.2498,-5.2498,-5.2498,-5.2498,-5.2498,-5.2498,-5.2498,-5.2498,-5.2498,-5.2498,-5.2498,-5.2498,-5.2498,-5.2498,-5.2498,-5.2498,-5.2389,-5.2059,-5.2154,-5.2154,-5.1805,-5.1357,-5.0972,-5.0701,-4.9523,-4.8688,-4.8525,-4.7746,-4.7391,-4.7678,-4.7533,-4.7422,-4.7422,-4.7419,-4.7419,-4.7422,-4.7419,-4.744,-4.7482,-4.7482,-4.7391,-4.721,-4.55,-4.4831,0.0,0.0,0.0,0.0,0.0,0.0,0.0,0.0,0.0,0.0,0.0,-4.5588,0.0,0.0,-4.9951,-5.1337,-5.3164,-5.4675,-5.55,-5.629,-5.6804,-5.6804,-5.7171,-5.7556,-5.796,-5.795,-5.8257,-5.9129,-5.9066,-5.9596,-6.0933,-6.081,-6.0943,-6.1495,-6.1421,-6.1213,-6.0792,-6.0792,-6.0188,-5.8993,-5.8854,-5.8458,-5.7792,-5.7721,-5.7745,-5.7792,-5.7792,-5.7792,-5.7792,-5.7792,-5.7792,-5.7792,-5.7721,-5.7745,-5.7737,-5.7264,-5.7141,-5.7078,-5.6134,-5.5837,-5.5756,-5.4838,-5.4282,-5.3859,-5.3395,-5.2972,-5.2645,-5.2645,-5.2599,-5.2536,-5.2536,-5.2526,-5.2498,-5.2498,-5.2498,-5.2498,-5.2498,-5.2498,-5.2498,-5.2498,-5.2498,-5.2498,-5.2498,-5.2498,-5.2498,-5.2498,-5.2498,-5.2498,-5.2498,-5.2136,-5.1715,-5.1253,-5.0109,-4.9242,-4.8822,-4.8067,-4.7636,-4.7696,-4.7717,-4.7717,-4.7717,-4.7717,-4.7717,-4.7717,-4.7717,-4.7717,-4.7717,-4.7717,-4.7717,-4.7681,-4.6884,-4.6504,0.0,0.0,0.0,0.0,0.0,0.0,0.0,0.0,-4.3837,-4.4812,-4.6299,-4.7657,-4.8471,-4.9954,-5.1652,-5.3597,-5.4987,-5.6106,-5.6932,-5.7042,-5.7042,-5.7042,-5.7611,-5.7997,-5.7997,-5.7997,-5.84,-5.9349,-5.9423,-6.0144,-6.1741,-6.1734,-6.202,-6.278,-6.2705,-6.2393,-6.1832,-6.1734,-6.1001,-5.9643,-5.9451,-5.8939,-5.8235,-5.81,-5.805,-5.7997,-5.7904,-5.7839,-5.7815,-5.7721,-5.7745,-5.7839,-5.7839,-5.7768,-5.7673,-5.7673,-5.7745,-5.7747,-5.706,-5.6887,-5.6827,-5.5889,-5.5149,-5.4541,-5.4145,-5.3553,-5.2984,-5.2798,-5.2698,-5.2631,-5.2586,-5.2536,-5.2503,-5.2498,-5.2498,-5.2498,-5.2498,-5.2498,-5.2498,-5.2498,-5.2498,-5.2498,-5.2498,-5.2498,-5.2498,-5.2498,-5.2498,-5.2498,-5.2498,-5.2498,-5.2245,-5.1593,-5.0796,-4.9927,-4.8981,-4.8149,-4.7717,-4.7717,-4.7717,-4.7717,-4.7717,-4.7717,-4.7717,-4.7717,-4.7717,-4.7717,-4.7717,-4.7717,-4.7717,-4.7717,-4.7717,-4.7717,-3.8829,-3.8859,-4.0628,-4.2948,-4.3075,-4.3886,0.0,0.0,-4.7688,-5.0236,-5.1868,-5.2865,-5.2957,-5.4312,-5.5619,-5.6301,-5.6547,-5.695,-5.7758,-5.7868,-5.7868,-5.7868,-5.7941,-5.7997,-5.7997,-5.7997,-5.8639,-6.0162,-6.0272,-6.0988,-6.2585,-6.2652,-6.2688,-6.278,-6.2798,-6.2743,-6.2677,-6.2652,-6.2193,-6.1318,-6.1294,-6.0505,-5.9056,-5.9056,-5.8652,-5.7997,-5.7973,-5.7973,-5.7973,-5.7973,-5.7973,-5.7973,-5.7973,-5.7973,-5.795,-5.795,-5.7973,-5.7955,-5.7747,-5.7664,-5.7536,-5.6578,-5.6221,-5.5874,-5.4451,-5.3936,-5.3676,-5.2854,-5.2698,-5.2757,-5.2572,-5.2536,-5.2563,-5.2503,-5.2498,-5.2498,-5.2498,-5.2498,-5.2498,-5.2498,-5.2498,-5.2498,-5.2498,-5.2498,-5.2498,-5.2498,-5.2498,-5.2498,-5.2498,-5.2498,-5.2462,-5.2371,-5.1647,-5.0542,-4.9018,-4.8149,-4.7717,-4.7717,-4.7717,-4.7717,-4.7717,-4.7717,-4.7717,-4.7717,-4.7717,-4.7717,-4.7717,-4.7717,-4.7717,-4.7717,-4.7717,-4.7717,-4.3324,-4.307,0.0,0.0,-4.6495,-4.7653,-5.0112,-5.0607,-5.115,-5.3143,-5.4391,-5.5033,-5.4845,-5.5744,-5.6583,0.0,-5.7189,-5.7611,-5.7941,-5.7997,-5.7997,-5.7997,-5.7997,-5.7997,-5.7997,-5.7997,-5.8676,-6.0291,-6.0401,-6.1098,-6.2707,-6.278,-6.278,-6.278,-6.278,-6.278,-6.278,-6.278,-6.2401,-6.1594,-6.1594,-6.1006,-5.9887,-5.9404,-5.8767,-5.7997,-5.7997,-5.7997,-5.7997,-5.7997,-5.7997,-5.7997,-5.7997,-5.7997,-5.7997,-5.7997,-5.7997,-5.7997,-5.795,-5.7927,-5.7831,-5.7454,-5.7015,-5.6498,-5.582,-5.4983,-5.4155,-5.3763,-5.3237,-5.2761,-5.269,-5.2599,-5.2531,-5.2521,-5.2498,-5.2498,-5.2498,-5.2498,-5.2498,-5.2498,-5.2498,-5.2498,-5.2498,-5.2498,-5.2498,-5.2498,-5.2498,-5.2498,-5.2498,-5.2498,-5.2317,-5.1846,-5.1484,-5.0651,-4.9036,-4.8583,-4.8185,-4.7735,-4.7717,-4.7717,-4.7717,-4.7717,-4.7717,-4.7717,-4.7717,-4.7717,-4.7717,-4.7717,-4.7717,-4.7717,-4.7717,-4.7717,-4.5534,0.0,0.0,-4.7828,-4.9713,-5.123,-5.1561,-5.2731,-5.4,-5.4917,-5.581,-5.6346,-5.5992,-5.6583,-5.7134,-5.7134,-5.7611,-5.7997,-5.7997,-5.7997,-5.7997,-5.7997,-5.7997,-5.7997,-5.7997,-5.7997,-5.8676,-6.0291,-6.0401,-6.1098,-6.2707,-6.278,-6.278,-6.278,-6.278,-6.278,-6.278,-6.278,-6.2511,-6.1924,-6.1924,-6.1502,-6.0694,-5.9661,-5.8872,-5.8327,-5.8107,-5.7997,-5.7997,-5.7997,-5.7997,-5.7997,-5.7997,-5.7997,-5.7997,-5.7997,-5.7997,-5.7997,-5.7997,-5.7997,-5.7997,-5.7997,-5.7611,-5.7097,-5.6877,-5.5831,-5.4675,-5.4411,-5.3643,-5.289,-5.2806,-5.2712,-5.2618,-5.2595,-5.2549,-5.2526,-5.2526,-5.2503,-5.2498,-5.2498,-5.2498,-5.2498,-5.2498,-5.2498,-5.2498,-5.2498,-5.2498,-5.2498,-5.2498,-5.2498,-5.2281,-5.1683,-5.143,-5.0741,-4.9365,-4.9039,-4.8547,-4.7753,-4.7717,-4.7717,-4.7717,-4.7717,-4.7717,-4.7717,-4.7717,-4.7717,-4.7717,-4.7717,-4.7717,-4.7717,-4.7717,-4.7717,-4.3021,0.0,-4.7239,-4.9704,-5.2288,-5.4341,-5.4677,-5.5465,-5.5997,-5.565,-5.6533,-5.7237,-5.6838,-5.7428,-5.796,-5.796,-5.7978,-5.7997,-5.7997,-5.7997,-5.7997,-5.7997,-5.7997,-5.7997,0.0,-5.7997,-5.8676,-6.0291,-6.0401,-6.1098,-6.2707,-6.278,-6.278,-6.278,-6.278,-6.278,-6.278,-6.278,-6.2805,-6.2768,-6.2768,-6.2346,-6.1502,-5.9924,-5.9184,-5.9111,-5.8345,-5.7997,-5.7997,-5.7997,-5.7997,-5.7997,-5.7997,-5.7997,-5.7997,-5.7997,-5.7997,-5.7997,-5.7997,-5.7997,-5.7997,-5.7997,-5.7978,-5.7813,-5.7042,-5.6216,-5.5368,-5.4448,-5.3704,-5.3143,-5.2868,-5.2893,-5.2955,-5.2806,-5.2676,-5.2608,-5.2608,-5.2554,-5.2498,-5.2498,-5.2498,-5.2498,-5.2498,-5.2498,-5.2498,-5.2498,-5.2498,-5.2498,-5.2498,-5.2498,-5.248,-5.2462,-5.1756,-5.0959,-5.0148,-4.9347,-4.8547,-4.7753,-4.7717,-4.7717,-4.7717,-4.7717,-4.7717,-4.7717,-4.7717,-4.7717,-4.7717,-4.7717,-4.7717,-4.7717,-4.7717,-4.7717,-4.5049,0.0,-5.0228,-5.2488,-5.4744,-5.6353,-5.62,-5.7003,-5.7684,-5.7283,-5.6353,-5.5582,-5.5498,-5.5676,-5.5839,-5.5884,-5.707,-5.7997,-5.7997,-5.7997,-5.7997,-5.7997,-5.7997,0.0,0.0,0.0,0.0,-6.0291,-6.0401,-6.1098,-6.2707,-6.278,-6.278,-6.278,-6.278,-6.278,-6.278,-6.278,-6.278,-6.278,-6.278,-6.2383,-6.1557,-6.0493,-5.9698,-5.9148,-5.8345,-5.7997,-5.7997,-5.7997,-5.7997,-5.7997,-5.7997,-5.7997,-5.7997,-5.7997,-5.7997,-5.7997,-5.7997,-5.7997,-5.7997,-5.7997,-5.7997,-5.7941,-5.7685,-5.7024,-5.6235,-5.5365,-5.4514,-5.3716,-5.3083,-5.2893,-5.2868,-5.2806,-5.2761,-5.2698,-5.2613,-5.2586,-5.2559,-5.2521,-5.2531,-5.2536,-5.2521,-5.2531,-5.2536,-5.2521,-5.2498,-5.2498,-5.2498,-5.2498,-5.2498,-5.2498,-5.2263,-5.1756,-5.0959,-5.0192,-4.9437,-4.8696,-4.8177,-4.7909,-4.7909,-4.7863,-4.784,-4.784,-4.7738,-4.7717,-4.7717,-4.7717,-4.7717,-4.7717,-4.7717,-4.7717,-4.751,-5.0134,-5.258,-5.4724,-5.6458,-5.7547,-5.7294,-5.7935,-5.8386,-5.7702,-5.614,-5.4888,-5.4808,-5.4748,-5.4675,-5.4556,-5.6092,-5.7295,-5.732,-5.7317,-5.7471,-5.7946,-5.8253,0.0,0.0,0.0,0.0,-6.0327,-6.0676,-6.141,-6.275,-6.278,-6.278,-6.278,-6.278,-6.278,-6.278,-6.278,-6.278,-6.278,-6.278,-6.2548,-6.1998,-6.1208,-6.0401,-5.957,-5.8786,-5.8272,-5.7997,-5.7997,-5.7997,-5.7997,-5.7997,-5.7997,-5.7997,-5.7997,-5.7997,-5.7997,-5.7997,-5.7997,-5.7997,-5.7997,-5.7997,-5.7997,-5.7997,-5.7446,-5.6638,-5.5812,-5.4961,-5.4107,-5.3283,-5.3017,-5.2934,-5.2934,-5.2912,-5.285,-5.2765,-5.2698,-5.2672,-5.2618,-5.2604,-5.2586,-5.2554,-5.2563,-5.2608,-5.2618,-5.2618,-5.2572,-5.2521,-5.2498,-5.2503,-5.2531,-5.2531,-5.2227,-5.1474,-5.0977,-5.0256,-4.9201,-4.868,-4.8302,-4.7992,-4.7968,-4.7925,-4.7881,-4.7819,-4.7759,-4.7717,-4.7717,-4.7717,-4.7717,-4.7717,-4.7717,-5.0133,-5.249,-5.426,-5.6338,-5.745,-5.8042,-5.7997,-5.8286,-5.8204,-5.6952,-5.5832,-5.495,0.0,0.0,-5.4385,-5.409,-5.517,-5.608,-5.6181,-5.6138,-5.658,0.0,0.0,0.0,0.0,0.0,0.0,-6.0456,0.0,-6.1942,-6.2768,-6.278,-6.278,-6.278,-6.278,-6.278,-6.278,-6.278,-6.278,-6.278,-6.278,-6.278,-6.2762,-6.1961,-6.1153,-6.0364,-5.9533,-5.8749,-5.7997,-5.7997,-5.7997,-5.7997,-5.7997,-5.7997,-5.7997,-5.7997,-5.7997,-5.7997,-5.7997,-5.7997,-5.7997,-5.7997,-5.7997,-5.7997,-5.7997,-5.7464,-5.6693,-5.5831,-5.5042,-5.4271,-5.3427,-5.3185,-5.3185,-5.3185,-5.3103,-5.302,-5.2999,-5.2893,-5.2806,-5.2806,-5.2698,-5.2613,-5.2613,-5.2613,-5.2635,-5.2783,-5.2806,-5.2735,-5.2526,-5.2521,-5.2549,-5.259,-5.2613,-5.2367,-5.173,-5.162,-5.0946,-4.9432,-4.925,-4.8887,-4.8103,-4.8048,-4.797,-4.792,-4.7902,-4.784,-4.7717,-4.7717,-4.7717,-4.7717,-4.7717,-4.7717,-5.164,-5.4014,-5.625,-5.7414,-5.8065,-5.8369,-5.807,-5.7861,-5.7225,-5.5588,-5.333,-5.1486,0.0,0.0,0.0,-5.3,-5.5106,0.0,-5.7438,-5.7508,0.0,-5.8786,0.0,-5.9423,-6.0052,-6.0823,0.0,0.0,-6.1465,-6.1942,-6.2768,-6.278,-6.278,-6.278,-6.278,-6.278,-6.278,-6.278,-6.278,-6.278,-6.278,-6.278,-6.2762,-6.1961,-6.1153,-6.0364,-5.9533,-5.8749,-5.7997,-5.7997,-5.7997,-5.7997,-5.7997,-5.7997,-5.7997,-5.7997,-5.7997,-5.7997,-5.7997,-5.7997,-5.7997,-5.7997,-5.7997,-5.7997,-5.7997,-5.785,-5.7391,-5.5996,-5.5445,-5.4968,-5.3573,-5.3185,-5.3185,-5.3185,-5.3185,-5.3124,-5.302,-5.2977,-5.2934,-5.2806,-5.2761,-5.2783,-5.2872,-5.2828,-5.2761,-5.2783,-5.2806,-5.2761,-5.2735,-5.2735,-5.2735,-5.2761,-5.2761,-5.267,-5.2492,-5.2032,-5.1584,-5.1164,-5.0112,-4.9421,-4.9201,-4.8518,-4.8148,-4.8126,-4.8028,-4.7927,-4.784,-4.784,-4.7819,-4.7717,-4.7717,-4.7717,-5.3867,-5.5797,-5.7446,-5.7886,-5.8164,-5.8027,-5.6823,-5.6388,-5.5593,-5.3292,-5.1328,0.0,-4.9692,0.0,0.0,0.0,0.0,0.0,-5.7051,-5.7136,-5.7641,0.0,-5.9496,0.0,-6.086,-6.1649,-6.2126,0.0,-6.2126,-6.2328,-6.2762,-6.278,-6.278,-6.278,-6.278,-6.278,-6.278,-6.278,-6.278,-6.278,-6.278,-6.278,-6.2762,-6.2346,-6.1686,-6.0878,0.0,-5.9281,-5.851,-5.8143,-5.7997,-5.7997,-5.7997,-5.7997,-5.7997,-5.7997,-5.7997,-5.7997,-5.7997,-5.7997,-5.7997,-5.7997,-5.7997,-5.7997,-5.7997,-5.7997,-5.7648,-5.6033,-5.5614,-5.5225,-5.3628,-5.3185,-5.3185,-5.3185,-5.3185,-5.3185,-5.3103,-5.3082,-5.306,-5.2893,-5.289,-5.2893,-5.2999,-5.2934,-5.2912,-5.2955,-5.2974,-5.2974,-5.2974,-5.2868,-5.2828,-5.2872,-5.289,-5.2912,-5.2955,-5.2618,-5.2257,-5.1909,-5.1112,-5.0345,-4.9629,-4.9093,-4.8612,-4.8206,-4.8128,-4.8028,-4.7881,-4.7925,-4.7845,-4.7717,-4.7759,-4.7759,-5.6153,-5.7463,-5.8092,-5.816,-5.8068,-5.7435,-5.5284,-5.4682,-5.372,-5.0744,0.0,-4.939,-4.9428,-5.0454,-5.1495,-5.2133,0.0,-5.5138,-5.6066,-5.6226,-5.7039,-5.9121,-5.9997,-6.0768,-6.1667,-6.2401,-6.278,-6.278,-6.278,-6.278,-6.278,-6.278,-6.278,-6.278,-6.278,-6.278,-6.278,-6.278,-6.278,-6.278,-6.278,-6.278,-6.278,-6.278,-6.2365,-6.1557,0.0,0.0,-5.9129,-5.8327,-5.7997,-5.7997,-5.7997,-5.7997,-5.7997,-5.7997,-5.7997,-5.7997,-5.7997,-5.7997,-5.7997,-5.7997,-5.7997,-5.7997,-5.7997,-5.7997,-5.7648,-5.6033,-5.5614,-5.5225,-5.3628,-5.3185,-5.3185,-5.3185,-5.3185,-5.3185,-5.3185,-5.3185,-5.3164,-5.3042,-5.302,-5.302,-5.302,-5.302,-5.3082,-5.3185,-5.3185,-5.3185,-5.3185,-5.2995,-5.2912,-5.302,-5.302,-5.3063,-5.3185,-5.3185,-5.2913,-5.2197,-5.205,-5.1336,-4.9831,-4.9665,-4.9167,-4.8225,-4.8207,-4.8108,-4.7943,-4.8008,-4.7929,-4.7738,-4.7842,-4.784,-5.6943,-5.7888,-5.8584,-5.891,-5.8445,-5.7454,-5.5677,-5.4255,0.0,0.0,-4.8758,-4.8611,-4.8135,-4.9212,-5.077,-5.2545,0.0,0.0,0.0,0.0,-5.8286,0.0,0.0,0.0,0.0,0.0,0.0,0.0,0.0,0.0,-6.278,-6.278,-6.278,-6.278,-6.278,-6.278,-6.278,-6.278,-6.278,-6.278,-6.278,-6.278,-6.278,-6.278,-6.2365,-6.1557,0.0,0.0,-5.9129,-5.8327,-5.7997,-5.7997,-5.7997,-5.7997,-5.7997,-5.7997,-5.7997,-5.7997,-5.7997,-5.7997,-5.7997,-5.7997,-5.7997,-5.7997,-5.7997,-5.7997,-5.7648,-5.6033,-5.5614,-5.5225,-5.3628,-5.3185,-5.3185,-5.3185,-5.3185,-5.3185,-5.3185,-5.3185,-5.3185,-5.3164,-5.3164,-5.3164,-5.3164,-5.3164,-5.3185,-5.3185,-5.3185,-5.3185,-5.3185,-5.3164,-5.3143,-5.3164,-5.3164,-5.3185,-5.3185,-5.3185,-5.313,-5.3004,-5.2362,-5.1573,-5.0637,-4.9939,-4.9187,-4.8286,-4.8267,-4.8228,-4.8146,-4.8148,-4.8048,-4.7861,-4.7947,-4.7868,-5.6903,-5.7691,-5.8233,-5.8002,-5.7635,-5.6527,-5.3454,0.0,0.0,0.0,-4.7509,-4.8112,-4.7845,0.0,0.0,0.0,0.0,0.0,0.0,0.0,0.0,0.0,0.0,0.0,0.0,0.0,0.0,0.0,0.0,0.0,-6.278,-6.278,-6.278,-6.278,-6.278,-6.278,-6.278,-6.278,-6.278,-6.278,-6.278,-6.278,-6.278,-6.278,-6.2603,-6.2163,0.0,0.0,-5.974,-5.851,-5.7997,-5.7997,-5.7997,-5.7997,-5.7997,-5.7997,-5.7997,-5.7997,-5.7997,-5.7997,-5.7997,-5.7997,-5.7997,-5.7997,-5.7997,-5.7997,-5.7648,-5.6033,-5.5614,-5.5225,-5.3628,-5.3185,-5.3185,-5.3185,-5.3185,-5.3185,-5.3185,-5.3185,-5.3185,-5.3185,-5.3185,-5.3185,-5.3185,-5.3185,-5.3185,-5.3185,-5.3185,-5.3185,-5.3185,-5.3185,-5.3185,-5.3185,-5.3185,-5.3185,-5.3185,-5.3185,-5.3185,-5.3185,-5.2839,-5.2252,-5.1463,-5.0637,-4.9829,-4.8985,-4.8526,-4.8267,-4.8187,-4.8246,-4.8149,-4.7947,-4.8068,-4.801,-5.6438,-5.7192,-5.7479,-5.6943,-5.667,-5.5447,-5.1378,-5.0359,0.0,0.0,-4.6492,-4.7654,-4.7888,0.0,-5.1001,0.0,0.0,0.0,0.0,0.0,0.0,0.0,0.0,0.0,0.0,0.0,0.0,0.0,0.0,0.0,0.0,-6.278,-6.278,-6.278,-6.278,-6.278,-6.278,-6.278,-6.278,-6.278,-6.278,-6.278,-6.278,-6.278,-6.2713,-6.2475,0.0,0.0,0.0,-5.8584,-5.7997,-5.7997,-5.7997,-5.7997,-5.7997,-5.7997,-5.7997,-5.7997,-5.7997,-5.7997,-5.7997,-5.7997,-5.7997,-5.7997,-5.7997,-5.7997,-5.7648,-5.6033,-5.5614,-5.5225,-5.3628,-5.3185,-5.3185,-5.3185,-5.3185,-5.3185,-5.3185,-5.3185,-5.3185,-5.3185,-5.3185,-5.3185,-5.3185,-5.3185,-5.3185,-5.3185,-5.3185,-5.3185,-5.3185,-5.3185,-5.3185,-5.3185,-5.3185,-5.3185,-5.3185,-5.3185,-5.3185,-5.3185,-5.3185,-5.2839,-5.2013,-5.1224,-5.0417,-4.9629,-4.8746,-4.8267,-4.8226,-4.8267,-4.8209,-4.805,-4.8168,-4.813,-5.5656,-5.6536,-5.6436,-5.6724,-5.6197,-5.4803,-5.1658,0.0,0.0,-4.6014,-4.6196,-4.7127,-4.7854,-4.8804,-4.9879,-5.1097,-5.2721,-5.4125,0.0,0.0,0.0,0.0,0.0,0.0,0.0,0.0,0.0,0.0,0.0,0.0,0.0,-6.278,-6.278,-6.278,-6.278,-6.278,-6.278,-6.278,-6.278,-6.278,-6.278,-6.278,-6.278,-6.278,-6.2401,-6.1649,0.0,0.0,0.0,-5.8364,-5.7997,-5.7997,-5.7997,-5.7997,-5.7997,-5.7997,-5.7997,-5.7997,-5.7997,-5.7997,-5.7997,-5.7997,-5.7997,-5.7997,-5.7997,-5.7997,-5.7648,-5.6033,-5.5614,-5.5225,-5.3628,-5.3185,-5.3185,-5.3185,-5.3185,-5.3185,-5.3185,-5.3185,-5.3185,-5.3185,-5.3185,-5.3185,-5.3185,-5.3185,-5.3185,-5.3185,-5.3185,-5.3185,-5.3185,-5.3185,-5.3185,-5.3185,-5.3185,-5.3185,-5.3185,-5.3185,-5.3185,-5.3185,-5.3185,-5.2839,-5.2013,-5.1224,-5.0417,-4.9629,-4.8746,-4.8287,-4.8287,-4.8287,-4.8267,-4.8187,-4.8267,-4.819,-5.4388,-5.5825,-5.6257,-5.5212,-5.4458,-5.3144,-4.9977,0.0,-4.7819,-4.5819,-4.6158,-4.6906,-4.7213,-4.8452,-4.973,-5.0672,-5.2068,0.0,0.0,0.0,0.0,0.0,0.0,0.0,0.0,0.0,0.0,0.0,0.0,0.0,0.0,0.0,-6.278,-6.278,-6.278,-6.278,-6.278,-6.278,-6.278,-6.278,-6.278,-6.278,-6.2762,-6.231,-6.1906,-6.152,0.0,0.0,0.0,-5.8327,-5.7997,-5.7997,-5.7997,-5.7997,-5.7997,-5.7997,-5.7997,-5.7997,-5.7997,-5.7997,-5.7997,-5.7997,-5.7997,-5.7997,-5.7997,-5.7997,-5.7648,-5.6033,-5.5614,-5.5225,-5.3628,-5.3185,-5.3185,-5.3185,-5.3185,-5.3185,-5.3185,-5.3185,-5.3185,-5.3185,-5.3185,-5.3185,-5.3185,-5.3185,-5.3185,-5.3185,-5.3185,-5.3185,-5.3185,-5.3185,-5.3185,-5.3185,-5.3185,-5.3185,-5.3185,-5.3185,-5.3185,-5.3185,-5.3185,-5.3078,-5.2747,-5.194,-5.1132,-5.0343,-4.9499,-4.882,-4.8306,-4.8306,-4.8287,-4.8267,-4.8287,-4.8267,-5.2215,-5.4046,-5.4868,-5.3477,-5.2702,-5.1584,0.0,0.0,-4.706,-4.5716,-4.5965,-4.6512,-4.6781,-4.8085,-4.9364,-5.0124,-5.1478,-5.2848,-5.4009,0.0,0.0,0.0,0.0,0.0,0.0,0.0,0.0,0.0,0.0,0.0,0.0,0.0,-6.2935,-6.2805,-6.278,-6.278,-6.278,-6.278,-6.278,-6.278,-6.278,-6.2695,-6.2438,-6.1851,-6.1337,0.0,0.0,0.0,0.0,-5.8235,-5.7997,-5.7997,-5.7997,-5.7997,-5.802,-5.8119,-5.8186,-5.8186,-5.8186,-5.8186,-5.8164,-5.8024,-5.7997,-5.7997,-5.7997,-5.7997,-5.7648,-5.6033,-5.5244,-5.4638,-5.35,-5.3185,-5.3185,-5.3185,-5.3185,-5.3185,-5.3185,-5.3185,-5.3185,-5.3185,-5.3185,-5.3185,-5.3185,-5.3185,-5.3185,-5.3185,-5.3185,-5.3185,-5.3185,-5.3185,-5.3185,-5.3185,-5.3185,-5.3185,-5.3185,-5.3185,-5.3185,-5.3185,-5.3185,-5.3185,-5.3185,-5.2435,-5.161,-5.082,-5.0014,-4.9169,-4.8306,-4.8306,-4.8306,-4.8306,-4.8306,-4.8306,-4.8952,-5.0786,-5.175,-5.1731,-5.1164,-5.0271,0.0,0.0,-4.7118,-4.5774,-4.5559,-4.5874,-4.674,-4.7612,-4.8477,-4.9288,-5.0875,-5.2132,0.0,0.0,0.0,0.0,0.0,0.0,0.0,0.0,0.0,0.0,0.0,0.0,0.0,0.0,-6.328,-6.2805,-6.278,-6.278,-6.278,-6.278,-6.278,-6.278,-6.278,-6.2383,-6.1612,-6.1594,0.0,0.0,0.0,0.0,0.0,-5.7997,-5.7997,-5.7997,-5.7997,-5.7997,-5.8047,-5.8437,-5.8586,-5.8586,-5.8586,-5.8586,-5.8542,-5.8119,-5.7997,-5.7997,-5.7997,-5.7997,-5.7648,-5.6033,-5.4454,-5.3203,-5.3185,-5.3185,-5.3185,-5.3185,-5.3185,-5.3185,-5.3185,-5.3185,-5.3185,-5.3185,-5.3185,-5.3185,-5.3185,-5.3185,-5.3185,-5.3185,-5.3185,-5.3185,-5.3185,-5.3185,-5.3185,-5.3185,-5.3185,-5.3185,-5.3185,-5.3185,-5.3185,-5.3185,-5.3185,-5.3185,-5.3185,-5.2435,-5.161,-5.082,-5.0014,-4.9169,-4.8306,-4.8306,-4.8306,-4.8306,-4.8306,-4.8306,-4.6888,-4.8345,-4.8922,-4.8141,-4.7523,-4.6946,-4.6282,0.0,-4.5427,-4.5603,-4.5648,-4.5753,-4.6022,-4.6752,-4.7764,-4.9173,-4.9903,0.0,0.0,0.0,0.0,0.0,0.0,0.0,0.0,0.0,0.0,0.0,0.0,0.0,0.0,0.0,0.0,-6.328,-6.2959,-6.278,-6.278,-6.278,-6.253,-6.1979,-6.1979,-6.1557,-6.0768,-6.0217,0.0,0.0,0.0,0.0,0.0,-5.7997,-5.7997,-5.7997,-5.7997,-5.8164,-5.8391,-5.8235,-5.8369,-5.8545,-5.8301,-5.8186,-5.8164,-5.8024,-5.7997,-5.7997,-5.7997,-5.7997,-5.7648,-5.6033,-5.484,-5.3904,-5.3332,-5.3185,-5.3185,-5.3185,-5.3185,-5.3185,-5.3185,-5.3185,-5.3185,-5.3185,-5.3185,-5.3272,-5.3504,-5.3339,-5.3272,-5.3504,-5.3543,-5.3543,-5.3543,-5.3776,-5.3944,-5.3944,-5.3944,-5.3833,-5.3563,-5.3336,-5.3314,-5.3524,-5.3543,-5.3543,-5.3543,-5.3572,-5.2918,-5.1501,-5.1222,-5.028,-4.8641,-4.8641,-4.8532,-4.8306,-4.8306,-4.8306,-4.4624,-4.607,-4.6797,-4.6075,-4.5445,0.0,0.0,-4.4794,-4.4641,-4.5525,-4.569,-4.5701,-4.5701,-4.6356,-4.7341,-4.8692,-4.9238,0.0,0.0,0.0,0.0,0.0,0.0,0.0,0.0,0.0,0.0,0.0,0.0,0.0,0.0,0.0,0.0,-6.3044,-6.2891,-6.278,-6.278,-6.2511,-6.2108,-6.1594,-6.1282,-6.0731,-5.9942,0.0,0.0,0.0,0.0,0.0,0.0,-5.7997,-5.7997,-5.7997,-5.7997,-5.8142,-5.8369,-5.8257,-5.8372,-5.8566,-5.8304,-5.8231,-5.8209,-5.8047,-5.7997,-5.8042,-5.8186,-5.7917,-5.7281,-5.5959,-5.5023,-5.424,-5.356,-5.338,-5.338,-5.338,-5.338,-5.338,-5.338,-5.338,-5.344,-5.3582,-5.3621,-5.368,-5.3888,-5.3738,-5.368,-5.3888,-5.3925,-5.3925,-5.3925,-5.4141,-5.4315,-5.4315,-5.4315,-5.4245,-5.4139,-5.3814,-5.3699,-5.3925,-5.3925,-5.3925,-5.3925,-5.3859,-5.3172,-5.182,-5.1483,-5.0541,-4.9001,-4.8849,-4.8623,-4.8306,-4.8306,-4.8306,0.0,-4.3866,-4.5055,0.0,0.0,0.0,0.0,-4.485,0.0,-4.5507,-4.5695,-4.5709,-4.5709,-4.6298,-4.709,-4.797,0.0,0.0,0.0,0.0,0.0,0.0,0.0,0.0,0.0,0.0,0.0,0.0,0.0,0.0,0.0,0.0,0.0,0.0,-6.2461,-6.2615,-6.2615,-6.1887,-6.1484,-6.141,-6.0676,-5.9905,-5.9093,0.0,0.0,0.0,0.0,0.0,0.0,-5.7997,-5.7997,-5.7997,-5.7997,-5.802,-5.8092,-5.8415,-5.8584,-5.8586,-5.8566,-5.8563,-5.85,-5.8142,-5.8047,-5.8142,-5.8542,-5.7851,-5.6757,-5.5996,-5.5187,-5.4444,-5.3978,-5.3795,-5.3739,-5.3739,-5.3739,-5.3739,-5.3739,-5.3739,-5.3851,-5.4228,-5.4315,-5.4315,-5.433,-5.4332,-5.4315,-5.433,-5.4349,-5.4349,-5.4349,-5.4366,-5.4382,-5.4382,-5.4382,-5.4495,-5.4825,-5.4511,-5.4315,-5.433,-5.4292,-5.4255,-5.4255,-5.3445,-5.2599,-5.1807,-5.0911,-5.0069,-4.9329,-4.9001,-4.8676,-4.8364,-4.8364,-4.8345,-4.0962,0.0,-4.1657,-4.1728,-4.1546,-4.1777,0.0,-4.3578,-4.3925,-4.5457,-4.5743,-4.5719,-4.577,-4.5896,-4.648,0.0,0.0,0.0,0.0,0.0,0.0,0.0,0.0,0.0,0.0,0.0,0.0,0.0,0.0,0.0,0.0,0.0,0.0,0.0,-6.0908,-6.097,-6.097,-6.0786,-6.0382,-5.9753,-5.9551,-5.9079,-5.829,0.0,0.0,0.0,0.0,0.0,-5.7997,-5.7997,-5.7997,-5.7997,-5.7997,-5.8186,-5.8437,-5.8213,-5.8326,-5.8563,-5.8257,-5.8142,-5.8186,-5.8391,-5.8669,-5.8949,-5.9027,-5.866,-5.8058,-5.7582,-5.6818,-5.5996,-5.5263,-5.4625,-5.4158,-5.4158,-5.4158,-5.4158,-5.4158,-5.4158,-5.4176,-5.4279,-5.4315,-5.438,-5.4639,-5.4463,-5.438,-5.4639,-5.4685,-5.4685,-5.4685,-5.4952,-5.5146,-5.5146,-5.5146,-5.5173,-5.526,-5.4657,-5.4413,-5.467,-5.4099,-5.3759,-5.3759,-5.3176,-5.2467,-5.1649,-5.0542,-4.9863,-4.9688,-4.9348,-4.9145,-4.9046,-4.9046,-4.8934,-4.0546,-4.0527,-4.0504,-4.0558,-4.0531,-4.0858,-4.2241,-4.2895,-4.3581,-4.4964,-4.551,-4.5758,-4.5781,0.0,0.0,0.0,0.0,0.0,0.0,0.0,0.0,0.0,0.0,0.0,0.0,0.0,0.0,0.0,0.0,0.0,0.0,0.0,0.0,0.0,0.0,-6.04,-6.0401,-6.0034,-5.9648,-5.9184,-5.8841,-5.8419,-5.7997,0.0,0.0,0.0,0.0,0.0,-5.7997,-5.7997,-5.7997,-5.7997,-5.7997,-5.8119,-5.8301,-5.807,-5.8142,-5.8282,-5.807,-5.8138,-5.8348,-5.875,-5.9008,-5.9215,-5.9432,-5.9324,-5.899,-5.8219,-5.7656,-5.7072,-5.6038,-5.5446,-5.5034,-5.4622,-5.4528,-5.4528,-5.4528,-5.4528,-5.4576,-5.4769,-5.4799,-5.4859,-5.5038,-5.4918,-5.4878,-5.5052,-5.5085,-5.5085,-5.5085,-5.526,-5.5403,-5.5403,-5.5403,-5.525,-5.4849,-5.4439,-5.4286,-5.4476,-5.3677,-5.3221,-5.3221,-5.2616,-5.1868,-5.1028,-5.0361,-4.9955,-4.9803,-4.9632,-4.9453,-4.9299,-4.9299,-4.9129,-4.058,-4.075,-4.0843,-4.0581,-4.0523,-4.075,-4.1685,-4.2459,-4.3291,-4.4367,-4.5126,-4.5684,-4.5928,-4.6342,0.0,0.0,0.0,0.0,0.0,0.0,0.0,0.0,0.0,0.0,0.0,0.0,0.0,0.0,0.0,0.0,0.0,0.0,0.0,0.0,-6.0229,-6.0192,-6.0134,-5.9448,-5.9094,-5.9001,-5.8327,-5.7997,-5.7997,-5.7997,0.0,0.0,0.0,0.0,-5.7997,-5.7997,-5.7997,-5.7997,-5.7997,-5.7997,-5.7997,-5.7997,-5.7997,-5.802,-5.807,-5.8348,-5.877,-5.9159,-5.9324,-5.945,-5.9791,-5.989,-5.969,-5.8652,-5.8171,-5.7731,-5.666,-5.6185,-5.5806,-5.507,-5.4884,-5.4884,-5.4884,-5.4884,-5.499,-5.5332,-5.5403,-5.5403,-5.5403,-5.5403,-5.5403,-5.5403,-5.5403,-5.5403,-5.5403,-5.5403,-5.5403,-5.5403,-5.5403,-5.5059,-5.418,-5.397,-5.3855,-5.3722,-5.3034,-5.2556,-5.2422,-5.1754,-5.1047,-5.0302,-5.0302,-5.0156,-4.987,-4.987,-4.973,-4.9453,-4.9409,-4.9209,-4.058,-4.1636,-4.2362,-4.0939,-4.058,-4.0812,-4.1693,-4.1993,-4.2558,-4.4184,-4.4607,-4.5137,0.0,-4.6341,-4.6661,0.0,0.0,0.0,0.0,0.0,0.0,0.0,0.0,0.0,0.0,0.0,0.0,0.0,0.0,0.0,0.0,0.0,0.0,0.0,0.0,-5.9231,-5.8892,-5.8741,-5.8511,-5.818,-5.8052,-5.7997,-5.7997,-5.7997,-5.7997,0.0,0.0,-5.7997,-5.7997,-5.7997,-5.7997,-5.7997,-5.7997,-5.7997,-5.7997,-5.7997,-5.7997,-5.8047,-5.8391,-5.877,-5.9159,-5.9571,-5.9937,-6.0222,-6.0299,-6.0313,-6.028,-6.0084,-5.9021,-5.7858,-5.7685,-5.6559,-5.5471,-5.5338,-5.5319,-5.5319,-5.5319,-5.5319,-5.5332,-5.539,-5.5403,-5.5403,-5.5403,-5.5403,-5.5403,-5.5403,-5.5403,-5.5403,-5.5403,-5.5403,-5.5403,-5.5403,-5.5403,-5.5059,-5.418,-5.3416,-5.2709,-5.204,-5.1868,-5.1448,-5.0703,-5.0569,-5.0436,-5.0302,-5.0302,-5.0259,-5.0224,-5.0224,-5.02,-5.0144,-4.9857,-4.9541,-4.0539,-4.1101,-4.1747,-4.1917,-4.2637,-4.3415,-4.3855,-4.4294,-4.4712,-4.5059,-4.5515,0.0,0.0,0.0,0.0,0.0,0.0,0.0,0.0,0.0,0.0,0.0,0.0,0.0,0.0,0.0,0.0,0.0,0.0,0.0,0.0,0.0,0.0,0.0,0.0,0.0,-5.893,-5.871,-5.8412,-5.7997,-5.7997,-5.7997,-5.7997,-5.7997,-5.7997,0.0,0.0,-5.7997,-5.7997,-5.7997,-5.7997,-5.7997,-5.7997,-5.7997,-5.8042,-5.8235,-5.8326,-5.8394,-5.9046,-5.936,-5.9588,-6.0003,-6.0237,-6.0403,-6.0403,-6.0403,-6.0403,-6.0403,-5.951,-5.8459,-5.8001,-5.6988,-5.5938,-5.5498,-5.5403,-5.5403,-5.5403,-5.5403,-5.5403,-5.5403,-5.5403,-5.5403,-5.5403,-5.5403,-5.5403,-5.5403,-5.5403,-5.5403,-5.5403,-5.5403,-5.5403,-5.5403,-5.5403,-5.4868,-5.3511,-5.3034,-5.2251,-5.099,-5.0913,-5.0722,-5.0321,-5.0302,-5.0302,-5.0302,-5.0302,-5.0302,-5.0302,-5.0302,-5.0302,-5.0302,-5.0144,-4.9784,-4.0523,-4.0812,-4.1439,-4.2775,-4.3764,-4.4639,-4.5494,-4.5858,-4.6018,-4.5995,-4.6505,0.0,0.0,0.0,0.0,0.0,0.0,0.0,0.0,0.0,0.0,0.0,0.0,0.0,0.0,0.0,0.0,0.0,0.0,0.0,0.0,0.0,0.0,0.0,0.0,0.0,-5.9196,-5.8792,-5.8412,-5.7997,-5.7997,-5.7997,-5.7997,-5.7997,-5.7997,-5.7997,-5.7997,-5.7997,-5.7997,-5.7997,-5.7997,-5.7997,-5.7997,-5.8047,-5.8186,-5.8479,-5.8669,-5.8832,-5.9554,-5.9791,-5.9874,-6.027,-6.0403,-6.0403,-6.0403,-6.0403,-6.0365,-6.0141,-5.9472,-5.8689,-5.8058,-5.7103,-5.6167,-5.5556,-5.5403,-5.5403,-5.5403,-5.5403,-5.5403,-5.5403,-5.5403,-5.5403,-5.5403,-5.5403,-5.5403,-5.5403,-5.5403,-5.5403,-5.5403,-5.5403,-5.5403,-5.5403,-5.5403,-5.4696,-5.2938,-5.2633,-5.1888,-5.0397,-5.0302,-5.0302,-5.0302,-5.0302,-5.0302,-5.0302,-5.0302,-5.0302,-5.0302,-5.0302,-5.0302,-5.0302,-5.0224,-4.9916,-4.0573,-4.1732,-4.294,-4.3076,-4.2017,-4.1781,-4.49,-4.4498,-4.4095,-4.6348,-4.6868,0.0,0.0,0.0,0.0,0.0,0.0,0.0,0.0,0.0,0.0,0.0,0.0,0.0,0.0,0.0,0.0,0.0,0.0,0.0,0.0,0.0,0.0,0.0,0.0,0.0,-5.9196,-5.8792,-5.8412,-5.7997,-5.7997,-5.7997,-5.7997,-5.7997,-5.7997,-5.7997,-5.7997,-5.7997,-5.7997,-5.7997,-5.7997,-5.7997,-5.7997,-5.8213,-5.8545,-5.8586,-5.885,-5.9234,-5.9639,-5.9791,-5.9874,-6.027,-6.0403,-6.0403,-6.0403,-6.0403,-6.0217,-5.9415,-5.8612,-5.7963,-5.7925,-5.6702,-5.5479,-5.5422,-5.5403,-5.5403,-5.5403,-5.5403,-5.5403,-5.5403,-5.5403,-5.5403,-5.5403,-5.5403,-5.5403,-5.5403,-5.5403,-5.5403,-5.5403,-5.5403,-5.5403,-5.5403,-5.5403,-5.4696,-5.2938,-5.2117,-5.1295,-5.0359,-5.0302,-5.0302,-5.0302,-5.0302,-5.0302,-5.0302,-5.0302,-5.0302,-5.0302,-5.0302,-5.0302,-5.029,-4.9981,-4.9817,-4.0531,-4.1793,-4.3104,-4.311,-4.2622,-4.3023,-4.6392,-4.7094,-4.7178,-4.763,-4.8536,-4.9345,0.0,0.0,0.0,0.0,0.0,0.0,0.0,0.0,0.0,0.0,0.0,0.0,0.0,0.0,0.0,0.0,0.0,0.0,0.0,0.0,0.0,0.0,0.0,0.0,0.0,-5.9178,-5.877,-5.8369,-5.8138,-5.7997,-5.7997,-5.7997,-5.7997,-5.7997,-5.7997,-5.7997,-5.7997,-5.7997,-5.7997,-5.7997,-5.7997,-5.8235,-5.8628,-5.8871,-5.9215,-5.9622,-6.0034,-6.0159,-6.0207,-6.0342,-6.0403,-6.0403,-6.0403,-6.0403,-6.0217,-5.9357,-5.8517,-5.7772,-5.7218,-5.6243,-5.5403,-5.5403,-5.5403,-5.5403,-5.5403,-5.5403,-5.5403,-5.5403,-5.5403,-5.5403,-5.5403,-5.5403,-5.5403,-5.5403,-5.5403,-5.5403,-5.5403,-5.5403,-5.5403,-5.5403,-5.4925,-5.4104,-5.29,-5.2059,-5.1238,-5.0359,-5.0302,-5.0302,-5.0302,-5.0302,-5.0302,-5.0302,-5.0302,-5.0302,-5.0302,-5.0302,-5.0302,-5.0302,-5.0169,-4.9993,-4.1324,-4.2181,-4.322,-4.3758,-4.3687,-4.43,-4.7394,-4.8172,-4.846,-4.9201,-5.0288,-5.1106,-5.1039,0.0,0.0,0.0,0.0,0.0,0.0,0.0,0.0,0.0,0.0,0.0,0.0,0.0,0.0,0.0,0.0,0.0,0.0,0.0,0.0,0.0,0.0,0.0,0.0,-5.9397,-5.9046,-5.8791,-5.85,-5.8253,-5.7997,-5.7997,-5.7997,-5.7997,-5.7997,-5.7997,-5.7997,-5.7997,-5.7997,-5.802,-5.8142,-5.8434,-5.8832,-5.9233,-5.9639,-6.0034,-6.0299,-6.0403,-6.0403,-6.0403,-6.0403,-6.0403,-6.0403,-6.0198,-5.9816,-5.8956,-5.8135,-5.7294,-5.6434,-5.5804,-5.5403,-5.5403,-5.5403,-5.5403,-5.5403,-5.5403,-5.5403,-5.5403,-5.5403,-5.5403,-5.5403,-5.5403,-5.5403,-5.5403,-5.5403,-5.5403,-5.5403,-5.5403,-5.5403,-5.5403,-5.4868,-5.4161,-5.3282,-5.2442,-5.162,-5.076,-5.0455,-5.0302,-5.0302,-5.0302,-5.0302,-5.0302,-5.0302,-5.0302,-5.0302,-5.0302,-5.0302,-5.0302,-5.0302,-5.0188,-4.3085,-4.3104,-4.3528,-4.5171,-4.4951,-4.4989,-4.7528,-4.6863,-4.69,-5.1068,-5.1963,-5.2011,-5.2011,0.0,0.0,0.0,0.0,0.0,0.0,0.0,0.0,0.0,0.0,0.0,0.0,0.0,0.0,0.0,0.0,0.0,0.0,0.0,0.0,0.0,0.0,0.0,0.0,-5.9396,-5.9178,-5.9196,-5.9196,-5.8791,-5.802,-5.802,-5.802,-5.802,-5.7997,-5.7997,-5.7997,-5.7997,-5.7997,-5.8065,-5.8437,-5.8852,-5.9252,-5.9639,-6.0049,-6.0403,-6.0403,-6.0403,-6.0403,-6.0403,-6.0403,-6.0403,-6.0403,-5.9778,-5.8904,-5.8116,-5.7256,-5.6396,-5.5613,-5.5403,-5.5403,-5.5403,-5.5403,-5.5403,-5.5403,-5.5403,-5.5403,-5.5403,-5.5403,-5.5403,-5.5403,-5.5403,-5.5403,-5.5403,-5.5403,-5.5403,-5.5403,-5.5403,-5.5403,-5.5403,-5.5403,-5.5059,-5.418,-5.3301,-5.2461,-5.1646,-5.0779,-5.0302,-5.0302,-5.0302,-5.0302,-5.0302,-5.0302,-5.0302,-5.0302,-5.0302,-5.0302,-5.0302,-5.0302,-5.0302,-4.1266,-4.3036,0.0,-4.4008,0.0,0.0,0.0,-4.8211,-4.9163,0.0,-5.2867,-5.2907,-5.2907,0.0,0.0,0.0,0.0,0.0,0.0,0.0,0.0,0.0,0.0,0.0,0.0,0.0,0.0,0.0,0.0,0.0,0.0,0.0,0.0,0.0,0.0,0.0,0.0,0.0,-5.8429,-5.8698,-5.8698,-5.8778,-5.8831,-5.8563,-5.8584,-5.8811,-5.8253,-5.8164,-5.8415,-5.8415,-5.8415,-5.8458,-5.8852,-5.927,-5.9641,-5.9758,-6.0049,-6.0403,-6.0403,-6.0403,-6.0403,-6.0403,-5.9988,-5.9491,-5.9491,-5.8918,-5.8077,-5.7218,-5.6797,-5.6396,-5.5613,-5.5403,-5.5403,-5.5403,-5.5403,-5.5403,-5.5403,-5.5403,-5.5403,-5.5403,-5.5403,-5.5403,-5.5403,-5.5403,-5.5403,-5.5403,-5.5403,-5.5403,-5.5403,-5.5403,-5.5403,-5.5403,-5.5403,-5.5059,-5.418,-5.3301,-5.2461,-5.1646,-5.0779,-5.0302,-5.0302,-5.0302,-5.0302,-5.0302,-5.0302,-5.0302,-5.0302,-5.0302,-5.0302,-5.0302,-5.0302,-5.0302,-4.3162,-4.4536,0.0,-4.6028,-4.7124,-4.8279,-4.8971,0.0,0.0,0.0,0.0,-5.4244,0.0,0.0,0.0,0.0,0.0,0.0,0.0,0.0,0.0,0.0,0.0,0.0,0.0,0.0,0.0,0.0,0.0,0.0,0.0,0.0,0.0,0.0,0.0,0.0,0.0,0.0,0.0,-5.8251,-5.8251,-5.8425,-5.8694,-5.8784,-5.8969,-5.9159,-5.8708,-5.8607,-5.885,-5.885,-5.885,-5.8871,-5.927,-5.9588,-5.9807,-5.9988,-6.0193,-6.0403,-6.0403,-6.016,-5.9873,-5.9873,-5.9319,-5.8631,-5.8631,-5.8039,-5.7275,-5.6753,-5.6358,-5.6014,-5.5536,-5.5403,-5.5403,-5.5403,-5.5403,-5.5403,-5.5403,-5.5403,-5.5403,-5.5403,-5.5403,-5.5403,-5.5403,-5.5403,-5.5403,-5.5403,-5.5403,-5.5403,-5.5403,-5.5403,-5.5403,-5.5403,-5.5403,-5.5193,-5.4658,-5.3492,-5.2594,-5.2117,-5.0971,-5.0302,-5.0302,-5.0302,-5.0302,-5.0302,-5.0302,-5.0302,-5.0302,-5.0302,-5.0302,-5.0302,-5.0302,-5.0302,-4.6817,-4.6759,0.0,-4.9692,-4.9394,0.0,-5.0346,-5.1933,-5.3106,-5.3183,0.0,0.0,0.0,0.0,0.0,0.0,0.0,0.0,0.0,0.0,0.0,0.0,0.0,0.0,0.0,0.0,0.0,0.0,0.0,0.0,0.0,0.0,0.0,0.0,0.0,0.0,0.0,0.0,0.0,0.0,-5.7772,-5.781,-5.793,-5.8682,-5.9046,-5.9102,-5.9214,-5.9215,-5.9196,-5.9252,-5.9252,-5.9288,-5.9708,-5.9801,-5.9776,-6.0156,-6.025,-6.0174,-6.0174,-5.9644,-5.8994,-5.8994,-5.844,-5.7772,-5.7772,-5.7179,-5.6492,-5.6492,-5.5957,-5.5403,-5.5403,-5.5403,-5.5403,-5.5403,-5.5403,-5.5403,-5.5403,-5.5403,-5.5403,-5.5403,-5.5403,-5.5403,-5.5403,-5.5403,-5.5403,-5.5403,-5.5403,-5.5403,-5.5403,-5.5403,-5.5403,-5.5403,-5.5403,-5.5403,-5.5403,-5.3798,-5.2805,-5.2805,-5.1238,-5.0302,-5.0302,-5.0302,-5.0302,-5.0302,-5.0302,-5.0302,-5.0302,-5.0302,-5.0302,-5.0302,-5.0302,-5.0302,-4.3989,-4.5836,0.0,0.0,-4.9413,-5.025,-5.0616,-5.1471,-5.2365,0.0,0.0,0.0,0.0,0.0,0.0,0.0,0.0,0.0,0.0,0.0,0.0,0.0,0.0,0.0,0.0,0.0,0.0,0.0,0.0,0.0,0.0,0.0,0.0,0.0,0.0,0.0,-5.5938,-5.5938,-5.6243,0.0,-5.6874,-5.7237,-5.7892,-5.7768,-5.7865,-5.8239,-5.9254,-5.9485,-5.9215,-5.9537,-5.9675,-5.9708,-6.0114,-5.9851,-5.9259,-5.9349,-5.8975,-5.844,-5.844,-5.8307,-5.8154,-5.8154,-5.7581,-5.6874,-5.6874,-5.6301,-5.567,-5.567,-5.5536,-5.5403,-5.5403,-5.5403,-5.5403,-5.5403,-5.5403,-5.5403,-5.5403,-5.5403,-5.5403,-5.5403,-5.5403,-5.5403,-5.5403,-5.5403,-5.5403,-5.5403,-5.5403,-5.5403,-5.5403,-5.5403,-5.5403,-5.5403,-5.5403,-5.5403,-5.5403,-5.3798,-5.2805,-5.2805,-5.1238,-5.0302,-5.0302,-5.0302,-5.0302,-5.0302,-5.0302,-5.0302,-5.0302,-5.0302,-5.0302,-5.0302,-5.0302,-5.0302,-4.4836,0.0,0.0,-4.8933,0.0,-5.0712,-5.0712,-5.101,0.0,0.0,0.0,0.0,0.0,0.0,0.0,0.0,0.0,0.0,0.0,0.0,0.0,0.0,0.0,0.0,0.0,0.0,0.0,0.0,0.0,0.0,0.0,0.0,0.0,0.0,0.0,0.0,-5.5403,-5.5403,-5.5613,-5.6033,-5.6033,-5.6262,-5.6708,-5.732,-5.7696,-5.794,-5.86,-5.8775,-5.86,-5.8791,-5.8885,-5.89,-5.913,-5.8937,-5.8536,-5.8536,-5.8268,-5.7905,-5.7905,-5.7619,-5.7275,-5.7275,-5.6702,-5.6033,-5.6033,-5.5728,-5.5403,-5.5403,-5.5403,-5.5403,-5.5403,-5.5403,-5.5403,-5.5403,-5.5403,-5.5403,-5.5403,-5.5403,-5.5403,-5.5403,-5.5403,-5.5403,-5.5403,-5.5403,-5.5403,-5.5403,-5.5403,-5.5403,-5.5403,-5.5403,-5.5403,-5.5403,-5.5403,-5.5403,-5.5403,-5.3798,-5.2805,-5.2805,-5.1238,-5.0302,-5.0302,-5.0302,-5.0302,-5.0302,-5.0302,-5.0302,-5.0302,-5.0302,-5.0302,-5.0302,-5.0302,-5.0302,-4.6269,0.0,-4.6971,-4.9952,-5.0712,0.0,-5.0712,0.0,0.0,0.0,0.0,0.0,0.0,0.0,0.0,0.0,0.0,0.0,0.0,0.0,0.0,0.0,0.0,0.0,0.0,0.0,0.0,0.0,0.0,0.0,0.0,0.0,0.0,0.0,0.0,-5.539,-5.5396,-5.5403,-5.5403,-5.5403,-5.5403,-5.5403,-5.546,-5.6836,-5.7466,-5.7485,-5.7772,-5.7905,-5.7905,-5.7905,-5.7905,-5.7905,-5.7905,-5.781,-5.7676,-5.7676,-5.7581,-5.7466,-5.7466,-5.6988,-5.6377,-5.6377,-5.5938,-5.5403,-5.5403,-5.5403,-5.5403,-5.5403,-5.5403,-5.5403,-5.5403,-5.5403,-5.5403,-5.5403,-5.5403,-5.5403,-5.5403,-5.5403,-5.5403,-5.5403,-5.5403,-5.5403,-5.5403,-5.5403,-5.5403,-5.5403,-5.5403,-5.5403,-5.5403,-5.5403,-5.5403,-5.5403,-5.5403,-5.5403,-5.5403,-5.3798,-5.2805,-5.2805,-5.1238,-5.0302,-5.0302,-5.0302,-5.0302,-5.0302,-5.0302,-5.0302,-5.0302,-5.0302,-5.0302,-5.0302,-5.0302,-5.0302,0.0,0.0,-4.9115,0.0,-5.0712,-5.0712,0.0,0.0,0.0,0.0,0.0,0.0,0.0,0.0,0.0,0.0,0.0,0.0,0.0,0.0,0.0,0.0,0.0,0.0,0.0,0.0,0.0,0.0,0.0,0.0,0.0,0.0,-5.5585,-5.5573,-5.5468,0.0,-5.5402,-5.5409,-5.5403,-5.5403,-5.5403,-5.5403,-5.5422,-5.5632,-5.5734,-5.5803,-5.7262,-5.7905,-5.7905,-5.7905,-5.7905,-5.7905,-5.7905,-5.7428,-5.6759,-5.6759,-5.632,-5.5728,-5.5728,-5.567,-5.5556,-5.5556,-5.5498,-5.5403,-5.5403,-5.5403,-5.5403,-5.5403,-5.5403,-5.5403,-5.5403,-5.5403,-5.5403,-5.5403,-5.5403,-5.5403,-5.5403,-5.5403,-5.5403,-5.5403,-5.5403,-5.5403,-5.5403,-5.5403,-5.5403,-5.5403,-5.5403,-5.5403,-5.5403,-5.5403,-5.5403,-5.5403,-5.5403,-5.5403,-5.5403,-5.3798,-5.2805,-5.2805,-5.1238,-5.0302,-5.0302,-5.0302,-5.0302,-5.0302,-5.0302,-5.0302,-5.0302,-5.0302,-5.0302,-5.0302,-5.0302,-5.0302,-4.5136,-4.752,-4.9558,0.0,-5.0712,0.0,0.0,0.0,0.0,0.0,0.0,0.0,0.0,0.0,0.0,0.0,0.0,0.0,0.0,0.0,0.0,0.0,0.0,0.0,0.0,0.0,0.0,0.0,0.0,0.0,0.0,-5.4739,-5.4976,-5.4924,-5.5274,0.0,-5.5408,-5.539,-5.5403,-5.5403,-5.5403,-5.5403,-5.5403,-5.5403,-5.539,-5.5434,-5.6173,-5.6511,-5.6511,-5.6511,-5.6511,-5.6511,-5.6511,-5.6262,-5.5938,-5.5938,-5.5708,-5.5403,-5.5403,-5.5403,-5.5403,-5.5403,-5.5403,-5.5403,-5.5403,-5.5403,-5.5403,-5.5403,-5.5403,-5.5403,-5.5403,-5.5403,-5.5403,-5.5403,-5.5403,-5.5403,-5.5403,-5.5403,-5.5403,-5.5403,-5.5403,-5.5403,-5.5403,-5.5403,-5.5403,-5.5403,-5.5403,-5.5403,-5.5403,-5.5403,-5.5403,-5.5403,-5.5403,-5.5403,-5.5403,-5.3798,-5.2805,-5.2805,-5.1238,-5.0302,-5.0302,-5.0302,-5.0302,-5.0302,-5.0302,-5.0302,-5.0302,-5.0302,-5.0302,-5.0302,-5.0302,-5.0302,0.0,0.0,-4.899,-5.0106,-5.0366,0.0,0.0,0.0,0.0,0.0,0.0,0.0,0.0,0.0,0.0,0.0,0.0,0.0,0.0,0.0,0.0,0.0,0.0,0.0,0.0,0.0,0.0,0.0,0.0,0.0,-5.3203,-5.3818,-5.4143,-5.4101,-5.461,-5.4967,-5.515,-5.5313,-5.5396,-5.5403,-5.5403,-5.5403,-5.5403,-5.5403,-5.5403,-5.5403,-5.5403,-5.5403,-5.5403,-5.5403,-5.5403,-5.5403,-5.5403,-5.5403,-5.5403,-5.5403,-5.5403,-5.5403,-5.5403,-5.5403,-5.5403,-5.5403,-5.5403,-5.5403,-5.5403,-5.5403,-5.5403,-5.5403,-5.5403,-5.5403,-5.5403,-5.5403,-5.5403,-5.5403,-5.5403,-5.5403,-5.5403,-5.5403,-5.5403,-5.5403,-5.5403,-5.5403,-5.5403,-5.5403,-5.5403,-5.5403,-5.5403,-5.5403,-5.5403,-5.5403,-5.5403,-5.5403,-5.5403,-5.5403,-5.5403,-5.3798,-5.2805,-5.2805,-5.1238,-5.0302,-5.0302,-5.0302,-5.0302,-5.0302,-5.0302,-5.0302,-5.0302,-5.0302,-5.0302,-5.0302,-5.0302,-5.0417,0.0,-4.6281,0.0,-4.9038,0.0,0.0,0.0,0.0,0.0,0.0,0.0,0.0,0.0,0.0,0.0,0.0,0.0,0.0,0.0,0.0,0.0,0.0,0.0,0.0,0.0,0.0,0.0,0.0,0.0,0.0,-5.3164,-5.3241,-5.328,-5.325,-5.3236,-5.3626,-5.4433,-5.5073,-5.5409,-5.5403,-5.5403,-5.5403,-5.5403,-5.5403,-5.5403,-5.5403,-5.5403,-5.5403,-5.5403,-5.5403,-5.5403,-5.5403,-5.5403,-5.5403,-5.5403,-5.5403,-5.5403,-5.5403,-5.5403,-5.5403,-5.5403,-5.5403,-5.5403,-5.5403,-5.5403,-5.5403,-5.5403,-5.5403,-5.5403,-5.5403,-5.5403,-5.5403,-5.5403,-5.5403,-5.5403,-5.5403,-5.5403,-5.5403,-5.5403,-5.5403,-5.5403,-5.5403,-5.5403,-5.5403,-5.5403,-5.5403,-5.5403,-5.5403,-5.5403,-5.5403,-5.5403,-5.5403,-5.5403,-5.5403,-5.5403,-5.3798,-5.2805,-5.2805,-5.1238,-5.0302,-5.0302,-5.0302,-5.0302,-5.0302,-5.0302,-5.0302,-5.0302,-5.0302,-5.0302,-5.0302,-5.0302,-5.0741,0.0,0.0,0.0,0.0,0.0,0.0,0.0,0.0,0.0,0.0,0.0,0.0,0.0,0.0,0.0,0.0,0.0,0.0,0.0,0.0,0.0,0.0,0.0,0.0,0.0,0.0,0.0,0.0,0.0,0.0,-5.1568,-5.2087,-5.2365,-5.2365,-5.2833,-5.3231,-5.3505,-5.4257,-5.4637,-5.4631,-5.5148,-5.5403,-5.5403,-5.5403,-5.5403,-5.5403,-5.5403,-5.5403,-5.5403,-5.5403,-5.5403,-5.5403,-5.5403,-5.5403,-5.5403,-5.5403,-5.5403,-5.5403,-5.5403,-5.5403,-5.5403,-5.5403,-5.5403,-5.5403,-5.5403,-5.5403,-5.5403,-5.5403,-5.5403,-5.5403,-5.5403,-5.5403,-5.5403,-5.5403,-5.5403,-5.5403,-5.5403,-5.5403,-5.5403,-5.5403,-5.5403,-5.5403,-5.5403,-5.5403,-5.5403,-5.5403,-5.5403,-5.5403,-5.5403,-5.5403,-5.5403,-5.5403,-5.5403,-5.5403,-5.5403,-5.4314,-5.3626,-5.3626,-5.2059,-5.1142,-5.1142,-5.0608,-5.0302,-5.0302,-5.0856,-5.0856,-5.0302,-5.0302,-5.0588,-5.1142,-5.1142,-5.1582,-4.6144,0.0,0.0,0.0,0.0,0.0,0.0,0.0,0.0,0.0,0.0,0.0,0.0,0.0,0.0,0.0,0.0,0.0,0.0,0.0,0.0,0.0,0.0,0.0,0.0,0.0,0.0,0.0,0.0,0.0,-5.0712,-5.1202,-5.151,-5.151,-5.2277,-5.2666,-5.2604,-5.3399,-5.3793,-5.3769,-5.4282,-5.4677,-5.4963,-5.4963,-5.5116,-5.5403,-5.5403,-5.5403,-5.5403,-5.5403,-5.5403,-5.5403,-5.5403,-5.5403,-5.5403,-5.5403,-5.5403,-5.5403,-5.5403,-5.5403,-5.5403,-5.5403,-5.5403,-5.5403,-5.5403,-5.5403,-5.5403,-5.5403,-5.5403,-5.5403,-5.5403,-5.5403,-5.5403,-5.5403,-5.5403,-5.5403,-5.5403,-5.5403,-5.5403,-5.5403,-5.5403,-5.5403,-5.5403,-5.5403,-5.5403,-5.5403,-5.5403,-5.5403,-5.5403,-5.5403,-5.5403,-5.5403,-5.5403,-5.5403,-5.5403,-5.46,-5.4104,-5.4104,-5.2785,-5.2002,-5.2002,-5.1448,-5.1142,-5.1142,-5.1716,-5.1716,-5.1142,-5.1142,-5.1448,-5.2002,-5.2002,-5.2442,0.0,0.0,0.0,0.0,0.0,0.0,0.0,0.0,0.0,0.0,0.0,0.0,0.0,0.0,0.0,0.0,0.0,0.0,0.0,0.0,0.0,0.0,0.0,0.0,0.0,0.0,0.0,0.0,0.0,-5.0712,-5.0712,-5.0712,-5.0712,-5.0712,-5.1471,-5.1826,-5.1774,-5.2565,-5.292,-5.2862,-5.2822,-5.3244,-5.4065,-5.4065,-5.4524,-5.5326,-5.5345,-5.5365,-5.5365,-5.5403,-5.5403,-5.5403,-5.5403,-5.5403,-5.5403,-5.5403,-5.5403,-5.5403,-5.5403,-5.5403,-5.5403,-5.5403,-5.5403,-5.5403,-5.5403,-5.5403,-5.5403,-5.5403,-5.5403,-5.5403,-5.5403,-5.5403,-5.5403,-5.5403,-5.5403,-5.5403,-5.5403,-5.5403,-5.5403,-5.5403,-5.5403,-5.5403,-5.5403,-5.5403,-5.5403,-5.5403,-5.5403,-5.5403,-5.5403,-5.5403,-5.5403,-5.5403,-5.5403,-5.5403,-5.5403,-5.4619,-5.4142,-5.4142,-5.332,-5.2843,-5.2843,-5.2805,-5.2805,-5.2805,-5.2824,-5.2843,-5.2843,-5.2805,-5.2805,-5.2843,-5.2862,-5.332,-4.5594,0.0,0.0,0.0,0.0,0.0,0.0,0.0,0.0,0.0,0.0,0.0,0.0,0.0,0.0,0.0,0.0,0.0,0.0,0.0,0.0,0.0,0.0,0.0,0.0,0.0,0.0,0.0,0.0,-5.0712,-5.0712,-5.0712,-5.0712,-5.0712,-5.0914,-5.1029,-5.099,-5.1746,-5.2105,-5.2039,-5.2594,-5.2968,-5.3148,-5.3148,-5.3282,-5.355,-5.4199,-5.4467,-5.4505,-5.5135,-5.5403,-5.5403,-5.5403,-5.5403,-5.5403,-5.5403,-5.5403,-5.5403,-5.5403,-5.5403,-5.5403,-5.5403,-5.5403,-5.5403,-5.5403,-5.5403,-5.5403,-5.5403,-5.5403,-5.5403,-5.5403,-5.5403,-5.5403,-5.5403,-5.5403,-5.5403,-5.5403,-5.5403,-5.5403,-5.5403,-5.5403,-5.5403,-5.5403,-5.5403,-5.5403,-5.5403,-5.5403,-5.5403,-5.5403,-5.5403,-5.5403,-5.5403,-5.5403,-5.5403,-5.5403,-5.5193,-5.504,-5.504,-5.4218,-5.3741,-5.3741,-5.3129,-5.2805,-5.2805,-5.3416,-5.3741,-5.3741,-5.311,-5.311,-5.376,-5.439,-5.4811,-4.5594,-4.5594,-4.5594,0.0,0.0,0.0,0.0,-4.8163,0.0,0.0,0.0,0.0,0.0,0.0,0.0,0.0,0.0,0.0,0.0,0.0,0.0,0.0,0.0,0.0,0.0,0.0,0.0,0.0,-5.0712,-5.0712,-5.0712,-5.0712,-5.0712,-5.0712,-5.0712,-5.0712,-5.0712,-5.1095,-5.1273,-5.1261,-5.1652,-5.2035,-5.2337,-5.2301,-5.248,-5.2824,-5.3339,-5.355,-5.3626,-5.4505,-5.5078,-5.5403,-5.5403,-5.5403,-5.5403,-5.5403,-5.5403,-5.5403,-5.5403,-5.5403,-5.5403,-5.5403,-5.5403,-5.5403,-5.5403,-5.5403,-5.5403,-5.5403,-5.5403,-5.5403,-5.5403,-5.5403,-5.5403,-5.5403,-5.5403,-5.5403,-5.5403,-5.5116,-5.4982,-5.5326,-5.5403,-5.5403,-5.5403,-5.5403,-5.5403,-5.5403,-5.5403,-5.5403,-5.5403,-5.5403,-5.5403,-5.5403,-5.5403,-5.5403,-5.5403,-5.5403,-5.5403,-5.5403,-5.4925,-5.4639,-5.4639,-5.4142,-5.3874,-5.3874,-5.439,-5.4639,-5.4639,-5.4123,-5.4142,-5.4658,-5.5174,-5.5403,-4.5622,-4.5614,-4.5594,0.0,0.0,0.0,-4.7499,-4.7894,0.0,0.0,0.0,0.0,0.0,0.0,0.0,0.0,0.0,0.0,0.0,0.0,0.0,0.0,0.0,0.0,0.0,0.0,0.0,-5.0712,-5.0712,-5.0712,-5.0712,-5.0712,-5.0712,-5.0712,-5.0712,-5.0712,-5.0712,-5.0633,-5.0603,-5.0593,-5.0468,-5.0814,-5.1542,-5.1491,-5.1849,-5.2518,-5.2614,-5.2671,-5.2728,-5.3607,-5.4467,-5.5269,-5.5365,-5.5403,-5.5403,-5.5403,-5.5403,-5.5403,-5.5403,-5.5403,-5.5403,-5.5403,-5.5403,-5.5403,-5.5403,-5.5403,-5.5403,-5.5403,-5.5403,-5.5403,-5.5403,-5.5403,-5.5403,-5.5403,-5.5403,-5.5365,-5.5288,-5.4658,-5.4295,-5.4982,-5.5193,-5.5288,-5.5384,-5.5403,-5.5403,-5.5403,-5.5403,-5.5403,-5.5403,-5.5403,-5.5403,-5.5403,-5.5403,-5.5403,-5.5403,-5.5403,-5.5403,-5.5403,-5.5403,-5.5403,-5.5403,-5.5403,-5.5403,-5.5403,-5.5403,-5.5403,-5.5403,-5.5403,-5.5403,-5.5403,-5.5403,-5.5403,0.0,0.0,0.0,0.0,0.0,0.0,-4.608,-4.667,0.0,0.0,0.0,0.0,0.0,0.0,0.0,0.0,0.0,0.0,0.0,0.0,0.0,0.0,0.0,0.0,0.0,0.0,-5.0712,-5.0712,-5.0712,-5.0712,-5.0712,-5.0712,-5.0712,-5.0712,-5.0712,-5.0712,-5.0712,-5.0702,-5.0643,-5.0603,-5.0511,-5.0533,-5.065,-5.0574,-5.0646,-5.0837,-5.1525,-5.183,-5.1907,-5.2728,-5.3569,-5.4428,-5.5135,-5.5403,-5.5403,-5.5403,-5.5403,-5.5403,-5.5403,-5.5403,-5.5403,-5.5403,-5.5403,-5.5403,-5.5403,-5.5403,-5.5403,-5.5403,-5.5403,-5.5403,-5.5403,-5.5403,-5.5403,-5.5403,-5.5403,-5.5212,-5.4505,-5.4218,-5.3932,-5.3416,-5.3874,-5.4581,-5.5288,-5.5403,-5.5403,-5.5403,-5.5403,-5.5403,-5.5403,-5.5403,-5.5403,-5.5403,-5.5403,-5.5403,-5.5403,-5.5403,-5.5403,-5.5403,-5.5403,-5.5403,-5.5403,-5.5403,-5.5403,-5.5403,-5.5403,-5.5403,-5.5403,-5.5403,-5.5403,-5.5403,-5.5403,-5.5403,0.0,0.0,0.0,-4.5679,0.0,0.0,0.0,-4.6621,0.0,0.0,0.0,0.0,0.0,0.0,0.0,0.0,0.0,0.0,0.0,0.0,0.0,0.0,0.0,0.0,0.0,0.0,-5.0712,-5.0712,-5.0712,-5.0712,-5.0712,-5.0712,-5.0712,-5.0712,-5.0712,-5.0712,-5.0712,-5.0712,-5.0673,-5.0643,-5.0593,-5.0521,-5.0489,-5.0435,-5.0371,-5.0356,-5.0815,-5.0975,-5.1028,-5.1868,-5.2461,-5.2977,-5.4256,-5.4753,-5.4811,-5.525,-5.5403,-5.5403,-5.5403,-5.5403,-5.5403,-5.5403,-5.5403,-5.5403,-5.5403,-5.5403,-5.5403,-5.5403,-5.5403,-5.5403,-5.5403,-5.5403,-5.5288,-5.4868,-5.4753,-5.4505,-5.3645,-5.3148,-5.2843,-5.2805,-5.3148,-5.3722,-5.46,-5.4753,-5.4906,-5.5326,-5.5403,-5.5403,-5.5403,-5.5403,-5.5403,-5.5403,-5.5403,-5.5403,-5.5403,-5.5403,-5.5403,-5.5403,-5.5403,-5.5403,-5.5403,-5.5403,-5.5403,-5.5403,-5.5403,-5.5403,-5.5403,-5.5403,-5.5403,-5.5403,-5.5403,-5.5403,0.0,0.0,0.0,0.0,0.0,-4.5796,0.0,0.0,0.0,0.0,0.0,0.0,0.0,0.0,0.0,0.0,0.0,0.0,0.0,0.0,0.0,0.0,0.0,0.0,0.0,0.0,-5.0519,-5.0693,-5.0539,-5.0519,-5.0693,-5.0712,-5.0712,-5.0712,-5.0712,-5.0712,-5.0712,-5.0712,-5.0712,-5.0712,-5.0633,-5.0603,-5.0593,-5.0532,-5.0478,-5.0424,-5.0424,-5.0371,-5.0371,-5.1078,-5.1353,-5.1525,-5.3206,-5.3855,-5.3951,-5.483,-5.5154,-5.5174,-5.5345,-5.5403,-5.5403,-5.5403,-5.5403,-5.5403,-5.5403,-5.5403,-5.5403,-5.5403,-5.5288,-5.5154,-5.5154,-5.504,-5.4715,-5.4027,-5.3855,-5.3607,-5.2747,-5.2059,-5.1792,-5.2442,-5.2575,-5.2881,-5.3913,-5.4237,-5.46,-5.5288,-5.5403,-5.5403,-5.5403,-5.5403,-5.5403,-5.5403,-5.5403,-5.5403,-5.5403,-5.5403,-5.5403,-5.5403,-5.5403,-5.5403,-5.5403,-5.5403,-5.5403,-5.5403,-5.5403,-5.5403,-5.5403,-5.5403,-5.5403,-5.5403,-5.5403,-5.5403,0.0,0.0,0.0,0.0,-4.5687,0.0,0.0,0.0,0.0,0.0,0.0,0.0,0.0,0.0,0.0,0.0,0.0,0.0,0.0,0.0,0.0,0.0,0.0,0.0,0.0,0.0,0.0,-5.0635,-4.9971,-4.9875,-5.0654,-5.0712,-5.0712,-5.0712,-5.0712,-5.0712,-5.0712,-5.0712,-5.0712,-5.0712,-5.0633,-5.0603,-5.0593,-5.0532,-5.05,-5.0489,-5.0489,-5.0457,-5.039,-5.0505,-5.0501,-5.0608,-5.2289,-5.2938,-5.3053,-5.3932,-5.4256,-5.4352,-5.5135,-5.5403,-5.5403,-5.5403,-5.5403,-5.5403,-5.5403,-5.5403,-5.5403,-5.5403,-5.4849,-5.4256,-5.4256,-5.3664,-5.3072,-5.2957,-5.2938,-5.2728,-5.1907,-5.1658,-5.1639,-5.1735,-5.1754,-5.2251,-5.3836,-5.4734,-5.5288,-5.5403,-5.5403,-5.5403,-5.5403,-5.5403,-5.5403,-5.5403,-5.5403,-5.5403,-5.5403,-5.5403,-5.5403,-5.5403,-5.5403,-5.5403,-5.5403,-5.5403,-5.5403,-5.5403,-5.5403,-5.5403,-5.5403,-5.5403,-5.5403,-5.5403,-5.5403,-5.5403,0.0,0.0,0.0,0.0,0.0,0.0,0.0,0.0,-4.5765,0.0,0.0,0.0,0.0,0.0,0.0,0.0,0.0,0.0,0.0,0.0,0.0,0.0,0.0,0.0,0.0,0.0,0.0,0.0,0.0,-5.0308,-5.0673,-5.0712,-5.0712,-5.0712,-5.0712,-5.0712,-5.0712,-5.0712,-5.0712,-5.0712,-5.0663,-5.0653,-5.0653,-5.0633,-5.0584,-5.0572,-5.0572,-5.0511,-5.0457,-5.0457,-5.0446,-5.0481,-5.1189,-5.1729,-5.2193,-5.3034,-5.3664,-5.4142,-5.4524,-5.4982,-5.5403,-5.5403,-5.5403,-5.5403,-5.5403,-5.5403,-5.5403,-5.5403,-5.5142,-5.4842,-5.4842,-5.4611,-5.4264,-5.3785,-5.3671,-5.3429,-5.2533,-5.2349,-5.2337,-5.2301,-5.2709,-5.3263,-5.3989,-5.4409,-5.483,-5.5326,-5.5403,-5.5403,-5.5403,-5.5403,-5.5403,-5.5403,-5.5403,-5.5403,-5.5403,-5.5403,-5.5403,-5.5403,-5.5403,-5.5403,-5.5403,-5.5403,-5.5403,-5.5403,-5.5403,-5.5403,-5.5403,-5.5403,-5.5403,-5.5403,-5.5403,-5.5403,-4.6414,0.0,0.0,0.0,0.0,0.0,0.0,0.0,0.0,0.0,0.0,0.0,0.0,0.0,0.0,0.0,0.0,0.0,0.0,0.0,0.0,0.0,0.0,0.0,0.0,0.0,0.0,0.0,-5.0346,0.0,-5.0693,-5.0712,-5.0712,-5.0712,-5.0712,-5.0712,-5.0712,-5.0712,-5.0712,-5.0712,-5.0712,-5.0712,-5.0712,-5.0712,-5.0663,-5.0623,-5.0623,-5.0593,-5.0521,-5.0521,-5.0521,-5.05,-5.05,-5.0829,-5.14,-5.2203,-5.2891,-5.3503,-5.3981,-5.4708,-5.5434,-5.5434,-5.5434,-5.5434,-5.5434,-5.5434,-5.5434,-5.5434,-5.5261,-5.5107,-5.5107,-5.4951,-5.468,-5.4077,-5.3943,-5.3759,-5.3081,-5.2935,-5.2981,-5.3164,-5.3726,-5.4223,-5.444,-5.4466,-5.467,-5.5307,-5.5396,-5.5396,-5.5403,-5.5403,-5.5403,-5.5403,-5.5403,-5.5403,-5.5403,-5.5403,-5.5403,-5.5403,-5.5403,-5.5403,-5.5403,-5.5403,-5.5403,-5.5403,-5.5403,-5.5403,-5.5403,-5.5403,-5.5403,-5.5403,-5.5403,-5.5403,0.0,0.0,0.0,-4.592,0.0,0.0,0.0,0.0,-4.58,0.0,0.0,0.0,0.0,0.0,-4.5773,-4.5708,-4.5726,0.0,0.0,0.0,0.0,0.0,0.0,0.0,0.0,0.0,0.0,0.0,-4.9433,0.0,-5.0654,-5.0712,-5.0712,-5.0712,-5.0712,-5.0712,-5.0712,-5.0712,-5.0712,-5.0712,-5.0712,-5.0712,-5.0712,-5.0712,-5.0712,-5.0702,-5.0702,-5.0653,-5.0593,-5.0593,-5.0572,-5.05,-5.05,-5.05,-5.0634,-5.1448,-5.1754,-5.2023,-5.371,-5.4821,-5.5492,-5.5492,-5.5492,-5.5492,-5.5492,-5.5492,-5.5492,-5.5492,-5.4948,-5.4346,-5.4346,-5.3702,-5.3069,-5.305,-5.3031,-5.3031,-5.2992,-5.2992,-5.3242,-5.4085,-5.4258,-5.4545,-5.532,-5.5406,-5.5383,-5.5403,-5.5396,-5.539,-5.5403,-5.5403,-5.5403,-5.5403,-5.5403,-5.5403,-5.5403,-5.5403,-5.5403,-5.5403,-5.5403,-5.5403,-5.5403,-5.5403,-5.5403,-5.5403,-5.5403,-5.5403,-5.5403,-5.5403,-5.5403,-5.5403,-5.5403,-5.5403,0.0,0.0,-4.8328,-4.6978,0.0,0.0,0.0,0.0,0.0,0.0,0.0,0.0,0.0,-4.5807,-4.5773,-4.5715,-4.5692,-4.5703,0.0,0.0,0.0,0.0,0.0,0.0,0.0,0.0,0.0,-4.9375,-4.9933,-5.0385,0.0,-5.0712,-5.0712,-5.0712,-5.0712,-5.0712,-5.0712,-5.0712,-5.0712,-5.0712,-5.0712,-5.0712,-5.0712,-5.0712,-5.0712,-5.0712,-5.0712,-5.0702,-5.0682,-5.0682,-5.0653,-5.0633,-5.0633,-5.0633,-5.0642,-5.0839,-5.1248,-5.1946,-5.369,-5.4821,-5.5504,-5.5504,-5.5504,-5.5504,-5.5504,-5.5504,-5.5504,-5.5504,-5.5347,-5.517,-5.517,-5.4962,-5.4784,-5.4784,-5.4784,-5.4773,-5.4729,-5.4718,-5.4783,-5.5055,-5.5082,-5.5178,-5.5446,-5.5516,-5.5516,-5.5463,-5.5476,-5.5456,-5.5483,-5.547,-5.547,-5.547,-5.5434,-5.5421,-5.5451,-5.547,-5.5458,-5.5409,-5.5409,-5.5403,-5.5403,-5.5403,-5.5403,-5.5403,-5.5403,-5.5403,-5.5403,-5.5403,-5.5403,-5.5403,-5.5403,-5.5403,-4.881,-4.9101,0.0,0.0,-4.7912,0.0,-4.6578,0.0,0.0,0.0,0.0,0.0,0.0,0.0,-4.5894,-4.6199,-4.5943,-4.5735,0.0,-4.5698,0.0,0.0,0.0,0.0,0.0,0.0,-4.8625,-4.8913,-4.974,-5.0366,0.0,0.0,-5.0712,-5.0712,-5.0712,-5.0712,-5.0712,-5.0712,-5.0712,-5.0712,-5.0712,-5.0712,-5.0712,-5.0712,-5.0712,-5.0712,-5.0712,-5.0712,-5.0712,-5.0712,-5.0712,-5.0712,-5.0712,-5.0712,-5.0683,-5.0594,-5.1273,-5.2395,-5.3528,-5.4641,-5.5573,-5.5573,-5.5573,-5.5573,-5.5573,-5.5573,-5.5516,-5.5228,-5.5385,-5.5572,-5.5284,-5.5451,-5.5703,-5.5703,-5.5703,-5.5692,-5.564,-5.5649,-5.5618,-5.5573,-5.5573,-5.5573,-5.5573,-5.5607,-5.5596,-5.5516,-5.5516,-5.5527,-5.5504,-5.5504,-5.5504,-5.5504,-5.5468,-5.5456,-5.5492,-5.5504,-5.548,-5.5444,-5.5444,-5.5439,-5.5428,-5.5428,-5.5415,-5.539,-5.539,-5.5409,-5.5403,-5.5403,-5.5403,-5.5403,-5.5403,-5.5403]},{"header":{"parameterUnit":"m.s-1","parameterCategory":1,"la1":30.6,"la2":29.2853,"lo1":-89.7004,"lo2":-87.6739,"dy":0.0162,"dx":0.0183,"nx":112,"ny":82,"refTime":"2023-06-29T12:00:00:Z","depth":0,"parameterNumber":3,"parameterNumberName":"V-component_of_WINDS"},"data":[0.0,0.0,0.0,0.0,0.0,0.0,0.0,0.0,0.0,0.0,0.0,0.0,0.0,0.0,0.0,0.0,0.0,0.0,0.0,0.0,0.0,0.0,0.0,0.0,0.0,0.0,0.0,0.0,0.0,0.0,0.0,0.0,0.0,0.0,0.0,0.0,0.0,0.0,0.0,0.0,0.0,0.0,0.0,0.0,0.0,0.0,0.0,0.0,0.0,0.0,0.0,0.0,0.0,0.0,0.0,0.0,0.0,0.0,0.0,0.0,0.0,0.0,0.0,0.0,0.0,0.0,0.0,0.0,0.0,0.0,0.0,0.0,0.0,0.0,0.0,0.0,0.0,0.0,0.0,0.0,0.0,0.0,0.0,0.0,0.0,0.0,0.0,0.0,0.0,0.0,0.0,-1.5228,-1.6492,-1.7279,-1.7279,-1.7279,-1.6595,-1.5014,0.0,0.0,0.0,0.0,0.0,0.0,0.0,0.0,0.0,0.0,0.0,0.0,0.0,0.0,0.0,0.0,0.0,0.0,0.0,0.0,0.0,0.0,0.0,0.0,0.0,0.0,0.0,0.0,0.0,0.0,0.0,0.0,0.0,0.0,0.0,0.0,0.0,0.0,0.0,0.0,0.0,0.0,0.0,0.0,0.0,0.0,0.0,0.0,0.0,0.0,0.0,0.0,0.0,0.0,0.0,0.0,0.0,0.0,0.0,0.0,0.0,0.0,0.0,0.0,0.0,0.0,0.0,0.0,0.0,0.0,0.0,0.0,0.0,0.0,0.0,0.0,0.0,0.0,0.0,0.0,0.0,0.0,0.0,0.0,0.0,0.0,0.0,0.0,0.0,0.0,0.0,0.0,0.0,0.0,0.0,0.0,0.0,0.0,0.0,0.0,0.0,0.0,0.0,0.0,-1.529,-1.6763,-1.7157,-1.7279,-1.7279,-1.7279,-1.6595,-1.5014,0.0,0.0,0.0,0.0,0.0,0.0,0.0,0.0,0.0,0.0,0.0,0.0,0.0,0.0,0.0,0.0,0.0,0.0,0.0,0.0,0.0,0.0,0.0,0.0,0.0,0.0,0.0,0.0,0.0,0.0,0.0,0.0,0.0,0.0,0.0,0.0,0.0,0.0,0.0,0.0,0.0,0.0,0.0,0.0,0.0,0.0,0.0,0.0,0.0,0.0,0.0,0.0,0.0,0.0,0.0,0.0,0.0,0.0,0.0,0.0,0.0,0.0,0.0,0.0,0.0,0.0,0.0,0.0,0.0,0.0,0.0,0.0,0.0,0.0,0.0,0.0,0.0,0.0,0.0,0.0,0.0,0.0,0.0,0.0,0.0,0.0,0.0,0.0,0.0,0.0,0.0,0.0,0.0,0.0,0.0,0.0,0.0,0.0,0.0,0.0,0.0,0.0,0.0,-1.4758,-1.5677,-1.7135,-1.7279,-1.7279,-1.7279,-1.7279,-1.6595,-1.5014,-1.485,0.0,0.0,0.0,0.0,0.0,0.0,0.0,0.0,0.0,0.0,0.0,0.0,0.0,0.0,0.0,0.0,0.0,0.0,0.0,0.0,0.0,0.0,0.0,0.0,0.0,0.0,0.0,0.0,0.0,0.0,0.0,0.0,0.0,0.0,0.0,0.0,0.0,0.0,0.0,0.0,0.0,0.0,0.0,0.0,0.0,0.0,0.0,0.0,0.0,0.0,0.0,0.0,0.0,0.0,0.0,0.0,0.0,0.0,0.0,0.0,0.0,0.0,0.0,0.0,0.0,0.0,0.0,0.0,0.0,0.0,0.0,0.0,0.0,0.0,0.0,0.0,0.0,0.0,0.0,0.0,0.0,0.0,0.0,0.0,0.0,0.0,0.0,0.0,0.0,0.0,0.0,0.0,0.0,0.0,0.0,0.0,0.0,0.0,0.0,0.0,0.0,0.0,-1.5511,-1.6266,-1.7194,-1.7279,-1.7279,-1.7279,-1.7279,-1.664,-1.5085,-1.5103,0.0,0.0,0.0,0.0,0.0,0.0,0.0,0.0,0.0,0.0,0.0,0.0,0.0,0.0,0.0,0.0,0.0,0.0,0.0,0.0,0.0,0.0,0.0,0.0,0.0,0.0,0.0,0.0,0.0,0.0,0.0,0.0,0.0,0.0,0.0,0.0,0.0,0.0,0.0,0.0,0.0,0.0,0.0,0.0,0.0,0.0,0.0,0.0,0.0,0.0,0.0,0.0,0.0,0.0,0.0,0.0,0.0,0.0,0.0,0.0,0.0,0.0,0.0,0.0,0.0,0.0,0.0,0.0,0.0,0.0,0.0,0.0,0.0,0.0,0.0,0.0,0.0,0.0,0.0,0.0,0.0,0.0,0.0,0.0,0.0,0.0,0.0,0.0,0.0,0.0,0.0,0.0,0.0,0.0,0.0,0.0,0.0,0.0,0.0,0.0,0.0,0.0,-1.6211,-1.7201,-1.7271,-1.7279,-1.7279,-1.7279,-1.7279,-1.6677,-1.5257,-1.5188,0.0,0.0,0.0,0.0,0.0,0.0,0.0,0.0,0.0,0.0,0.0,0.0,0.0,0.0,0.0,0.0,0.0,0.0,0.0,0.0,0.0,0.0,0.0,0.0,0.0,0.0,0.0,0.0,0.0,0.0,0.0,0.0,0.0,0.0,0.0,0.0,0.0,0.0,0.0,0.0,0.0,0.0,0.0,0.0,0.0,0.0,0.0,0.0,0.0,0.0,0.0,0.0,0.0,0.0,0.0,0.0,0.0,0.0,0.0,0.0,0.0,0.0,0.0,0.0,0.0,0.0,0.0,0.0,0.0,0.0,0.0,0.0,0.0,0.0,0.0,0.0,0.0,0.0,0.0,0.0,0.0,0.0,0.0,0.0,0.0,0.0,0.0,0.0,0.0,0.0,0.0,0.0,0.0,0.0,0.0,0.0,0.0,0.0,0.0,0.0,0.0,0.0,-1.6698,-1.7507,0.0,-1.7633,-1.7552,-1.7301,-1.7279,-1.681,-1.5651,0.0,0.0,0.0,0.0,0.0,0.0,0.0,0.0,0.0,0.0,0.0,0.0,0.0,0.0,0.0,0.0,0.0,0.0,0.0,0.0,0.0,0.0,0.0,0.0,0.0,0.0,0.0,0.0,0.0,0.0,0.0,0.0,0.0,0.0,0.0,0.0,0.0,0.0,0.0,0.0,0.0,0.0,0.0,0.0,0.0,0.0,0.0,0.0,0.0,0.0,0.0,0.0,0.0,0.0,0.0,0.0,0.0,0.0,0.0,0.0,0.0,0.0,0.0,0.0,0.0,0.0,0.0,0.0,0.0,0.0,0.0,0.0,0.0,0.0,0.0,0.0,0.0,0.0,0.0,0.0,0.0,0.0,0.0,0.0,0.0,0.0,0.0,0.0,0.0,0.0,0.0,0.0,0.0,0.0,0.0,0.0,0.0,0.0,0.0,0.0,0.0,0.0,-1.598,-1.7079,-1.7871,0.0,-1.7969,-1.7838,-1.7508,-1.7479,-1.6981,-1.5844,0.0,0.0,0.0,0.0,0.0,0.0,0.0,0.0,0.0,0.0,0.0,0.0,0.0,0.0,0.0,0.0,0.0,0.0,0.0,0.0,0.0,0.0,0.0,0.0,0.0,0.0,0.0,0.0,0.0,0.0,0.0,0.0,0.0,0.0,0.0,0.0,0.0,0.0,0.0,0.0,0.0,0.0,0.0,0.0,0.0,0.0,0.0,0.0,0.0,0.0,0.0,0.0,0.0,0.0,0.0,0.0,0.0,0.0,0.0,0.0,0.0,0.0,0.0,0.0,0.0,0.0,0.0,0.0,0.0,0.0,0.0,0.0,0.0,0.0,0.0,0.0,0.0,0.0,0.0,0.0,0.0,0.0,0.0,0.0,0.0,0.0,0.0,0.0,0.0,0.0,0.0,0.0,0.0,0.0,0.0,0.0,0.0,0.0,0.0,0.0,0.0,0.0,-1.6203,-1.7436,-1.8313,-1.8306,-1.8306,-1.8174,-1.7845,-1.7816,-1.7218,0.0,0.0,0.0,0.0,0.0,0.0,0.0,0.0,0.0,0.0,0.0,0.0,0.0,0.0,0.0,0.0,0.0,0.0,0.0,0.0,0.0,0.0,0.0,0.0,0.0,0.0,0.0,0.0,0.0,0.0,0.0,0.0,0.0,0.0,0.0,0.0,0.0,0.0,0.0,0.0,0.0,0.0,0.0,0.0,0.0,0.0,0.0,0.0,0.0,0.0,0.0,0.0,0.0,0.0,0.0,0.0,0.0,0.0,0.0,0.0,0.0,0.0,0.0,0.0,0.0,0.0,0.0,0.0,0.0,0.0,0.0,0.0,0.0,0.0,0.0,0.0,0.0,0.0,0.0,0.0,0.0,0.0,0.0,0.0,0.0,0.0,0.0,0.0,0.0,0.0,0.0,0.0,0.0,0.0,0.0,0.0,0.0,0.0,0.0,0.0,0.0,0.0,0.0,-1.6716,-1.8074,-1.8899,-1.8672,-1.865,-1.8423,-1.7867,-1.7816,-1.7322,-1.6206,0.0,0.0,0.0,0.0,0.0,0.0,0.0,0.0,0.0,0.0,0.0,0.0,0.0,0.0,0.0,0.0,0.0,0.0,0.0,0.0,0.0,0.0,0.0,0.0,0.0,0.0,0.0,0.0,0.0,0.0,0.0,0.0,0.0,0.0,0.0,0.0,0.0,0.0,0.0,0.0,0.0,0.0,0.0,0.0,0.0,0.0,0.0,0.0,0.0,0.0,0.0,0.0,0.0,0.0,0.0,0.0,0.0,0.0,0.0,0.0,0.0,0.0,0.0,0.0,0.0,0.0,0.0,0.0,0.0,0.0,0.0,0.0,0.0,0.0,0.0,0.0,0.0,0.0,0.0,0.0,0.0,0.0,0.0,0.0,0.0,0.0,0.0,0.0,0.0,0.0,0.0,0.0,0.0,0.0,0.0,0.0,0.0,0.0,0.0,0.0,0.0,0.0,-1.7064,-1.8364,-1.9199,-1.9001,-1.8986,-1.8774,-1.8247,-1.8086,-1.7623,-1.6731,0.0,0.0,0.0,0.0,0.0,0.0,0.0,0.0,0.0,0.0,0.0,0.0,0.0,0.0,0.0,0.0,0.0,0.0,0.0,0.0,0.0,0.0,0.0,0.0,0.0,0.0,0.0,0.0,0.0,0.0,0.0,0.0,0.0,0.0,0.0,0.0,0.0,0.0,0.0,0.0,0.0,0.0,0.0,0.0,0.0,0.0,0.0,0.0,0.0,0.0,0.0,0.0,0.0,0.0,0.0,0.0,0.0,0.0,0.0,0.0,0.0,0.0,0.0,0.0,0.0,0.0,0.0,0.0,0.0,0.0,0.0,0.0,0.0,0.0,0.0,0.0,0.0,0.0,0.0,0.0,0.0,0.0,0.0,0.0,0.0,0.0,0.0,0.0,0.0,0.0,0.0,0.0,0.0,0.0,0.0,0.0,0.0,0.0,0.0,0.0,0.0,0.0,-1.7221,-1.8435,-1.9279,-1.9279,-1.9279,-1.914,-1.8818,-1.8518,-1.8022,-1.7242,0.0,0.0,0.0,0.0,0.0,0.0,0.0,0.0,0.0,0.0,0.0,0.0,0.0,0.0,0.0,0.0,0.0,0.0,0.0,0.0,0.0,0.0,0.0,0.0,0.0,0.0,0.0,0.0,0.0,0.0,0.0,0.0,0.0,0.0,0.0,0.0,0.0,0.0,0.0,0.0,0.0,0.0,0.0,0.0,0.0,0.0,0.0,0.0,0.0,0.0,0.0,0.0,0.0,0.0,0.0,0.0,0.0,0.0,0.0,0.0,-1.3379,0.0,0.0,0.0,0.0,0.0,0.0,0.0,0.0,0.0,0.0,0.0,0.0,0.0,0.0,0.0,0.0,0.0,0.0,0.0,0.0,0.0,0.0,0.0,0.0,0.0,0.0,0.0,0.0,0.0,0.0,0.0,0.0,0.0,0.0,0.0,0.0,0.0,0.0,0.0,0.0,0.0,-1.7408,-1.8528,-1.9279,-1.9279,-1.9279,-1.914,-1.8818,-1.8723,-1.8265,-1.7257,0.0,0.0,0.0,0.0,0.0,0.0,0.0,0.0,0.0,0.0,0.0,0.0,0.0,0.0,0.0,0.0,0.0,0.0,0.0,0.0,0.0,0.0,0.0,0.0,0.0,0.0,0.0,0.0,0.0,0.0,0.0,0.0,0.0,0.0,0.0,0.0,0.0,0.0,0.0,0.0,0.0,0.0,0.0,0.0,0.0,0.0,0.0,0.0,0.0,0.0,0.0,0.0,0.0,0.0,0.0,0.0,0.0,0.0,0.0,0.0,0.0,-1.3592,0.0,0.0,0.0,0.0,0.0,0.0,0.0,0.0,0.0,0.0,0.0,0.0,0.0,0.0,0.0,0.0,0.0,0.0,0.0,0.0,0.0,0.0,0.0,0.0,0.0,0.0,0.0,0.0,0.0,0.0,0.0,0.0,0.0,0.0,0.0,0.0,0.0,0.0,0.0,0.0,-1.7485,-1.8572,-1.9279,-1.9279,-1.9279,-1.9206,-1.9038,-1.8877,-1.8553,-1.8023,-1.7487,0.0,0.0,0.0,0.0,0.0,0.0,0.0,0.0,0.0,0.0,0.0,0.0,0.0,0.0,0.0,0.0,0.0,0.0,0.0,0.0,0.0,0.0,0.0,0.0,0.0,0.0,0.0,0.0,0.0,0.0,0.0,0.0,0.0,0.0,0.0,0.0,0.0,0.0,0.0,0.0,0.0,0.0,0.0,0.0,0.0,0.0,0.0,0.0,0.0,0.0,0.0,0.0,0.0,0.0,-1.5217,-1.5401,-1.5399,-1.616,-1.7328,-1.5994,-1.5871,-1.6379,0.0,0.0,0.0,0.0,0.0,0.0,0.0,0.0,0.0,0.0,0.0,0.0,0.0,0.0,0.0,0.0,0.0,0.0,0.0,0.0,0.0,0.0,0.0,0.0,0.0,-1.698,-1.7138,0.0,0.0,0.0,0.0,0.0,0.0,0.0,0.0,0.0,0.0,0.0,0.0,-1.7697,-1.8634,-1.9279,-1.9279,-1.9279,-1.9279,-1.9279,-1.903,-1.8847,-1.8789,-1.7978,-1.7421,0.0,0.0,0.0,0.0,0.0,0.0,0.0,0.0,0.0,0.0,0.0,0.0,0.0,0.0,0.0,0.0,0.0,0.0,0.0,0.0,0.0,0.0,0.0,0.0,0.0,0.0,0.0,0.0,0.0,0.0,0.0,0.0,-1.078,-1.1777,0.0,0.0,0.0,0.0,0.0,0.0,0.0,0.0,0.0,0.0,0.0,0.0,0.0,0.0,-1.494,-1.5982,-1.6549,-1.6686,-1.7976,-1.8643,-1.8689,-1.8674,-1.8954,-1.9384,-1.8882,0.0,-1.6808,-1.6498,0.0,0.0,0.0,0.0,0.0,0.0,0.0,0.0,0.0,0.0,0.0,0.0,0.0,0.0,0.0,0.0,0.0,0.0,0.0,0.0,0.0,0.0,-1.8789,-1.884,-1.8942,-1.8979,0.0,-1.729,-1.5993,-1.5914,0.0,0.0,0.0,0.0,0.0,0.0,0.0,0.0,-1.8353,-1.8948,-1.9279,-1.9279,-1.9279,-1.9279,-1.9279,-1.9235,-1.9089,-1.8803,-1.8678,-1.8174,-1.7228,-1.7101,0.0,0.0,0.0,0.0,0.0,0.0,0.0,0.0,0.0,0.0,0.0,0.0,0.0,0.0,0.0,0.0,0.0,0.0,0.0,0.0,0.0,0.0,0.0,0.0,0.0,0.0,0.0,0.0,0.0,-0.9399,-1.037,-1.1031,-1.0903,-1.0525,0.0,0.0,0.0,0.0,0.0,0.0,0.0,0.0,0.0,-1.6124,-1.617,-1.673,-1.7915,-1.8342,-1.8587,-1.8752,-1.9295,-1.9664,-1.9809,-1.9825,-1.9894,-2.0018,-1.9879,-1.9413,-1.8697,-1.7582,-1.6319,-1.5039,0.0,0.0,0.0,0.0,0.0,-1.3768,-1.507,0.0,0.0,0.0,0.0,0.0,0.0,0.0,0.0,0.0,0.0,0.0,0.0,0.0,0.0,-1.9184,-1.9279,-1.9279,-1.9279,-1.8563,-1.7814,0.0,-1.7118,-1.6704,-1.6067,0.0,0.0,0.0,0.0,0.0,-1.855,-1.9029,-1.9279,-1.9279,-1.9279,-1.9279,-1.9279,-1.9279,-1.9213,-1.9074,-1.8891,-1.8583,-1.8115,-1.7524,-1.713,0.0,0.0,0.0,0.0,0.0,0.0,0.0,0.0,0.0,0.0,0.0,0.0,0.0,0.0,0.0,0.0,0.0,0.0,0.0,0.0,0.0,0.0,0.0,0.0,0.0,0.0,0.0,0.0,-1.0336,-1.0873,-1.1032,-1.1651,-1.1617,0.0,0.0,0.0,0.0,0.0,0.0,-1.5282,-1.5322,-1.6164,-1.806,-1.8217,-1.8911,-2.03,-2.0214,-2.025,-2.0431,-2.025,-2.0294,-2.0603,-2.0467,-2.0475,-2.0548,-2.038,-2.0307,-2.0227,-1.8655,-1.774,-1.7225,-1.6173,-1.5428,-1.5064,-1.5403,-1.5316,-1.5259,-1.6483,-1.668,-1.6405,-1.6252,0.0,-1.5914,-1.5545,0.0,0.0,0.0,0.0,-1.6576,-1.7679,0.0,-1.852,-1.9162,-1.9279,-1.9279,-1.9279,-1.9147,-1.8935,0.0,-1.816,-1.7618,-1.6974,0.0,0.0,0.0,0.0,-1.8662,-1.8783,-1.9081,-1.9279,-1.9279,-1.9279,-1.9279,-1.9279,-1.9279,-1.9279,-1.9279,-1.9052,-1.8877,-1.8789,-1.8012,-1.7609,-1.753,0.0,0.0,0.0,0.0,0.0,0.0,0.0,0.0,0.0,0.0,0.0,0.0,0.0,0.0,0.0,0.0,0.0,0.0,0.0,0.0,0.0,0.0,0.0,0.0,0.0,0.0,0.0,0.0,0.0,-1.3386,-1.5036,0.0,0.0,0.0,0.0,-1.4446,-1.4273,-1.5102,-1.7167,-1.7263,-1.8128,-1.9972,-2.0354,-2.0591,-2.0698,-2.1006,-2.1159,-2.1159,-2.1159,-2.132,-2.1613,-2.1306,-2.1328,-2.1591,-2.0969,-2.0698,-2.0613,-2.0234,-1.8996,-1.7343,-1.7016,-1.585,-1.4394,-1.5606,-1.5903,-1.5878,-1.7393,-1.7752,-1.7442,-1.6931,-1.641,-1.613,-1.6847,-1.6559,0.0,0.0,-1.7485,-1.7789,-1.8927,-1.9213,-1.9235,-1.9264,-1.9279,-1.9279,-1.9279,-1.8789,-1.8525,0.0,-1.9199,-1.8972,-1.8321,0.0,-1.8493,-1.826,-1.8466,-1.8783,-1.9199,-1.9309,-1.9279,-1.9279,-1.9279,-1.9279,-1.9279,-1.9279,-1.9279,-1.9279,-1.9257,-1.9111,-1.8803,-1.8723,-1.8501,-1.7971,-1.7553,0.0,0.0,0.0,0.0,0.0,0.0,0.0,0.0,0.0,0.0,0.0,0.0,0.0,0.0,0.0,0.0,0.0,0.0,0.0,0.0,0.0,0.0,0.0,0.0,0.0,0.0,0.0,0.0,-1.3396,-1.504,0.0,0.0,-1.5035,-1.5878,-1.6355,-1.7127,-1.811,-1.9448,-1.9529,-2.005,-2.1152,-2.1284,-2.1452,-2.1657,-2.1774,-2.1832,-2.1832,-2.1832,-2.1898,-2.2008,-2.1891,-2.1898,-2.2001,-2.1767,-2.1664,-2.165,-2.154,-2.0554,-1.9163,-1.9117,-1.8646,-1.8119,-1.8558,-1.8582,-1.8443,-1.8994,-1.8963,-1.8685,-1.8271,-1.8151,-1.8131,-1.8262,-1.8208,-1.8268,-1.886,-1.9034,-1.9136,-1.973,-1.9894,-1.9894,-1.9894,-1.9894,-1.9894,-1.9894,-1.9711,-1.9616,-1.985,-1.922,-1.8577,-1.8343,-1.87,-1.889,-1.8364,-1.8715,-1.9118,-1.9294,-1.9279,-1.9279,-1.9279,-1.9279,-1.9279,-1.9279,-1.9279,-1.9279,-1.9279,-1.9279,-1.9272,-1.9103,-1.8899,-1.8721,-1.8523,-1.7934,-1.7712,0.0,0.0,0.0,0.0,0.0,0.0,0.0,0.0,0.0,0.0,0.0,0.0,0.0,0.0,0.0,0.0,0.0,0.0,0.0,0.0,0.0,0.0,0.0,0.0,0.0,0.0,-1.4826,-1.3571,-1.5494,-1.6465,-1.531,-1.654,-1.7742,-1.8469,-1.9244,-2.0083,-2.0978,-2.1038,-2.1292,-2.1847,-2.1957,-2.2111,-2.233,-2.244,-2.2498,-2.2498,-2.2498,-2.2498,-2.2498,-2.2498,-2.2498,-2.2491,-2.2381,-2.233,-2.2323,-2.2228,-2.1672,-2.0818,-2.0536,-2.0327,-2.0219,-1.989,-1.9628,-1.9456,-1.9401,-1.9408,-1.9373,-1.917,-1.9323,-1.9564,-1.9408,-1.9442,-1.9645,-1.9857,-1.9923,-1.9974,-2.0124,-2.0183,-2.0183,-2.0183,-2.0183,-2.0183,-2.0183,-2.0183,-2.0183,-2.0183,-1.9542,-1.8957,-1.8957,-1.9316,-1.9434,-1.8824,-1.914,-1.9412,-1.9288,-1.931,-1.9279,-1.9279,-1.9279,-1.9279,-1.9279,-1.9273,-1.9258,-1.9324,-1.9273,-1.9265,-1.9324,-1.9059,-1.8932,-1.8879,-1.8338,-1.8072,-1.8123,0.0,0.0,0.0,0.0,0.0,0.0,0.0,0.0,0.0,0.0,0.0,0.0,0.0,0.0,0.0,0.0,0.0,0.0,0.0,0.0,0.0,0.0,0.0,-1.3767,-1.482,-1.5332,-1.4188,-1.6717,-1.8178,-1.7264,-1.8486,-1.9742,-2.0644,-2.0475,-2.076,-2.1664,-2.1711,-2.1877,-2.2213,-2.2491,-2.2637,-2.2637,-2.2952,-2.3106,-2.3106,-2.3106,-2.3106,-2.3106,-2.3106,-2.3106,-2.3091,-2.2776,-2.2576,-2.2554,-2.233,-2.2213,-2.2087,-2.1191,-2.063,-2.0209,-1.9299,-1.8967,-1.8905,-1.8684,-1.8954,-1.9436,-1.9429,-1.9814,-2.019,-2.0183,-2.0183,-2.0183,-2.019,-2.0197,-2.0197,-2.0212,-2.0212,-2.0212,-2.0212,-2.0212,-2.0212,-2.0212,-2.0212,-2.0212,-2.0212,-2.0212,-2.0205,-2.0183,-2.0183,-2.0072,-1.9695,-1.9723,0.0,-1.9263,-1.9302,-1.9346,-1.9346,-1.9331,-1.9324,-1.9324,-1.9235,-1.9234,-1.9309,-1.9228,-1.9241,-1.9316,-1.922,-1.9145,-1.9011,-1.8725,-1.8438,-1.804,0.0,0.0,0.0,0.0,0.0,0.0,0.0,0.0,0.0,0.0,0.0,0.0,0.0,0.0,0.0,0.0,0.0,0.0,0.0,0.0,0.0,0.0,-1.5632,-1.5242,-1.6458,-1.7396,-1.7495,-1.8479,-1.9086,-1.9044,-1.9805,-2.043,-2.0683,-2.1079,-2.1406,-2.1633,-2.2083,-2.2418,-2.2479,-2.2558,-2.2726,-2.2974,-2.2812,-2.2863,-2.3106,-2.3106,-2.3106,-2.3106,-2.3106,-2.3106,-2.3106,-2.2769,-2.2601,-2.2601,-2.2267,-2.2114,-2.2051,-2.1601,-2.1419,-2.1267,-2.0777,-2.0557,-2.0571,-2.0459,-2.0544,-2.0677,-2.0439,-2.0422,-2.0545,-2.0256,-2.0183,-2.0227,-2.0467,-2.0533,-2.064,-2.0881,-2.094,-2.094,-2.094,-2.094,-2.094,-2.094,-2.094,-2.094,-2.094,-2.094,-2.0794,-2.0263,-2.0183,-2.0172,-2.005,0.0,0.0,-1.9964,-1.9764,-1.9729,-1.994,-1.9725,-1.9576,-1.9576,-1.9546,-1.9479,0.0,-1.9295,-1.928,-1.9324,-1.9287,-1.914,-1.8858,-1.8878,-1.8733,0.0,0.0,0.0,0.0,0.0,0.0,0.0,0.0,0.0,0.0,0.0,0.0,0.0,0.0,0.0,0.0,0.0,0.0,0.0,0.0,0.0,0.0,-1.5844,-1.7014,-1.7245,-1.7934,-1.8535,-1.9052,-1.9327,-1.9688,-2.0107,-2.0523,-2.0827,-2.1067,-2.1456,-2.1767,-2.202,-2.2527,-2.2803,-2.2737,-2.2872,-2.2942,-2.2869,-2.2869,-2.2742,-2.2675,-2.2981,-2.2918,-2.2675,-2.2863,-2.2793,0.0,-2.2606,-2.2606,-2.2606,-2.2543,-2.2543,0.0,0.0,0.0,0.0,0.0,-2.1202,-2.0952,-2.0877,-2.0822,-2.0772,-2.063,-2.0635,-2.0712,-2.0643,-2.0647,-2.0684,-2.0874,-2.0925,-2.0969,-2.1159,-2.1211,-2.1211,-2.1211,-2.1211,-2.1211,-2.1211,-2.1211,-2.1211,-2.1211,0.0,0.0,-2.0713,-2.0647,-2.0552,-2.0383,-2.0402,-2.034,0.0,-2.0043,-1.9962,-2.0036,-1.985,-1.968,-1.9539,-1.9501,0.0,0.0,0.0,-1.9273,-1.9273,-1.9324,0.0,0.0,0.0,-1.9003,0.0,0.0,0.0,0.0,-1.801,-1.807,0.0,0.0,0.0,0.0,0.0,0.0,0.0,0.0,0.0,0.0,0.0,0.0,0.0,0.0,0.0,0.0,-1.7395,-1.8784,-1.9397,-1.9245,-1.9219,-1.9486,-1.9746,-2.0114,-2.0675,-2.0784,-2.1029,-2.1579,-2.1662,-2.1919,-2.2479,0.0,0.0,0.0,0.0,-2.3155,-2.2629,-2.2879,-2.2723,-2.216,-2.2788,-2.2704,-2.2111,-2.2425,-2.2362,-2.2104,-2.2355,-2.2487,-2.2487,-2.2793,-2.2918,-2.2897,-2.2298,-2.2067,-2.1963,-2.1719,-2.1243,0.0,0.0,0.0,0.0,-2.0482,-2.0608,-2.0888,-2.1103,-2.1211,-2.1211,-2.1211,-2.1211,-2.1211,-2.1211,-2.1211,-2.1211,-2.1211,-2.1211,-2.1211,-2.1211,-2.1211,-2.1211,-2.1211,-2.1211,-2.1211,-2.1211,-2.1211,-2.107,-2.0696,-2.07,0.0,-2.0251,-2.0236,-2.0186,-1.9955,0.0,0.0,-1.9404,-1.9331,-1.9264,-1.9309,-1.925,-1.9188,-1.9188,-1.9398,-1.9398,-1.9188,-1.9398,-1.9246,-1.8847,-1.8847,-1.8694,-1.8394,-1.8594,-1.8581,0.0,0.0,0.0,0.0,0.0,0.0,0.0,0.0,0.0,0.0,0.0,0.0,0.0,0.0,0.0,-1.6299,-1.8039,-1.9319,-1.9666,-2.0074,-2.0361,-2.0421,-2.0474,-2.0641,-2.0989,-2.1274,-2.1459,-2.1571,-2.2105,-2.23,-2.2146,-2.2683,0.0,-2.2635,-2.2635,-2.2738,-2.2944,-2.2748,-2.2595,-2.2482,0.0,0.0,-2.2111,-2.2174,-2.2174,-2.2111,-2.1859,-2.1796,-2.1796,-2.1544,-2.167,-2.1915,-2.2041,-2.1769,-2.1296,-2.1245,-2.1129,-2.1087,-2.1329,-2.1403,-2.1413,-2.1408,-2.1482,-2.1489,-2.1291,-2.1211,0.0,-2.1211,-2.1211,-2.1211,-2.1211,-2.1211,-2.1211,-2.1211,-2.1211,-2.1211,-2.1211,-2.1211,-2.1211,-2.1211,-2.1211,-2.1211,-2.1211,-2.1211,-2.1167,-2.1099,-2.1072,-2.1072,-2.0996,-2.075,-2.0659,-2.0807,-2.0386,-2.0105,-2.0038,-1.9777,-1.9509,-1.9324,-1.9265,-1.928,-1.928,-1.9339,-1.9339,-1.928,-1.9339,-1.9287,-1.9184,-1.9184,-1.9147,-1.9074,-1.8614,-1.8341,0.0,0.0,0.0,0.0,0.0,0.0,0.0,0.0,0.0,0.0,0.0,-1.2482,0.0,0.0,-1.635,-1.7802,-1.9022,-1.99,-2.0201,-2.0488,-2.0675,-2.0675,-2.0808,-2.0949,-2.1096,-2.1235,-2.142,-2.1594,-2.1937,-2.2134,-2.2178,-2.2736,-2.2937,-2.2687,-2.2888,-2.2887,-2.2729,-2.2729,-2.2504,-2.213,-2.2445,-2.2221,-2.1607,-2.1796,-2.1734,-2.1607,-2.1607,-2.1607,-2.1607,-2.1607,-2.1607,-2.1607,-2.1796,-2.1734,-2.1587,-2.1624,-2.1506,-2.1341,-2.1408,-2.1364,-2.1194,-2.1188,-2.1109,-2.1012,-2.0965,-2.0866,-2.0737,-2.0737,-2.0852,-2.096,-2.096,-2.1089,-2.1211,-2.1211,-2.1211,-2.1211,-2.1211,-2.1211,-2.1211,-2.1211,-2.1211,-2.1211,-2.1211,-2.1211,-2.1211,-2.1211,-2.1211,-2.1211,-2.1211,-2.1064,-2.096,-2.0903,-2.05,-2.0145,-2.0036,-1.9665,-1.9428,-1.9331,-1.9279,-1.9279,-1.9279,-1.9279,-1.9279,-1.9279,-1.9279,-1.9279,-1.9279,-1.9279,-1.9279,-1.9264,-1.8942,-1.8789,0.0,0.0,0.0,0.0,0.0,0.0,0.0,0.0,-1.1235,-1.206,-1.284,-1.406,-1.6159,-1.6957,-1.7848,-1.9376,-2.0013,-2.0421,-2.0722,-2.0762,-2.0762,-2.0762,-2.0969,-2.1109,-2.1109,-2.1109,-2.1256,-2.1675,-2.1702,-2.1891,-2.2472,-2.2775,-2.2957,-2.2928,-2.3133,-2.3018,-2.2505,-2.2775,-2.2504,-2.1782,-2.2302,-2.211,-2.1196,-2.1506,-2.1416,-2.1109,-2.1362,-2.1481,-2.1544,-2.1796,-2.1734,-2.1481,-2.1481,-2.167,-2.1922,-2.1922,-2.1734,-2.1447,-2.1334,-2.1128,-2.0894,-2.0896,-2.0757,-2.0596,-2.0649,-2.0557,-2.0405,-2.0399,-2.0493,-2.0666,-2.078,-2.096,-2.1146,-2.1211,-2.1211,-2.1211,-2.1211,-2.1211,-2.1211,-2.1211,-2.1211,-2.1211,-2.1211,-2.1211,-2.1211,-2.1211,-2.1211,-2.1211,-2.1211,-2.1211,-2.1108,-2.0845,-2.0523,-2.0172,-1.9852,-1.9514,-1.9279,-1.9279,-1.9279,-1.9279,-1.9279,-1.9279,-1.9279,-1.9279,-1.9279,-1.9279,-1.9279,-1.9279,-1.9279,-1.9279,-1.9279,-1.9279,-0.8209,-0.915,-1.0224,-0.9669,-1.114,-1.2688,0.0,0.0,-1.5093,-1.4702,-1.5858,-1.705,-1.7399,-1.7844,-1.8677,-2.0284,-2.0581,-2.0728,-2.1022,-2.1062,-2.1062,-2.1062,-2.1089,-2.1109,-2.1109,-2.1109,-2.1343,-2.1897,-2.1937,-2.2198,-2.2779,-2.2881,-2.2894,-2.2928,-2.2934,-2.2914,-2.2812,-2.2881,-2.2713,-2.2318,-2.2385,-2.2097,-2.1568,-2.1568,-2.142,-2.1109,-2.1172,-2.1172,-2.1172,-2.1172,-2.1172,-2.1172,-2.1172,-2.1172,-2.1235,-2.1235,-2.1172,-2.1166,-2.1447,-2.156,-2.1512,-2.1506,-2.1511,-2.1378,-2.0834,-2.0704,-2.0672,-2.0686,-2.0493,-2.045,-2.0974,-2.096,-2.0838,-2.1146,-2.1211,-2.1211,-2.1211,-2.1211,-2.1211,-2.1211,-2.1211,-2.1211,-2.1211,-2.1211,-2.1211,-2.1211,-2.1211,-2.1211,-2.1211,-2.1211,-2.1196,-2.1159,-2.0867,-2.042,-1.9867,-1.9514,-1.9279,-1.9279,-1.9279,-1.9279,-1.9279,-1.9279,-1.9279,-1.9279,-1.9279,-1.9279,-1.9279,-1.9279,-1.9279,-1.9279,-1.9279,-1.9279,-1.0953,-1.1692,0.0,0.0,-1.4326,-1.5139,-1.4429,-1.5171,-1.6128,-1.6692,-1.7411,-1.8214,-1.8952,-1.9399,-1.9898,0.0,-2.0815,-2.0969,-2.1089,-2.1109,-2.1109,-2.1109,-2.1109,-2.1109,-2.1109,-2.1109,-2.1356,-2.1944,-2.1984,-2.2238,-2.2901,-2.2928,-2.2928,-2.2928,-2.2928,-2.2928,-2.2928,-2.2928,-2.2712,-2.2418,-2.2418,-2.2205,-2.1797,-2.1695,-2.139,-2.1109,-2.1109,-2.1109,-2.1109,-2.1109,-2.1109,-2.1109,-2.1109,-2.1109,-2.1109,-2.1109,-2.1109,-2.1109,-2.1235,-2.1299,-2.1335,-2.1339,-2.1175,-2.1053,-2.0801,-2.0421,-2.018,-2.0168,-2.0236,-2.0385,-2.0622,-2.0852,-2.1024,-2.1153,-2.1211,-2.1211,-2.1211,-2.1211,-2.1211,-2.1211,-2.1211,-2.1211,-2.1211,-2.1211,-2.1211,-2.1211,-2.1211,-2.1211,-2.1211,-2.1211,-2.1137,-2.0947,-2.0801,-2.0464,-1.9874,-1.9691,-1.9529,-1.9286,-1.9279,-1.9279,-1.9279,-1.9279,-1.9279,-1.9279,-1.9279,-1.9279,-1.9279,-1.9279,-1.9279,-1.9279,-1.9279,-1.9279,-1.2307,0.0,0.0,-1.5425,-1.6755,-1.7453,-1.6319,-1.6373,-1.7026,-1.8375,-1.8538,-1.8785,-2.0103,-2.0595,-2.0795,-2.0795,-2.0969,-2.1109,-2.1109,-2.1109,-2.1109,-2.1109,-2.1109,-2.1109,-2.1109,-2.1109,-2.1356,-2.1944,-2.1984,-2.2238,-2.2901,-2.2928,-2.2928,-2.2928,-2.2928,-2.2928,-2.2928,-2.2928,-2.2752,-2.2539,-2.2539,-2.2385,-2.2091,-2.1789,-2.1501,-2.1229,-2.1149,-2.1109,-2.1109,-2.1109,-2.1109,-2.1109,-2.1109,-2.1109,-2.1109,-2.1109,-2.1109,-2.1109,-2.1109,-2.1109,-2.1109,-2.1109,-2.0969,-2.0782,-2.0702,-2.0321,-1.99,-1.9939,-1.9989,-2.0104,-2.027,-2.0565,-2.0859,-2.0917,-2.1031,-2.1089,-2.1089,-2.1146,-2.1211,-2.1211,-2.1211,-2.1211,-2.1211,-2.1211,-2.1211,-2.1211,-2.1211,-2.1211,-2.1211,-2.1211,-2.1123,-2.0881,-2.0779,-2.0501,-1.9945,-1.9813,-1.9676,-1.9294,-1.9279,-1.9279,-1.9279,-1.9279,-1.9279,-1.9279,-1.9279,-1.9279,-1.9279,-1.9279,-1.9279,-1.9279,-1.9279,-1.9279,-1.0876,0.0,-1.4161,-1.4782,-1.7369,-1.9444,-1.8295,-1.8088,-1.8533,-1.9843,-1.9328,-1.9013,-2.0407,-2.0902,-2.1096,-2.1096,-2.1102,-2.1109,-2.1109,-2.1109,-2.1109,-2.1109,-2.1109,-2.1109,0.0,-2.1109,-2.1356,-2.1944,-2.1984,-2.2238,-2.2901,-2.2928,-2.2928,-2.2928,-2.2928,-2.2928,-2.2928,-2.2928,-2.2859,-2.2846,-2.2846,-2.2692,-2.2385,-2.181,-2.1614,-2.1588,-2.1236,-2.1109,-2.1109,-2.1109,-2.1109,-2.1109,-2.1109,-2.1109,-2.1109,-2.1109,-2.1109,-2.1109,-2.1109,-2.1109,-2.1109,-2.1109,-2.1102,-2.1042,-2.0762,-2.0461,-2.0221,-2.029,-1.9879,-1.954,-2.0162,-2.004,-1.9931,-2.027,-2.0551,-2.0723,-2.0723,-2.0967,-2.1211,-2.1211,-2.1211,-2.1211,-2.1211,-2.1211,-2.1211,-2.1211,-2.1211,-2.1211,-2.1211,-2.1211,-2.1203,-2.1196,-2.0911,-2.0589,-2.0197,-1.9938,-1.9676,-1.9294,-1.9279,-1.9279,-1.9279,-1.9279,-1.9279,-1.9279,-1.9279,-1.9279,-1.9279,-1.9279,-1.9279,-1.9279,-1.9279,-1.9279,-1.2599,0.0,-1.6381,-1.7817,-1.8583,-1.9129,-1.9695,-1.9281,-1.9091,-2.0496,-1.961,-1.8665,-1.8974,-1.9239,-1.9363,-1.9174,-2.028,-2.1109,-2.1109,-2.1109,-2.1109,-2.1109,-2.1109,0.0,0.0,0.0,0.0,-2.1944,-2.1984,-2.2238,-2.2901,-2.2928,-2.2928,-2.2928,-2.2928,-2.2928,-2.2928,-2.2928,-2.2928,-2.2928,-2.2928,-2.2706,-2.2405,-2.2017,-2.1802,-2.1601,-2.1236,-2.1109,-2.1109,-2.1109,-2.1109,-2.1109,-2.1109,-2.1109,-2.1109,-2.1109,-2.1109,-2.1109,-2.1109,-2.1109,-2.1109,-2.1109,-2.1109,-2.1089,-2.0995,-2.0755,-2.0468,-2.0288,-2.0111,-2.0017,-1.9979,-2.004,-2.0162,-2.027,-2.0385,-2.0493,-2.0658,-2.078,-2.0902,-2.1153,-2.1024,-2.096,-2.1153,-2.1024,-2.096,-2.1153,-2.1211,-2.1211,-2.1211,-2.1211,-2.1211,-2.1211,-2.1115,-2.0911,-2.0589,-2.0088,-1.9661,-1.9305,-1.8917,-1.8691,-1.8691,-1.8914,-1.9026,-1.9026,-1.9227,-1.9279,-1.9279,-1.9279,-1.9279,-1.9279,-1.9279,-1.9279,-1.4412,-1.6229,-1.7849,-1.9648,-1.9785,-1.9745,-2.0641,-1.9878,-1.9394,-2.0717,-1.9331,-1.7967,-1.8272,-1.8451,-1.836,-1.7661,-1.9109,-2.0289,-2.0158,-2.0227,-2.0493,-2.1019,-2.1203,0.0,0.0,0.0,0.0,-2.1957,-2.2084,-2.2352,-2.2839,-2.2928,-2.2928,-2.2928,-2.2928,-2.2928,-2.2928,-2.2928,-2.2928,-2.2928,-2.2928,-2.2766,-2.2565,-2.2278,-2.1984,-2.1755,-2.1396,-2.1209,-2.1109,-2.1109,-2.1109,-2.1109,-2.1109,-2.1109,-2.1109,-2.1109,-2.1109,-2.1109,-2.1109,-2.1109,-2.1109,-2.1109,-2.1109,-2.1109,-2.1109,-2.0909,-2.0615,-2.0314,-2.014,-2.0028,-1.9723,-1.9822,-1.9989,-1.9989,-2.0046,-2.0155,-2.0321,-2.0493,-2.0615,-2.0859,-2.0788,-2.078,-2.0967,-2.0838,-2.0723,-2.0859,-2.0859,-2.0974,-2.1153,-2.1211,-2.1146,-2.1024,-2.1024,-2.0837,-2.0406,-2.0016,-1.9607,-1.9195,-1.8809,-1.8541,-1.8422,-1.8593,-1.8757,-1.8921,-1.9078,-1.9175,-1.9279,-1.9279,-1.9279,-1.9279,-1.9279,-1.9279,-1.6168,-1.7627,-1.8551,-2.0297,-2.0839,-2.0982,-2.1109,-1.9998,-1.9263,-2.0378,-1.8411,-1.6866,0.0,0.0,-1.7933,-1.6473,-1.7793,-1.89,-1.8662,-1.8852,-1.9551,0.0,0.0,0.0,0.0,0.0,0.0,-2.2004,0.0,-2.2545,-2.2846,-2.2928,-2.2928,-2.2928,-2.2928,-2.2928,-2.2928,-2.2928,-2.2928,-2.2928,-2.2928,-2.2928,-2.2921,-2.2552,-2.2258,-2.1971,-2.1742,-2.1383,-2.1109,-2.1109,-2.1109,-2.1109,-2.1109,-2.1109,-2.1109,-2.1109,-2.1109,-2.1109,-2.1109,-2.1109,-2.1109,-2.1109,-2.1109,-2.1109,-2.1109,-2.0915,-2.0635,-2.0321,-2.0034,-1.9753,-1.9446,-1.9424,-1.9424,-1.9424,-1.9591,-1.9758,-1.9815,-2.004,-2.027,-2.027,-2.0493,-2.0658,-2.0658,-2.0658,-2.0601,-2.0328,-2.027,-2.0507,-2.1089,-2.1153,-2.1031,-2.0716,-2.0658,-2.043,-1.9857,-1.9815,-1.9556,-1.8975,-1.8905,-1.8705,-1.8405,-1.8384,-1.8534,-1.8876,-1.8869,-1.9026,-1.9279,-1.9279,-1.9279,-1.9279,-1.9279,-1.9279,-1.7091,-1.8665,-2.0196,-2.0826,-2.0277,-1.9814,-2.0849,-1.9852,-1.8801,-1.9073,-1.7264,-1.5434,0.0,0.0,0.0,-1.5825,-1.8305,0.0,-2.041,-2.0506,0.0,-2.1396,0.0,-2.1702,-2.1857,-2.2138,0.0,0.0,-2.2372,-2.2545,-2.2846,-2.2928,-2.2928,-2.2928,-2.2928,-2.2928,-2.2928,-2.2928,-2.2928,-2.2928,-2.2928,-2.2928,-2.2921,-2.2552,-2.2258,-2.1971,-2.1742,-2.1383,-2.1109,-2.1109,-2.1109,-2.1109,-2.1109,-2.1109,-2.1109,-2.1109,-2.1109,-2.1109,-2.1109,-2.1109,-2.1109,-2.1109,-2.1109,-2.1109,-2.1109,-2.1056,-2.0889,-2.0381,-2.018,-2.0007,-1.9499,-1.9424,-1.9424,-1.9424,-1.9424,-1.9533,-1.9758,-1.9873,-1.9989,-2.027,-2.0385,-2.0328,-2.0097,-2.0213,-2.0385,-2.0328,-2.027,-2.0385,-2.0507,-2.0507,-2.0507,-2.0385,-2.0385,-2.035,-2.0215,-1.9778,-1.9415,-1.9257,-1.8612,-1.8171,-1.809,-1.808,-1.8122,-1.8233,-1.8436,-1.8698,-1.9026,-1.9026,-1.9078,-1.9279,-1.9279,-1.9279,-1.8614,-1.9896,-2.0909,-2.1069,-2.0526,-1.991,-1.9983,-1.921,-1.8198,-1.7316,-1.5754,0.0,-1.3315,0.0,0.0,0.0,0.0,0.0,-1.9923,-2.0093,-2.0482,0.0,-2.1728,0.0,-2.2151,-2.2438,-2.2612,0.0,-2.2612,-2.2686,-2.2921,-2.2928,-2.2928,-2.2928,-2.2928,-2.2928,-2.2928,-2.2928,-2.2928,-2.2928,-2.2928,-2.2928,-2.2921,-2.2692,-2.2452,-2.2158,0.0,-2.1577,-2.1296,-2.1162,-2.1109,-2.1109,-2.1109,-2.1109,-2.1109,-2.1109,-2.1109,-2.1109,-2.1109,-2.1109,-2.1109,-2.1109,-2.1109,-2.1109,-2.1109,-2.1109,-2.0982,-2.0394,-2.0173,-2.01,-1.9519,-1.9424,-1.9424,-1.9424,-1.9424,-1.9424,-1.9591,-1.9649,-1.9707,-2.004,-2.0104,-2.004,-1.9815,-1.9989,-2.0046,-1.9931,-1.9938,-1.9938,-1.9938,-2.0162,-2.0213,-2.0097,-2.0104,-2.0046,-1.9931,-1.9608,-1.9344,-1.9215,-1.8666,-1.8262,-1.8002,-1.799,-1.7994,-1.8023,-1.8174,-1.8436,-1.8921,-1.8757,-1.8907,-1.9279,-1.9175,-1.9175,-1.9885,-2.0631,-2.0786,-2.0596,-2.0563,-2.0127,-1.8632,-1.8031,-1.7325,-1.5393,0.0,-1.3234,-1.2783,-1.4229,-1.5131,-1.4091,0.0,-1.8516,-1.8759,-1.9018,-1.9779,-2.1445,-2.1837,-2.2118,-2.2445,-2.2712,-2.2928,-2.2928,-2.2928,-2.2928,-2.2928,-2.2928,-2.2928,-2.2928,-2.2928,-2.2928,-2.2928,-2.2928,-2.2928,-2.2928,-2.2928,-2.2928,-2.2928,-2.2928,-2.2699,-2.2405,0.0,0.0,-2.1594,-2.1229,-2.1109,-2.1109,-2.1109,-2.1109,-2.1109,-2.1109,-2.1109,-2.1109,-2.1109,-2.1109,-2.1109,-2.1109,-2.1109,-2.1109,-2.1109,-2.1109,-2.0982,-2.0394,-2.0173,-2.01,-1.9519,-1.9424,-1.9424,-1.9424,-1.9424,-1.9424,-1.9424,-1.9424,-1.9482,-1.97,-1.9758,-1.9758,-1.9758,-1.9758,-1.9649,-1.9424,-1.9424,-1.9424,-1.9424,-1.988,-2.0046,-1.9758,-1.9758,-1.9642,-1.9424,-1.9424,-1.9259,-1.8998,-1.8945,-1.8621,-1.8075,-1.8015,-1.7956,-1.7971,-1.7964,-1.8227,-1.8764,-1.8489,-1.8639,-1.9227,-1.8966,-1.9026,-1.8846,-1.9159,-1.9106,-1.8011,-1.759,-1.7292,-1.6757,-1.6264,0.0,0.0,-1.2723,-1.1951,-1.1168,-1.2042,-1.3367,-1.4943,0.0,0.0,0.0,0.0,-2.0999,0.0,0.0,0.0,0.0,0.0,0.0,0.0,0.0,0.0,-2.2928,-2.2928,-2.2928,-2.2928,-2.2928,-2.2928,-2.2928,-2.2928,-2.2928,-2.2928,-2.2928,-2.2928,-2.2928,-2.2928,-2.2699,-2.2405,0.0,0.0,-2.1594,-2.1229,-2.1109,-2.1109,-2.1109,-2.1109,-2.1109,-2.1109,-2.1109,-2.1109,-2.1109,-2.1109,-2.1109,-2.1109,-2.1109,-2.1109,-2.1109,-2.1109,-2.0982,-2.0394,-2.0173,-2.01,-1.9519,-1.9424,-1.9424,-1.9424,-1.9424,-1.9424,-1.9424,-1.9424,-1.9424,-1.9482,-1.9482,-1.9482,-1.9482,-1.9482,-1.9424,-1.9424,-1.9424,-1.9424,-1.9424,-1.9482,-1.954,-1.9482,-1.9482,-1.9424,-1.9424,-1.9424,-1.9403,-1.9292,-1.9058,-1.8771,-1.843,-1.8176,-1.7903,-1.7694,-1.7687,-1.7852,-1.8181,-1.8122,-1.8384,-1.8974,-1.8646,-1.8795,-1.9454,-1.9865,-1.9909,-1.9126,-1.8866,-1.8231,-1.6215,0.0,0.0,0.0,-1.1187,-1.0832,-1.0224,0.0,0.0,0.0,0.0,0.0,0.0,0.0,0.0,0.0,0.0,0.0,0.0,0.0,0.0,0.0,0.0,0.0,-2.2928,-2.2928,-2.2928,-2.2928,-2.2928,-2.2928,-2.2928,-2.2928,-2.2928,-2.2928,-2.2928,-2.2928,-2.2928,-2.2928,-2.2786,-2.2625,0.0,0.0,-2.1744,-2.1296,-2.1109,-2.1109,-2.1109,-2.1109,-2.1109,-2.1109,-2.1109,-2.1109,-2.1109,-2.1109,-2.1109,-2.1109,-2.1109,-2.1109,-2.1109,-2.1109,-2.0982,-2.0394,-2.0173,-2.01,-1.9519,-1.9424,-1.9424,-1.9424,-1.9424,-1.9424,-1.9424,-1.9424,-1.9424,-1.9424,-1.9424,-1.9424,-1.9424,-1.9424,-1.9424,-1.9424,-1.9424,-1.9424,-1.9424,-1.9424,-1.9424,-1.9424,-1.9424,-1.9424,-1.9424,-1.9424,-1.9424,-1.9424,-1.9232,-1.9018,-1.8731,-1.843,-1.8136,-1.7829,-1.7662,-1.7747,-1.8016,-1.7859,-1.8062,-1.8646,-1.8331,-1.8429,-1.9364,-2.0112,-2.0354,-1.9816,-1.9651,-1.8822,-1.5524,-1.4559,0.0,0.0,-0.9829,-0.9804,-0.9634,0.0,-1.1951,0.0,0.0,0.0,0.0,0.0,0.0,0.0,0.0,0.0,0.0,0.0,0.0,0.0,0.0,0.0,0.0,-2.2928,-2.2928,-2.2928,-2.2928,-2.2928,-2.2928,-2.2928,-2.2928,-2.2928,-2.2928,-2.2928,-2.2928,-2.2928,-2.2826,-2.2739,0.0,0.0,0.0,-2.1323,-2.1109,-2.1109,-2.1109,-2.1109,-2.1109,-2.1109,-2.1109,-2.1109,-2.1109,-2.1109,-2.1109,-2.1109,-2.1109,-2.1109,-2.1109,-2.1109,-2.0982,-2.0394,-2.0173,-2.01,-1.9519,-1.9424,-1.9424,-1.9424,-1.9424,-1.9424,-1.9424,-1.9424,-1.9424,-1.9424,-1.9424,-1.9424,-1.9424,-1.9424,-1.9424,-1.9424,-1.9424,-1.9424,-1.9424,-1.9424,-1.9424,-1.9424,-1.9424,-1.9424,-1.9424,-1.9424,-1.9424,-1.9424,-1.9424,-1.9232,-1.8931,-1.8644,-1.835,-1.8002,-1.7742,-1.7687,-1.7911,-1.7687,-1.7845,-1.8325,-1.8069,-1.8115,-1.642,-1.7555,-1.8133,-1.687,-1.638,-1.5715,-1.36,0.0,0.0,-0.9728,-0.9032,-0.8947,-0.9302,-0.9431,-1.0035,-1.1797,-1.2657,-1.4124,0.0,0.0,0.0,0.0,0.0,0.0,0.0,0.0,0.0,0.0,0.0,0.0,0.0,-2.2928,-2.2928,-2.2928,-2.2928,-2.2928,-2.2928,-2.2928,-2.2928,-2.2928,-2.2928,-2.2928,-2.2928,-2.2928,-2.2712,-2.2438,0.0,0.0,0.0,-2.1243,-2.1109,-2.1109,-2.1109,-2.1109,-2.1109,-2.1109,-2.1109,-2.1109,-2.1109,-2.1109,-2.1109,-2.1109,-2.1109,-2.1109,-2.1109,-2.1109,-2.0982,-2.0394,-2.0173,-2.01,-1.9519,-1.9424,-1.9424,-1.9424,-1.9424,-1.9424,-1.9424,-1.9424,-1.9424,-1.9424,-1.9424,-1.9424,-1.9424,-1.9424,-1.9424,-1.9424,-1.9424,-1.9424,-1.9424,-1.9424,-1.9424,-1.9424,-1.9424,-1.9424,-1.9424,-1.9424,-1.9424,-1.9424,-1.9424,-1.9232,-1.8931,-1.8644,-1.835,-1.8002,-1.7742,-1.7635,-1.7635,-1.7635,-1.7747,-1.8016,-1.7747,-1.7898,-1.5531,-1.6536,-1.7066,-1.6946,-1.6131,-1.5051,-1.3684,0.0,-1.115,-0.9322,-0.8816,-0.8746,-0.891,-0.8762,-0.9049,-1.0252,-1.1305,0.0,0.0,0.0,0.0,0.0,0.0,0.0,0.0,0.0,0.0,0.0,0.0,0.0,0.0,0.0,-2.2928,-2.2928,-2.2928,-2.2928,-2.2928,-2.2928,-2.2928,-2.2928,-2.2928,-2.2928,-2.2921,-2.2679,-2.2532,-2.2392,0.0,0.0,0.0,-2.1229,-2.1109,-2.1109,-2.1109,-2.1109,-2.1109,-2.1109,-2.1109,-2.1109,-2.1109,-2.1109,-2.1109,-2.1109,-2.1109,-2.1109,-2.1109,-2.1109,-2.0982,-2.0394,-2.0173,-2.01,-1.9519,-1.9424,-1.9424,-1.9424,-1.9424,-1.9424,-1.9424,-1.9424,-1.9424,-1.9424,-1.9424,-1.9424,-1.9424,-1.9424,-1.9424,-1.9424,-1.9424,-1.9424,-1.9424,-1.9424,-1.9424,-1.9424,-1.9424,-1.9424,-1.9424,-1.9424,-1.9424,-1.9424,-1.9424,-1.9319,-1.9199,-1.8905,-1.8611,-1.8323,-1.8016,-1.7769,-1.7582,-1.7582,-1.7635,-1.7747,-1.7635,-1.7687,-1.4236,-1.5306,-1.6122,-1.6605,-1.5799,-1.4609,0.0,0.0,-1.0703,-0.9042,-0.8571,-0.8516,-0.8565,-0.8371,-0.8427,-0.9064,-1.0006,-1.1113,-1.2469,0.0,0.0,0.0,0.0,0.0,0.0,0.0,0.0,0.0,0.0,0.0,0.0,0.0,-2.2441,-2.2859,-2.2928,-2.2928,-2.2928,-2.2928,-2.2928,-2.2928,-2.2928,-2.2819,-2.2726,-2.2512,-2.2325,0.0,0.0,0.0,0.0,-2.1196,-2.1109,-2.1109,-2.1109,-2.1109,-2.1046,-2.0652,-2.0462,-2.0462,-2.0462,-2.0462,-2.0526,-2.0976,-2.1109,-2.1109,-2.1109,-2.1109,-2.0982,-2.0394,-2.0107,-1.9887,-1.9472,-1.9424,-1.9424,-1.9424,-1.9424,-1.9424,-1.9424,-1.9424,-1.9424,-1.9424,-1.9424,-1.9424,-1.9424,-1.9424,-1.9424,-1.9424,-1.9424,-1.9424,-1.9424,-1.9424,-1.9424,-1.9424,-1.9424,-1.9424,-1.9424,-1.9424,-1.9424,-1.9424,-1.9424,-1.9424,-1.9424,-1.9085,-1.8784,-1.8497,-1.8142,-1.7896,-1.7582,-1.7582,-1.7582,-1.7582,-1.7582,-1.7582,-1.2035,-1.3608,-1.5023,-1.5017,-1.4731,-1.3941,0.0,0.0,-1.0446,-0.8742,-0.8187,-0.8089,-0.8241,-0.8128,-0.8167,-0.8635,-0.8742,-0.9486,0.0,0.0,0.0,0.0,0.0,0.0,0.0,0.0,0.0,0.0,0.0,0.0,0.0,0.0,-2.1327,-2.2859,-2.2928,-2.2928,-2.2928,-2.2928,-2.2928,-2.2928,-2.2928,-2.2706,-2.2425,-2.2418,0.0,0.0,0.0,0.0,0.0,-2.1109,-2.1109,-2.1109,-2.1109,-2.1109,-2.0912,-1.9553,-1.9036,-1.9036,-1.9036,-1.9036,-1.9234,-2.0652,-2.1109,-2.1109,-2.1109,-2.1109,-2.0982,-2.0394,-1.982,-1.943,-1.9424,-1.9424,-1.9424,-1.9424,-1.9424,-1.9424,-1.9424,-1.9424,-1.9424,-1.9424,-1.9424,-1.9424,-1.9424,-1.9424,-1.9424,-1.9424,-1.9424,-1.9424,-1.9424,-1.9424,-1.9424,-1.9424,-1.9424,-1.9424,-1.9424,-1.9424,-1.9424,-1.9424,-1.9424,-1.9424,-1.9424,-1.9085,-1.8784,-1.8497,-1.8142,-1.7896,-1.7582,-1.7582,-1.7582,-1.7582,-1.7582,-1.7582,-1.0127,-1.0773,-1.1407,-1.2059,-1.13,-1.0408,-1.0685,0.0,-0.8368,-0.7939,-0.7793,-0.7759,-0.7805,-0.7824,-0.8047,-0.8615,-0.8519,0.0,0.0,0.0,0.0,0.0,0.0,0.0,0.0,0.0,0.0,0.0,0.0,0.0,0.0,0.0,0.0,-2.1327,-2.2372,-2.2928,-2.2928,-2.2928,-2.2759,-2.2559,-2.2559,-2.2405,-2.2118,-2.1917,0.0,0.0,0.0,0.0,0.0,-2.1109,-2.1109,-2.1109,-2.1109,-2.0526,-1.975,-2.0265,-1.9814,-1.9164,-2.0075,-2.0462,-2.0526,-2.0976,-2.1109,-2.1109,-2.1109,-2.1109,-2.0982,-2.0394,-1.996,-1.9619,-1.9477,-1.9424,-1.9424,-1.9424,-1.9424,-1.9424,-1.9424,-1.9424,-1.9424,-1.9424,-1.9424,-1.9127,-1.8227,-1.8823,-1.9127,-1.8227,-1.811,-1.811,-1.811,-1.7343,-1.6815,-1.6815,-1.6815,-1.7167,-1.8052,-1.8887,-1.901,-1.8169,-1.811,-1.811,-1.811,-1.7149,-1.6431,-1.6053,-1.5966,-1.6095,-1.6452,-1.6452,-1.6829,-1.7582,-1.7582,-1.7582,-0.8826,-0.9164,-0.9415,-1.0004,-0.9298,0.0,0.0,-0.8353,-0.742,-0.7465,-0.7543,-0.7596,-0.7596,-0.7705,-0.7975,-0.8531,-0.835,0.0,0.0,0.0,0.0,0.0,0.0,0.0,0.0,0.0,0.0,0.0,0.0,0.0,0.0,0.0,0.0,-2.0484,-2.2039,-2.2928,-2.2928,-2.2752,-2.2605,-2.2418,-2.2305,-2.2104,-2.1817,0.0,0.0,0.0,0.0,0.0,0.0,-2.1109,-2.1109,-2.1109,-2.1109,-2.0589,-1.9814,-2.0202,-1.9744,-1.91,-2.0005,-2.0335,-2.0399,-2.0912,-2.1109,-2.0982,-2.0462,-2.0581,-2.0848,-2.0368,-2.0027,-1.9608,-1.8901,-1.8706,-1.8706,-1.8706,-1.8706,-1.8706,-1.8706,-1.8706,-1.8532,-1.8058,-1.7941,-1.7701,-1.6926,-1.7461,-1.7701,-1.6926,-1.6809,-1.6809,-1.6809,-1.6101,-1.5575,-1.5575,-1.5575,-1.5747,-1.6037,-1.7226,-1.7642,-1.6809,-1.6809,-1.6809,-1.6809,-1.5954,-1.531,-1.492,-1.4823,-1.4911,-1.5215,-1.5695,-1.6505,-1.7582,-1.7582,-1.7582,0.0,-0.8527,-0.8758,0.0,0.0,0.0,0.0,-0.7707,0.0,-0.7208,-0.7391,-0.7547,-0.7547,-0.7696,-0.7933,-0.8351,0.0,0.0,0.0,0.0,0.0,0.0,0.0,0.0,0.0,0.0,0.0,0.0,0.0,0.0,0.0,0.0,0.0,0.0,-2.1965,-2.2867,-2.2867,-2.2525,-2.2378,-2.2352,-2.2084,-2.1804,-2.1581,0.0,0.0,0.0,0.0,0.0,0.0,-2.1109,-2.1109,-2.1109,-2.1109,-2.1046,-2.0786,-1.9616,-1.9106,-1.9036,-1.91,-1.917,-1.9361,-2.0589,-2.0912,-2.0589,-1.9234,-1.9638,-2.0518,-2.0036,-1.9746,-1.9213,-1.7734,-1.7349,-1.7331,-1.7331,-1.7331,-1.7331,-1.7331,-1.7331,-1.6979,-1.5806,-1.5575,-1.5575,-1.5451,-1.5515,-1.5575,-1.5451,-1.5456,-1.5456,-1.5456,-1.5397,-1.5337,-1.5337,-1.5337,-1.4857,-1.367,-1.4798,-1.5575,-1.5451,-1.544,-1.5429,-1.5429,-1.5136,-1.4896,-1.4611,-1.4478,-1.4298,-1.397,-1.5215,-1.6346,-1.7364,-1.7364,-1.7417,-0.7592,0.0,-0.7486,-0.7311,-0.7326,-0.7366,0.0,-0.7146,-0.6957,-0.6895,-0.7092,-0.7241,-0.7045,-0.7372,-0.7674,0.0,0.0,0.0,0.0,0.0,0.0,0.0,0.0,0.0,0.0,0.0,0.0,0.0,0.0,0.0,0.0,0.0,0.0,0.0,-2.2018,-2.2191,-2.2191,-2.2124,-2.1977,-2.1822,-2.1748,-2.1503,-2.1216,0.0,0.0,0.0,0.0,0.0,-2.1109,-2.1109,-2.1109,-2.1109,-2.1109,-2.0462,-1.9553,-2.0329,-1.9941,-1.917,-2.0202,-2.0589,-2.0462,-1.975,-1.878,-1.7882,-1.7555,-1.8355,-1.9145,-1.7742,-1.7236,-1.6986,-1.637,-1.6116,-1.6042,-1.6042,-1.6042,-1.6042,-1.6042,-1.6042,-1.5983,-1.5628,-1.5575,-1.5273,-1.4321,-1.4976,-1.5273,-1.4321,-1.4143,-1.4143,-1.4143,-1.332,-1.2668,-1.2668,-1.2668,-1.2548,-1.2251,-1.4326,-1.5154,-1.4202,-1.3991,-1.3903,-1.3903,-1.2767,-1.2113,-1.1924,-1.2602,-1.2896,-1.2792,-1.3976,-1.4674,-1.4936,-1.4936,-1.5429,-0.7149,-0.7146,-0.7051,-0.6969,-0.701,-0.7067,-0.6974,-0.6842,-0.6756,-0.662,-0.6802,-0.6992,-0.6842,0.0,0.0,0.0,0.0,0.0,0.0,0.0,0.0,0.0,0.0,0.0,0.0,0.0,0.0,0.0,0.0,0.0,0.0,0.0,0.0,0.0,0.0,-2.0576,-2.1984,-2.185,-2.171,-2.1614,-2.1416,-2.1263,-2.1109,0.0,0.0,0.0,0.0,0.0,-2.1109,-2.1109,-2.1109,-2.1109,-2.1109,-2.0652,-2.0075,-2.0849,-2.0589,-2.0068,-2.0849,-2.0659,-1.9877,-1.8524,-1.7619,-1.691,-1.6203,-1.6522,-1.7055,-1.6625,-1.6465,-1.6163,-1.5212,-1.4857,-1.4811,-1.4764,-1.4738,-1.4738,-1.4738,-1.4738,-1.456,-1.3973,-1.3854,-1.3614,-1.296,-1.3375,-1.3619,-1.29,-1.2844,-1.2844,-1.2844,-1.2251,-1.1776,-1.1776,-1.1776,-1.1744,-1.1658,-1.2944,-1.3409,-1.2702,-1.2516,-1.2409,-1.2409,-1.1544,-1.1025,-1.0846,-1.1338,-1.1878,-1.2417,-1.3009,-1.3599,-1.4078,-1.4078,-1.4728,-0.6836,-0.7002,-0.7156,-0.7064,-0.7054,-0.7002,-0.6742,-0.6725,-0.6712,-0.6384,-0.6593,-0.6828,-0.6915,-0.7547,0.0,0.0,0.0,0.0,0.0,0.0,0.0,0.0,0.0,0.0,0.0,0.0,0.0,0.0,0.0,0.0,0.0,0.0,0.0,0.0,-1.7341,-1.869,-2.1516,-2.1344,-2.129,-2.1547,-2.1229,-2.1109,-2.1109,-2.1109,0.0,0.0,0.0,0.0,-2.1109,-2.1109,-2.1109,-2.1109,-2.1109,-2.1109,-2.1109,-2.1109,-2.1109,-2.1046,-2.0849,-1.9877,-1.846,-1.7103,-1.6522,-1.6138,-1.4907,-1.4586,-1.4744,-1.5647,-1.5927,-1.5536,-1.4061,-1.3619,-1.3527,-1.3412,-1.343,-1.343,-1.343,-1.343,-1.3075,-1.2014,-1.1776,-1.1776,-1.1776,-1.1776,-1.1776,-1.1776,-1.1776,-1.1776,-1.1776,-1.1776,-1.1776,-1.1776,-1.1776,-1.1703,-1.1516,-1.1472,-1.1447,-1.1419,-1.1273,-1.1171,-1.1143,-1.1001,-1.085,-1.0692,-1.0692,-1.1177,-1.2146,-1.2146,-1.263,-1.3599,-1.376,-1.446,-0.6836,-0.7154,-0.7422,-0.6943,-0.6836,-0.6875,-0.693,-0.6792,-0.6598,-0.6554,-0.6766,-0.7048,0.0,-0.7184,-0.7286,0.0,0.0,0.0,0.0,0.0,0.0,0.0,0.0,0.0,0.0,0.0,0.0,0.0,0.0,0.0,0.0,0.0,0.0,0.0,0.0,-1.7826,-1.942,-1.9441,-2.0004,-2.1176,-2.1129,-2.1109,-2.1109,-2.1109,-2.1109,0.0,0.0,-2.1109,-2.1109,-2.1109,-2.1109,-2.1109,-2.1109,-2.1109,-2.1109,-2.1109,-2.1109,-2.0912,-1.975,-1.846,-1.7103,-1.5684,-1.439,-1.342,-1.3161,-1.3095,-1.3157,-1.332,-1.3152,-1.2893,-1.2591,-1.2345,-1.2107,-1.2078,-1.2074,-1.2074,-1.2074,-1.2074,-1.2014,-1.1837,-1.1776,-1.1776,-1.1776,-1.1776,-1.1776,-1.1776,-1.1776,-1.1776,-1.1776,-1.1776,-1.1776,-1.1776,-1.1776,-1.1703,-1.1516,-1.1354,-1.1204,-1.1062,-1.1025,-1.0936,-1.0777,-1.0749,-1.072,-1.0692,-1.0692,-1.0798,-1.0962,-1.0962,-1.1072,-1.1232,-1.22,-1.3275,-0.6966,-0.7155,-0.7314,-0.725,-0.7326,-0.7411,-0.7388,-0.7363,-0.7232,-0.7036,-0.7158,0.0,0.0,0.0,0.0,0.0,0.0,0.0,0.0,0.0,0.0,0.0,0.0,0.0,0.0,0.0,0.0,0.0,0.0,0.0,0.0,0.0,0.0,0.0,0.0,0.0,-1.7876,-1.8652,-1.9686,-2.1109,-2.1109,-2.1109,-2.1109,-2.1109,-2.1109,0.0,0.0,-2.1109,-2.1109,-2.1109,-2.1109,-2.1109,-2.1109,-2.1109,-2.0982,-2.0265,-1.9941,-1.968,-1.749,-1.6392,-1.5619,-1.4198,-1.3354,-1.277,-1.277,-1.277,-1.277,-1.277,-1.2649,-1.2426,-1.2328,-1.2113,-1.189,-1.1797,-1.1776,-1.1776,-1.1776,-1.1776,-1.1776,-1.1776,-1.1776,-1.1776,-1.1776,-1.1776,-1.1776,-1.1776,-1.1776,-1.1776,-1.1776,-1.1776,-1.1776,-1.1776,-1.1776,-1.1663,-1.1374,-1.1273,-1.1106,-1.0838,-1.0822,-1.0781,-1.0696,-1.0692,-1.0692,-1.0692,-1.0692,-1.0692,-1.0692,-1.0692,-1.0692,-1.0692,-1.1232,-1.2413,-0.7054,-0.7104,-0.726,-0.7446,-0.7569,-0.767,-0.7766,-0.7725,-0.7598,-0.7491,-0.7522,0.0,0.0,0.0,0.0,0.0,0.0,0.0,0.0,0.0,0.0,0.0,0.0,0.0,0.0,0.0,0.0,0.0,0.0,0.0,0.0,0.0,0.0,0.0,0.0,0.0,-1.6974,-1.8326,-1.9686,-2.1109,-2.1109,-2.1109,-2.1109,-2.1109,-2.1109,-2.1109,-2.1109,-2.1109,-2.1109,-2.1109,-2.1109,-2.1109,-2.1109,-2.0912,-2.0462,-1.9425,-1.878,-1.8197,-1.5749,-1.4907,-1.4651,-1.3293,-1.277,-1.277,-1.277,-1.277,-1.2762,-1.2783,-1.2641,-1.2475,-1.2341,-1.2138,-1.1939,-1.1809,-1.1776,-1.1776,-1.1776,-1.1776,-1.1776,-1.1776,-1.1776,-1.1776,-1.1776,-1.1776,-1.1776,-1.1776,-1.1776,-1.1776,-1.1776,-1.1776,-1.1776,-1.1776,-1.1776,-1.1626,-1.1252,-1.1187,-1.1029,-1.0712,-1.0692,-1.0692,-1.0692,-1.0692,-1.0692,-1.0692,-1.0692,-1.0692,-1.0692,-1.0692,-1.0692,-1.0692,-1.0962,-1.2041,-0.6881,-0.7171,-0.7523,-0.7305,-0.689,-0.6758,-0.7766,-0.7446,-0.7132,-0.7756,-0.7843,0.0,0.0,0.0,0.0,0.0,0.0,0.0,0.0,0.0,0.0,0.0,0.0,0.0,0.0,0.0,0.0,0.0,0.0,0.0,0.0,0.0,0.0,0.0,0.0,0.0,-1.6974,-1.8326,-1.9686,-2.1109,-2.1109,-2.1109,-2.1109,-2.1109,-2.1109,-2.1109,-2.1109,-2.1109,-2.1109,-2.1109,-2.1109,-2.1109,-2.1109,-2.0329,-1.9164,-1.9036,-1.8203,-1.6915,-1.5424,-1.4907,-1.4651,-1.3293,-1.277,-1.277,-1.277,-1.277,-1.28,-1.2629,-1.2458,-1.232,-1.2312,-1.2052,-1.1792,-1.178,-1.1776,-1.1776,-1.1776,-1.1776,-1.1776,-1.1776,-1.1776,-1.1776,-1.1776,-1.1776,-1.1776,-1.1776,-1.1776,-1.1776,-1.1776,-1.1776,-1.1776,-1.1776,-1.1776,-1.1626,-1.1252,-1.1078,-1.0903,-1.0704,-1.0692,-1.0692,-1.0692,-1.0692,-1.0692,-1.0692,-1.0692,-1.0692,-1.0692,-1.0692,-1.0692,-1.0747,-1.1769,-1.2363,-0.701,-0.7275,-0.76,-0.7456,-0.718,-0.7151,-0.8076,-0.8145,-0.8001,-0.8024,-0.8286,-0.8535,0.0,0.0,0.0,0.0,0.0,0.0,0.0,0.0,0.0,0.0,0.0,0.0,0.0,0.0,0.0,0.0,0.0,0.0,0.0,0.0,0.0,0.0,0.0,0.0,0.0,-1.7039,-1.846,-1.9814,-2.0659,-2.1109,-2.1109,-2.1109,-2.1109,-2.1109,-2.1109,-2.1109,-2.1109,-2.1109,-2.1109,-2.1109,-2.1109,-2.0265,-1.8908,-1.8069,-1.691,-1.5489,-1.4067,-1.3613,-1.3486,-1.2964,-1.277,-1.277,-1.277,-1.277,-1.28,-1.2617,-1.2438,-1.228,-1.2162,-1.1955,-1.1776,-1.1776,-1.1776,-1.1776,-1.1776,-1.1776,-1.1776,-1.1776,-1.1776,-1.1776,-1.1776,-1.1776,-1.1776,-1.1776,-1.1776,-1.1776,-1.1776,-1.1776,-1.1776,-1.1776,-1.1675,-1.15,-1.1244,-1.1066,-1.0891,-1.0704,-1.0692,-1.0692,-1.0692,-1.0692,-1.0692,-1.0692,-1.0692,-1.0692,-1.0692,-1.0692,-1.0692,-1.0692,-1.1122,-1.1714,-0.724,-0.7438,-0.7621,-0.7716,-0.7556,-0.7562,-0.8357,-0.844,-0.8381,-0.8454,-0.8698,-0.8897,-0.8942,0.0,0.0,0.0,0.0,0.0,0.0,0.0,0.0,0.0,0.0,0.0,0.0,0.0,0.0,0.0,0.0,0.0,0.0,0.0,0.0,0.0,0.0,0.0,0.0,-1.6333,-1.749,-1.8396,-1.9361,-2.0272,-2.1109,-2.1109,-2.1109,-2.1109,-2.1109,-2.1109,-2.1109,-2.1109,-2.1109,-2.1046,-2.0589,-1.9623,-1.8197,-1.6845,-1.5424,-1.4067,-1.3161,-1.277,-1.277,-1.277,-1.277,-1.277,-1.277,-1.2795,-1.2714,-1.2532,-1.2357,-1.2178,-1.1996,-1.1861,-1.1776,-1.1776,-1.1776,-1.1776,-1.1776,-1.1776,-1.1776,-1.1776,-1.1776,-1.1776,-1.1776,-1.1776,-1.1776,-1.1776,-1.1776,-1.1776,-1.1776,-1.1776,-1.1776,-1.1776,-1.1663,-1.1512,-1.1325,-1.1147,-1.0972,-1.0789,-1.0724,-1.0692,-1.0692,-1.0692,-1.0692,-1.0692,-1.0692,-1.0692,-1.0692,-1.0692,-1.0692,-1.0692,-1.0692,-1.1126,-0.7597,-0.76,-0.7675,-0.7914,-0.7926,-0.7933,-0.8381,-0.8105,-0.8006,-0.9005,-0.8987,-0.882,-0.882,0.0,0.0,0.0,0.0,0.0,0.0,0.0,0.0,0.0,0.0,0.0,0.0,0.0,0.0,0.0,0.0,0.0,0.0,0.0,0.0,0.0,0.0,0.0,0.0,-1.6263,-1.6969,-1.6974,-1.6974,-1.8396,-2.1046,-2.1046,-2.1046,-2.1046,-2.1109,-2.1109,-2.1109,-2.1109,-2.1109,-2.0919,-1.9553,-1.8133,-1.678,-1.5424,-1.4002,-1.277,-1.277,-1.277,-1.277,-1.277,-1.277,-1.277,-1.277,-1.2706,-1.2588,-1.2353,-1.217,-1.1987,-1.1821,-1.1776,-1.1776,-1.1776,-1.1776,-1.1776,-1.1776,-1.1776,-1.1776,-1.1776,-1.1776,-1.1776,-1.1776,-1.1776,-1.1776,-1.1776,-1.1776,-1.1776,-1.1776,-1.1776,-1.1776,-1.1776,-1.1776,-1.1703,-1.1516,-1.133,-1.1151,-1.1037,-1.0794,-1.0692,-1.0692,-1.0692,-1.0692,-1.0692,-1.0692,-1.0692,-1.0692,-1.0692,-1.0692,-1.0692,-1.0692,-1.0692,-0.723,-0.754,0.0,-0.776,0.0,0.0,0.0,-0.8447,-0.8558,0.0,-0.9144,-0.8913,-0.8913,0.0,0.0,0.0,0.0,0.0,0.0,0.0,0.0,0.0,0.0,0.0,0.0,0.0,0.0,0.0,0.0,0.0,0.0,0.0,0.0,0.0,0.0,0.0,0.0,0.0,-1.423,-1.5317,-1.5317,-1.63,-1.8267,-1.917,-1.9106,-1.8332,-2.0272,-2.0526,-1.9616,-1.9616,-1.9616,-1.9489,-1.8133,-1.6716,-1.5494,-1.5038,-1.4002,-1.277,-1.277,-1.277,-1.277,-1.277,-1.2751,-1.2645,-1.2645,-1.2523,-1.2345,-1.2162,-1.2073,-1.1987,-1.1821,-1.1776,-1.1776,-1.1776,-1.1776,-1.1776,-1.1776,-1.1776,-1.1776,-1.1776,-1.1776,-1.1776,-1.1776,-1.1776,-1.1776,-1.1776,-1.1776,-1.1776,-1.1776,-1.1776,-1.1776,-1.1776,-1.1776,-1.1703,-1.1516,-1.133,-1.1151,-1.1037,-1.0794,-1.0692,-1.0692,-1.0692,-1.0692,-1.0692,-1.0692,-1.0692,-1.0692,-1.0692,-1.0692,-1.0692,-1.0692,-1.0692,-0.7611,-0.7803,0.0,-0.8116,-0.8309,-0.8513,-0.8635,0.0,0.0,0.0,0.0,-0.9321,0.0,0.0,0.0,0.0,0.0,0.0,0.0,0.0,0.0,0.0,0.0,0.0,0.0,0.0,0.0,0.0,0.0,0.0,0.0,0.0,0.0,0.0,0.0,0.0,0.0,0.0,0.0,-1.3716,-1.3716,-1.4162,-1.5179,-1.7273,-1.7748,-1.7103,-1.8722,-1.8972,-1.8203,-1.8203,-1.8203,-1.8069,-1.6716,-1.5619,-1.4842,-1.4263,-1.3551,-1.277,-1.277,-1.2787,-1.2726,-1.2726,-1.2609,-1.2462,-1.2462,-1.2337,-1.2174,-1.1999,-1.1979,-1.1906,-1.1805,-1.1776,-1.1776,-1.1776,-1.1776,-1.1776,-1.1776,-1.1776,-1.1776,-1.1776,-1.1776,-1.1776,-1.1776,-1.1776,-1.1776,-1.1776,-1.1776,-1.1776,-1.1776,-1.1776,-1.1776,-1.1776,-1.1776,-1.1732,-1.1618,-1.137,-1.1179,-1.1078,-1.0834,-1.0692,-1.0692,-1.0692,-1.0692,-1.0692,-1.0692,-1.0692,-1.0692,-1.0692,-1.0692,-1.0692,-1.0692,-1.0692,-0.8255,-0.8245,0.0,-0.8706,-0.871,0.0,-0.8821,-0.9157,-0.9364,-0.9378,0.0,0.0,0.0,0.0,0.0,0.0,0.0,0.0,0.0,0.0,0.0,0.0,0.0,0.0,0.0,0.0,0.0,0.0,0.0,0.0,0.0,0.0,0.0,0.0,0.0,0.0,0.0,0.0,0.0,0.0,-1.228,-1.2288,-1.238,-1.5381,-1.6861,-1.6947,-1.684,-1.691,-1.6974,-1.685,-1.678,-1.6651,-1.5233,-1.4702,-1.4558,-1.3267,-1.2738,-1.2722,-1.2722,-1.2678,-1.254,-1.254,-1.2422,-1.228,-1.228,-1.2154,-1.2008,-1.2008,-1.1894,-1.1776,-1.1776,-1.1776,-1.1776,-1.1776,-1.1776,-1.1776,-1.1776,-1.1776,-1.1776,-1.1776,-1.1776,-1.1776,-1.1776,-1.1776,-1.1776,-1.1776,-1.1776,-1.1776,-1.1776,-1.1776,-1.1776,-1.1776,-1.1776,-1.1776,-1.1776,-1.1435,-1.1224,-1.1224,-1.0891,-1.0692,-1.0692,-1.0692,-1.0692,-1.0692,-1.0692,-1.0692,-1.0692,-1.0692,-1.0692,-1.0692,-1.0692,-1.0692,-0.7756,-0.8082,0.0,0.0,-0.8713,-0.8804,-0.8868,-0.9076,-0.9292,0.0,0.0,0.0,0.0,0.0,0.0,0.0,0.0,0.0,0.0,0.0,0.0,0.0,0.0,0.0,0.0,0.0,0.0,0.0,0.0,0.0,0.0,0.0,0.0,0.0,0.0,0.0,-1.189,-1.189,-1.1955,0.0,-1.2089,-1.2166,-1.2371,-1.4136,-1.564,-1.67,-1.5739,-1.6009,-1.691,-1.5814,-1.5364,-1.5233,-1.3809,-1.32,-1.307,-1.275,-1.2536,-1.2422,-1.2422,-1.2393,-1.2361,-1.2361,-1.2239,-1.2089,-1.2089,-1.1967,-1.1833,-1.1833,-1.1805,-1.1776,-1.1776,-1.1776,-1.1776,-1.1776,-1.1776,-1.1776,-1.1776,-1.1776,-1.1776,-1.1776,-1.1776,-1.1776,-1.1776,-1.1776,-1.1776,-1.1776,-1.1776,-1.1776,-1.1776,-1.1776,-1.1776,-1.1776,-1.1776,-1.1776,-1.1776,-1.1435,-1.1224,-1.1224,-1.0891,-1.0692,-1.0692,-1.0692,-1.0692,-1.0692,-1.0692,-1.0692,-1.0692,-1.0692,-1.0692,-1.0692,-1.0692,-1.0692,-0.7906,0.0,0.0,-0.8628,0.0,-0.8885,-0.8885,-0.8994,0.0,0.0,0.0,0.0,0.0,0.0,0.0,0.0,0.0,0.0,0.0,0.0,0.0,0.0,0.0,0.0,0.0,0.0,0.0,0.0,0.0,0.0,0.0,0.0,0.0,0.0,0.0,0.0,-1.1776,-1.1776,-1.1821,-1.191,-1.191,-1.1959,-1.2118,-1.297,-1.3852,-1.458,-1.3934,-1.4043,-1.4678,-1.3979,-1.3662,-1.3598,-1.2838,-1.2527,-1.2442,-1.2442,-1.2385,-1.2308,-1.2308,-1.2247,-1.2174,-1.2174,-1.2052,-1.191,-1.191,-1.1845,-1.1776,-1.1776,-1.1776,-1.1776,-1.1776,-1.1776,-1.1776,-1.1776,-1.1776,-1.1776,-1.1776,-1.1776,-1.1776,-1.1776,-1.1776,-1.1776,-1.1776,-1.1776,-1.1776,-1.1776,-1.1776,-1.1776,-1.1776,-1.1776,-1.1776,-1.1776,-1.1776,-1.1776,-1.1776,-1.1435,-1.1224,-1.1224,-1.0891,-1.0692,-1.0692,-1.0692,-1.0692,-1.0692,-1.0692,-1.0692,-1.0692,-1.0692,-1.0692,-1.0692,-1.0692,-1.0692,-0.8211,0.0,-0.8282,-0.8808,-0.8885,0.0,-0.8885,0.0,0.0,0.0,0.0,0.0,0.0,0.0,0.0,0.0,0.0,0.0,0.0,0.0,0.0,0.0,0.0,0.0,0.0,0.0,0.0,0.0,0.0,0.0,0.0,0.0,0.0,0.0,0.0,-1.1458,-1.1712,-1.1776,-1.1776,-1.1776,-1.1776,-1.1776,-1.1788,-1.2081,-1.2215,-1.2219,-1.228,-1.2308,-1.2308,-1.2308,-1.2308,-1.2308,-1.2308,-1.2288,-1.2259,-1.2259,-1.2239,-1.2215,-1.2215,-1.2113,-1.1983,-1.1983,-1.189,-1.1776,-1.1776,-1.1776,-1.1776,-1.1776,-1.1776,-1.1776,-1.1776,-1.1776,-1.1776,-1.1776,-1.1776,-1.1776,-1.1776,-1.1776,-1.1776,-1.1776,-1.1776,-1.1776,-1.1776,-1.1776,-1.1776,-1.1776,-1.1776,-1.1776,-1.1776,-1.1776,-1.1776,-1.1776,-1.1776,-1.1776,-1.1776,-1.1435,-1.1224,-1.1224,-1.0891,-1.0692,-1.0692,-1.0692,-1.0692,-1.0692,-1.0692,-1.0692,-1.0692,-1.0692,-1.0692,-1.0692,-1.0692,-1.0692,0.0,0.0,-0.8937,0.0,-0.8885,-0.8885,0.0,0.0,0.0,0.0,0.0,0.0,0.0,0.0,0.0,0.0,0.0,0.0,0.0,0.0,0.0,0.0,0.0,0.0,0.0,0.0,0.0,0.0,0.0,0.0,0.0,0.0,-1.0365,-1.0425,-1.097,0.0,-1.1398,-1.1651,-1.1776,-1.1776,-1.1776,-1.1776,-1.178,-1.1825,-1.191,-1.2052,-1.2237,-1.2308,-1.2308,-1.2308,-1.2308,-1.2308,-1.2308,-1.2207,-1.2065,-1.2065,-1.1971,-1.1845,-1.1845,-1.1833,-1.1809,-1.1809,-1.1797,-1.1776,-1.1776,-1.1776,-1.1776,-1.1776,-1.1776,-1.1776,-1.1776,-1.1776,-1.1776,-1.1776,-1.1776,-1.1776,-1.1776,-1.1776,-1.1776,-1.1776,-1.1776,-1.1776,-1.1776,-1.1776,-1.1776,-1.1776,-1.1776,-1.1776,-1.1776,-1.1776,-1.1776,-1.1776,-1.1776,-1.1776,-1.1776,-1.1435,-1.1224,-1.1224,-1.0891,-1.0692,-1.0692,-1.0692,-1.0692,-1.0692,-1.0692,-1.0692,-1.0692,-1.0692,-1.0692,-1.0692,-1.0692,-1.0692,-0.8111,-0.8539,-0.8906,0.0,-0.8885,0.0,0.0,0.0,0.0,0.0,0.0,0.0,0.0,0.0,0.0,0.0,0.0,0.0,0.0,0.0,0.0,0.0,0.0,0.0,0.0,0.0,0.0,0.0,0.0,0.0,0.0,-0.9775,-1.0003,-1.018,-1.0744,0.0,-1.1273,-1.1647,-1.1776,-1.1776,-1.1776,-1.1776,-1.1776,-1.1776,-1.1837,-1.1909,-1.2004,-1.2012,-1.2012,-1.2012,-1.2012,-1.2012,-1.2012,-1.1959,-1.189,-1.189,-1.1841,-1.1776,-1.1776,-1.1776,-1.1776,-1.1776,-1.1776,-1.1776,-1.1776,-1.1776,-1.1776,-1.1776,-1.1776,-1.1776,-1.1776,-1.1776,-1.1776,-1.1776,-1.1776,-1.1776,-1.1776,-1.1776,-1.1776,-1.1776,-1.1776,-1.1776,-1.1776,-1.1776,-1.1776,-1.1776,-1.1776,-1.1776,-1.1776,-1.1776,-1.1776,-1.1776,-1.1776,-1.1776,-1.1776,-1.1435,-1.1224,-1.1224,-1.0891,-1.0692,-1.0692,-1.0692,-1.0692,-1.0692,-1.0692,-1.0692,-1.0692,-1.0692,-1.0692,-1.0692,-1.0692,-1.0692,0.0,0.0,-0.8749,-0.8835,-0.8824,0.0,0.0,0.0,0.0,0.0,0.0,0.0,0.0,0.0,0.0,0.0,0.0,0.0,0.0,0.0,0.0,0.0,0.0,0.0,0.0,0.0,0.0,0.0,0.0,0.0,-0.9381,-0.949,-0.9669,-0.9905,-1.0368,-1.0685,-1.097,-1.1442,-1.1712,-1.1776,-1.1776,-1.1776,-1.1776,-1.1776,-1.1776,-1.1776,-1.1776,-1.1776,-1.1776,-1.1776,-1.1776,-1.1776,-1.1776,-1.1776,-1.1776,-1.1776,-1.1776,-1.1776,-1.1776,-1.1776,-1.1776,-1.1776,-1.1776,-1.1776,-1.1776,-1.1776,-1.1776,-1.1776,-1.1776,-1.1776,-1.1776,-1.1776,-1.1776,-1.1776,-1.1776,-1.1776,-1.1776,-1.1776,-1.1776,-1.1776,-1.1776,-1.1776,-1.1776,-1.1776,-1.1776,-1.1776,-1.1776,-1.1776,-1.1776,-1.1776,-1.1776,-1.1776,-1.1776,-1.1776,-1.1776,-1.1435,-1.1224,-1.1224,-1.0891,-1.0692,-1.0692,-1.0692,-1.0692,-1.0692,-1.0692,-1.0692,-1.0692,-1.0692,-1.0692,-1.0692,-1.0692,-1.0716,0.0,-0.8369,0.0,-0.8702,0.0,0.0,0.0,0.0,0.0,0.0,0.0,0.0,0.0,0.0,0.0,0.0,0.0,0.0,0.0,0.0,0.0,0.0,0.0,0.0,0.0,0.0,0.0,0.0,0.0,0.0,-0.9374,-0.9388,-0.9395,-0.9449,-0.9747,-1.0,-1.015,-1.0955,-1.1462,-1.1776,-1.1776,-1.1776,-1.1776,-1.1776,-1.1776,-1.1776,-1.1776,-1.1776,-1.1776,-1.1776,-1.1776,-1.1776,-1.1776,-1.1776,-1.1776,-1.1776,-1.1776,-1.1776,-1.1776,-1.1776,-1.1776,-1.1776,-1.1776,-1.1776,-1.1776,-1.1776,-1.1776,-1.1776,-1.1776,-1.1776,-1.1776,-1.1776,-1.1776,-1.1776,-1.1776,-1.1776,-1.1776,-1.1776,-1.1776,-1.1776,-1.1776,-1.1776,-1.1776,-1.1776,-1.1776,-1.1776,-1.1776,-1.1776,-1.1776,-1.1776,-1.1776,-1.1776,-1.1776,-1.1776,-1.1776,-1.1435,-1.1224,-1.1224,-1.0891,-1.0692,-1.0692,-1.0692,-1.0692,-1.0692,-1.0692,-1.0692,-1.0692,-1.0692,-1.0692,-1.0692,-1.0692,-1.0785,0.0,0.0,0.0,0.0,0.0,0.0,0.0,0.0,0.0,0.0,0.0,0.0,0.0,0.0,0.0,0.0,0.0,0.0,0.0,0.0,0.0,0.0,0.0,0.0,0.0,0.0,0.0,0.0,0.0,0.0,-0.9093,-0.9184,-0.9292,-0.9292,-0.9673,-0.9986,-1.0219,-1.0854,-1.124,-1.1363,-1.1659,-1.1776,-1.1776,-1.1776,-1.1776,-1.1776,-1.1776,-1.1776,-1.1776,-1.1776,-1.1776,-1.1776,-1.1776,-1.1776,-1.1776,-1.1776,-1.1776,-1.1776,-1.1776,-1.1776,-1.1776,-1.1776,-1.1776,-1.1776,-1.1776,-1.1776,-1.1776,-1.1776,-1.1776,-1.1776,-1.1776,-1.1776,-1.1776,-1.1776,-1.1776,-1.1776,-1.1776,-1.1776,-1.1776,-1.1776,-1.1776,-1.1776,-1.1776,-1.1776,-1.1776,-1.1776,-1.1776,-1.1776,-1.1776,-1.1776,-1.1776,-1.1776,-1.1776,-1.1776,-1.1776,-1.1545,-1.1399,-1.1399,-1.1066,-1.0871,-1.0871,-1.0757,-1.0692,-1.0692,-1.081,-1.081,-1.0692,-1.0692,-1.0753,-1.0871,-1.0871,-1.0964,-0.8136,0.0,0.0,0.0,0.0,0.0,0.0,0.0,0.0,0.0,0.0,0.0,0.0,0.0,0.0,0.0,0.0,0.0,0.0,0.0,0.0,0.0,0.0,0.0,0.0,0.0,0.0,0.0,0.0,0.0,-0.8885,-0.9028,-0.9083,-0.9083,-0.9453,-0.9821,-1.0047,-1.0561,-1.0883,-1.1001,-1.1414,-1.1622,-1.1683,-1.1683,-1.1715,-1.1776,-1.1776,-1.1776,-1.1776,-1.1776,-1.1776,-1.1776,-1.1776,-1.1776,-1.1776,-1.1776,-1.1776,-1.1776,-1.1776,-1.1776,-1.1776,-1.1776,-1.1776,-1.1776,-1.1776,-1.1776,-1.1776,-1.1776,-1.1776,-1.1776,-1.1776,-1.1776,-1.1776,-1.1776,-1.1776,-1.1776,-1.1776,-1.1776,-1.1776,-1.1776,-1.1776,-1.1776,-1.1776,-1.1776,-1.1776,-1.1776,-1.1776,-1.1776,-1.1776,-1.1776,-1.1776,-1.1776,-1.1776,-1.1776,-1.1776,-1.1606,-1.15,-1.15,-1.122,-1.1053,-1.1053,-1.0936,-1.0871,-1.0871,-1.0992,-1.0992,-1.0871,-1.0871,-1.0936,-1.1053,-1.1053,-1.1147,0.0,0.0,0.0,0.0,0.0,0.0,0.0,0.0,0.0,0.0,0.0,0.0,0.0,0.0,0.0,0.0,0.0,0.0,0.0,0.0,0.0,0.0,0.0,0.0,0.0,0.0,0.0,0.0,0.0,-0.8885,-0.8885,-0.8885,-0.8885,-0.8885,-0.9076,-0.9313,-0.9596,-1.0039,-1.0466,-1.0755,-1.1047,-1.1317,-1.1492,-1.1492,-1.1589,-1.176,-1.1764,-1.1768,-1.1768,-1.1776,-1.1776,-1.1776,-1.1776,-1.1776,-1.1776,-1.1776,-1.1776,-1.1776,-1.1776,-1.1776,-1.1776,-1.1776,-1.1776,-1.1776,-1.1776,-1.1776,-1.1776,-1.1776,-1.1776,-1.1776,-1.1776,-1.1776,-1.1776,-1.1776,-1.1776,-1.1776,-1.1776,-1.1776,-1.1776,-1.1776,-1.1776,-1.1776,-1.1776,-1.1776,-1.1776,-1.1776,-1.1776,-1.1776,-1.1776,-1.1776,-1.1776,-1.1776,-1.1776,-1.1776,-1.1776,-1.161,-1.1508,-1.1508,-1.1334,-1.1232,-1.1232,-1.1224,-1.1224,-1.1224,-1.1228,-1.1232,-1.1232,-1.1224,-1.1224,-1.1232,-1.1236,-1.1334,-0.7988,0.0,0.0,0.0,0.0,0.0,0.0,0.0,0.0,0.0,0.0,0.0,0.0,0.0,0.0,0.0,0.0,0.0,0.0,0.0,0.0,0.0,0.0,0.0,0.0,0.0,0.0,0.0,0.0,-0.8885,-0.8885,-0.8885,-0.8885,-0.8885,-0.8977,-0.8998,-0.9106,-0.9532,-0.9951,-1.0292,-1.07,-1.1017,-1.1297,-1.1297,-1.1325,-1.1382,-1.152,-1.1577,-1.1585,-1.1719,-1.1776,-1.1776,-1.1776,-1.1776,-1.1776,-1.1776,-1.1776,-1.1776,-1.1776,-1.1776,-1.1776,-1.1776,-1.1776,-1.1776,-1.1776,-1.1776,-1.1776,-1.1776,-1.1776,-1.1776,-1.1776,-1.1776,-1.1776,-1.1776,-1.1776,-1.1776,-1.1776,-1.1776,-1.1776,-1.1776,-1.1776,-1.1776,-1.1776,-1.1776,-1.1776,-1.1776,-1.1776,-1.1776,-1.1776,-1.1776,-1.1776,-1.1776,-1.1776,-1.1776,-1.1776,-1.1732,-1.1699,-1.1699,-1.1524,-1.1423,-1.1423,-1.1293,-1.1224,-1.1224,-1.1354,-1.1423,-1.1423,-1.1289,-1.1289,-1.1427,-1.1561,-1.165,-0.7988,-0.7988,-0.7988,0.0,0.0,0.0,0.0,-0.8492,0.0,0.0,0.0,0.0,0.0,0.0,0.0,0.0,0.0,0.0,0.0,0.0,0.0,0.0,0.0,0.0,0.0,0.0,0.0,0.0,-0.8885,-0.8885,-0.8885,-0.8885,-0.8885,-0.8885,-0.8885,-0.8885,-0.8885,-0.9297,-0.9619,-0.979,-1.0333,-1.0705,-1.0886,-1.1057,-1.1155,-1.1228,-1.1338,-1.1382,-1.1399,-1.1585,-1.1707,-1.1776,-1.1776,-1.1776,-1.1776,-1.1776,-1.1776,-1.1776,-1.1776,-1.1776,-1.1776,-1.1776,-1.1776,-1.1776,-1.1776,-1.1776,-1.1776,-1.1776,-1.1776,-1.1776,-1.1776,-1.1776,-1.1776,-1.1776,-1.1776,-1.1776,-1.1776,-1.1715,-1.1687,-1.176,-1.1776,-1.1776,-1.1776,-1.1776,-1.1776,-1.1776,-1.1776,-1.1776,-1.1776,-1.1776,-1.1776,-1.1776,-1.1776,-1.1776,-1.1776,-1.1776,-1.1776,-1.1776,-1.1675,-1.1614,-1.1614,-1.1508,-1.1451,-1.1451,-1.1561,-1.1614,-1.1614,-1.1504,-1.1508,-1.1618,-1.1727,-1.1776,-0.7942,-0.7992,-0.7988,0.0,0.0,0.0,-0.8322,-0.8445,0.0,0.0,0.0,0.0,0.0,0.0,0.0,0.0,0.0,0.0,0.0,0.0,0.0,0.0,0.0,0.0,0.0,0.0,0.0,-0.8885,-0.8885,-0.8885,-0.8885,-0.8885,-0.8885,-0.8885,-0.8885,-0.8885,-0.8885,-0.9213,-0.9379,-0.9434,-0.9981,-1.0338,-1.0486,-1.0827,-1.1021,-1.1163,-1.1183,-1.1196,-1.1208,-1.1395,-1.1577,-1.1748,-1.1768,-1.1776,-1.1776,-1.1776,-1.1776,-1.1776,-1.1776,-1.1776,-1.1776,-1.1776,-1.1776,-1.1776,-1.1776,-1.1776,-1.1776,-1.1776,-1.1776,-1.1776,-1.1776,-1.1776,-1.1776,-1.1776,-1.1776,-1.1768,-1.1752,-1.1618,-1.1541,-1.1687,-1.1732,-1.1752,-1.1772,-1.1776,-1.1776,-1.1776,-1.1776,-1.1776,-1.1776,-1.1776,-1.1776,-1.1776,-1.1776,-1.1776,-1.1776,-1.1776,-1.1776,-1.1776,-1.1776,-1.1776,-1.1776,-1.1776,-1.1776,-1.1776,-1.1776,-1.1776,-1.1776,-1.1776,-1.1776,-1.1776,-1.1776,-1.1776,0.0,0.0,0.0,0.0,0.0,0.0,-0.7815,-0.8072,0.0,0.0,0.0,0.0,0.0,0.0,0.0,0.0,0.0,0.0,0.0,0.0,0.0,0.0,0.0,0.0,0.0,0.0,-0.8885,-0.8885,-0.8885,-0.8885,-0.8885,-0.8885,-0.8885,-0.8885,-0.8885,-0.8885,-0.8885,-0.894,-0.9158,-0.9379,-0.9761,-1.0052,-1.0362,-1.0634,-1.0765,-1.0806,-1.0952,-1.1017,-1.1033,-1.1208,-1.1386,-1.1569,-1.1719,-1.1776,-1.1776,-1.1776,-1.1776,-1.1776,-1.1776,-1.1776,-1.1776,-1.1776,-1.1776,-1.1776,-1.1776,-1.1776,-1.1776,-1.1776,-1.1776,-1.1776,-1.1776,-1.1776,-1.1776,-1.1776,-1.1776,-1.1736,-1.1585,-1.1524,-1.1464,-1.1354,-1.1451,-1.1602,-1.1752,-1.1776,-1.1776,-1.1776,-1.1776,-1.1776,-1.1776,-1.1776,-1.1776,-1.1776,-1.1776,-1.1776,-1.1776,-1.1776,-1.1776,-1.1776,-1.1776,-1.1776,-1.1776,-1.1776,-1.1776,-1.1776,-1.1776,-1.1776,-1.1776,-1.1776,-1.1776,-1.1776,-1.1776,-1.1776,0.0,0.0,0.0,-0.749,0.0,0.0,0.0,-0.8011,0.0,0.0,0.0,0.0,0.0,0.0,0.0,0.0,0.0,0.0,0.0,0.0,0.0,0.0,0.0,0.0,0.0,0.0,-0.8885,-0.8885,-0.8885,-0.8885,-0.8885,-0.8885,-0.8885,-0.8885,-0.8885,-0.8885,-0.8885,-0.8885,-0.8992,-0.9158,-0.9434,-0.9706,-0.9871,-1.0147,-1.0363,-1.0531,-1.0627,-1.0719,-1.0846,-1.1025,-1.1151,-1.1261,-1.1533,-1.1638,-1.165,-1.1744,-1.1776,-1.1776,-1.1776,-1.1776,-1.1776,-1.1776,-1.1776,-1.1776,-1.1776,-1.1776,-1.1776,-1.1776,-1.1776,-1.1776,-1.1776,-1.1776,-1.1752,-1.1663,-1.1638,-1.1585,-1.1403,-1.1297,-1.1232,-1.1224,-1.1297,-1.1419,-1.1606,-1.1638,-1.1671,-1.176,-1.1776,-1.1776,-1.1776,-1.1776,-1.1776,-1.1776,-1.1776,-1.1776,-1.1776,-1.1776,-1.1776,-1.1776,-1.1776,-1.1776,-1.1776,-1.1776,-1.1776,-1.1776,-1.1776,-1.1776,-1.1776,-1.1776,-1.1776,-1.1776,-1.1776,-1.1776,0.0,0.0,0.0,0.0,0.0,-0.7972,0.0,0.0,0.0,0.0,0.0,0.0,0.0,0.0,0.0,0.0,0.0,0.0,0.0,0.0,0.0,0.0,0.0,0.0,0.0,0.0,-0.8851,-0.8881,-0.8854,-0.8851,-0.8881,-0.8885,-0.8885,-0.8885,-0.8885,-0.8885,-0.8885,-0.8885,-0.8885,-0.8885,-0.9213,-0.9379,-0.9434,-0.9651,-0.9926,-1.0202,-1.0202,-1.0363,-1.0649,-1.0799,-1.0915,-1.0952,-1.1309,-1.1447,-1.1468,-1.1654,-1.1723,-1.1727,-1.1764,-1.1776,-1.1776,-1.1776,-1.1776,-1.1776,-1.1776,-1.1776,-1.1776,-1.1776,-1.1752,-1.1723,-1.1723,-1.1699,-1.163,-1.1484,-1.1447,-1.1395,-1.1212,-1.1066,-1.1009,-1.1147,-1.1175,-1.124,-1.1459,-1.1529,-1.1606,-1.1752,-1.1776,-1.1776,-1.1776,-1.1776,-1.1776,-1.1776,-1.1776,-1.1776,-1.1776,-1.1776,-1.1776,-1.1776,-1.1776,-1.1776,-1.1776,-1.1776,-1.1776,-1.1776,-1.1776,-1.1776,-1.1776,-1.1776,-1.1776,-1.1776,-1.1776,-1.1776,0.0,0.0,0.0,0.0,-0.7441,0.0,0.0,0.0,0.0,0.0,0.0,0.0,0.0,0.0,0.0,0.0,0.0,0.0,0.0,0.0,0.0,0.0,0.0,0.0,0.0,0.0,0.0,-0.8871,-0.8811,-0.8794,-0.8875,-0.8885,-0.8885,-0.8885,-0.8885,-0.8885,-0.8885,-0.8885,-0.8885,-0.8885,-0.9213,-0.9379,-0.9434,-0.9651,-0.9816,-0.9871,-0.9871,-1.0036,-1.0366,-1.039,-1.0504,-1.0757,-1.1114,-1.1252,-1.1277,-1.1464,-1.1533,-1.1553,-1.1719,-1.1776,-1.1776,-1.1776,-1.1776,-1.1776,-1.1776,-1.1776,-1.1776,-1.1776,-1.1658,-1.1533,-1.1533,-1.1407,-1.1281,-1.1256,-1.1252,-1.1208,-1.1033,-1.098,-1.0976,-1.0997,-1.1001,-1.1106,-1.1443,-1.1634,-1.1752,-1.1776,-1.1776,-1.1776,-1.1776,-1.1776,-1.1776,-1.1776,-1.1776,-1.1776,-1.1776,-1.1776,-1.1776,-1.1776,-1.1776,-1.1776,-1.1776,-1.1776,-1.1776,-1.1776,-1.1776,-1.1776,-1.1776,-1.1776,-1.1776,-1.1776,-1.1776,-1.1776,0.0,0.0,0.0,0.0,0.0,0.0,0.0,0.0,-0.6942,0.0,0.0,0.0,0.0,0.0,0.0,0.0,0.0,0.0,0.0,0.0,0.0,0.0,0.0,0.0,0.0,0.0,0.0,0.0,0.0,-0.8814,-0.8878,-0.8885,-0.8885,-0.8885,-0.8885,-0.8885,-0.8885,-0.8885,-0.8885,-0.8885,-0.9047,-0.9103,-0.9103,-0.9213,-0.9375,-0.9544,-0.9544,-0.9761,-1.0036,-1.0036,-1.0091,-1.0213,-1.0356,-1.0642,-1.1094,-1.1273,-1.1407,-1.1508,-1.1589,-1.1687,-1.1776,-1.1776,-1.1776,-1.1776,-1.1776,-1.1776,-1.1776,-1.1776,-1.1595,-1.1407,-1.1407,-1.1173,-1.0917,-1.0821,-1.0798,-1.081,-1.0807,-1.0829,-1.0886,-1.1057,-1.1204,-1.1321,-1.1476,-1.1565,-1.1654,-1.176,-1.1776,-1.1776,-1.1776,-1.1776,-1.1776,-1.1776,-1.1776,-1.1776,-1.1776,-1.1776,-1.1776,-1.1776,-1.1776,-1.1776,-1.1776,-1.1776,-1.1776,-1.1776,-1.1776,-1.1776,-1.1776,-1.1776,-1.1776,-1.1776,-1.1776,-1.1776,-0.6833,0.0,0.0,0.0,0.0,0.0,0.0,0.0,0.0,0.0,0.0,0.0,0.0,0.0,0.0,0.0,0.0,0.0,0.0,0.0,0.0,0.0,0.0,0.0,0.0,0.0,0.0,0.0,-0.8821,0.0,-0.8881,-0.8885,-0.8885,-0.8885,-0.8885,-0.8885,-0.8885,-0.8885,-0.8885,-0.8885,-0.8885,-0.8885,-0.8885,-0.8885,-0.9047,-0.9268,-0.9268,-0.9434,-0.9706,-0.9706,-0.9706,-0.9816,-0.9816,-1.0168,-1.0691,-1.0858,-1.1001,-1.1129,-1.1228,-1.1379,-1.153,-1.153,-1.153,-1.153,-1.153,-1.153,-1.153,-1.153,-1.1306,-1.1086,-1.1086,-1.0868,-1.0629,-1.045,-1.0424,-1.045,-1.0558,-1.059,-1.0659,-1.0937,-1.1114,-1.1217,-1.1324,-1.1391,-1.1558,-1.1756,-1.1712,-1.1712,-1.1776,-1.1776,-1.1776,-1.1776,-1.1776,-1.1776,-1.1776,-1.1776,-1.1776,-1.1776,-1.1776,-1.1776,-1.1776,-1.1776,-1.1776,-1.1776,-1.1776,-1.1776,-1.1776,-1.1776,-1.1776,-1.1776,-1.1776,-1.1776,0.0,0.0,0.0,-0.7222,0.0,0.0,0.0,0.0,-0.6437,0.0,0.0,0.0,0.0,0.0,-0.6892,-0.7188,-0.7447,0.0,0.0,0.0,0.0,0.0,0.0,0.0,0.0,0.0,0.0,0.0,-0.8716,0.0,-0.8875,-0.8885,-0.8885,-0.8885,-0.8885,-0.8885,-0.8885,-0.8885,-0.8885,-0.8885,-0.8885,-0.8885,-0.8885,-0.8885,-0.8885,-0.894,-0.894,-0.9103,-0.9434,-0.9434,-0.9544,-0.9816,-0.9816,-0.9816,-0.9842,-1.0059,-1.0119,-1.0171,-1.0501,-1.0718,-1.0849,-1.0849,-1.0849,-1.0849,-1.0849,-1.0849,-1.0849,-1.0849,-1.0681,-1.0502,-1.0502,-1.0439,-1.0316,-1.0312,-1.0308,-1.0308,-1.0301,-1.0301,-1.0349,-1.0513,-1.0547,-1.0603,-1.0816,-1.1084,-1.1394,-1.1776,-1.1522,-1.1458,-1.1776,-1.1776,-1.1776,-1.1776,-1.1776,-1.1776,-1.1776,-1.1776,-1.1776,-1.1776,-1.1776,-1.1776,-1.1776,-1.1776,-1.1776,-1.1776,-1.1776,-1.1776,-1.1776,-1.1776,-1.1776,-1.1776,-1.1776,-1.1776,0.0,0.0,-0.7871,-0.7283,0.0,0.0,0.0,0.0,0.0,0.0,0.0,0.0,0.0,-0.6795,-0.6892,-0.7138,-0.7288,-0.7341,0.0,0.0,0.0,0.0,0.0,0.0,0.0,0.0,0.0,-0.8706,-0.8804,-0.8828,0.0,-0.8885,-0.8885,-0.8885,-0.8885,-0.8885,-0.8885,-0.8885,-0.8885,-0.8885,-0.8885,-0.8885,-0.8885,-0.8885,-0.8885,-0.8885,-0.8885,-0.894,-0.9051,-0.9051,-0.9103,-0.9213,-0.9213,-0.9213,-0.9272,-0.971,-0.9962,-1.0156,-1.0497,-1.0718,-1.0789,-1.0789,-1.0789,-1.0789,-1.0789,-1.0789,-1.0789,-1.0789,-1.0571,-1.035,-1.035,-1.0187,-0.9968,-0.9968,-0.9968,-1.0028,-1.0267,-1.0327,-1.0401,-1.0639,-1.0707,-1.0726,-1.0778,-1.0728,-1.0728,-1.1095,-1.1035,-1.1031,-1.1099,-1.116,-1.116,-1.116,-1.1341,-1.1402,-1.1156,-1.116,-1.122,-1.1462,-1.1462,-1.1587,-1.1776,-1.1776,-1.1776,-1.1776,-1.1776,-1.1776,-1.1776,-1.1776,-1.1776,-1.1776,-1.1776,-1.1776,-0.7949,-0.8107,0.0,0.0,-0.7374,0.0,-0.665,0.0,0.0,0.0,0.0,0.0,0.0,0.0,-0.6603,-0.6544,-0.6815,-0.7141,0.0,-0.7494,0.0,0.0,0.0,0.0,0.0,0.0,-0.8574,-0.8625,-0.8771,-0.8824,0.0,0.0,-0.8885,-0.8885,-0.8885,-0.8885,-0.8885,-0.8885,-0.8885,-0.8885,-0.8885,-0.8885,-0.8885,-0.8885,-0.8885,-0.8885,-0.8885,-0.8885,-0.8885,-0.8885,-0.8885,-0.8885,-0.8885,-0.8885,-0.8937,-0.932,-0.9619,-0.9888,-1.0102,-1.0312,-1.0425,-1.0425,-1.0425,-1.0425,-1.0425,-1.0425,-1.0415,-1.0361,-1.0265,-1.0112,-1.0059,-0.9902,-0.9822,-0.9822,-0.9822,-0.9883,-1.0061,-1.0126,-1.0183,-1.0425,-1.0425,-1.0425,-1.0425,-1.0243,-1.0304,-1.0728,-1.0728,-1.0668,-1.0789,-1.0789,-1.0789,-1.0789,-1.097,-1.1031,-1.0849,-1.0789,-1.091,-1.1091,-1.1091,-1.1216,-1.1466,-1.1466,-1.1526,-1.1647,-1.1647,-1.1651,-1.1776,-1.1776,-1.1776,-1.1776,-1.1776,-1.1776]}]]